<?xml version="1.0" encoding="UTF-8" standalone="no" ?>
<gpx xmlns="http://www.topografix.com/GPX/1/1" xmlns:xsi="http://www.w3.org/2001/XMLSchema-instance" xsi:schemaLocation="http://www.topografix.com/GPX/1/1 http://www.topografix.com/GPX/1/1/gpx.xsd" version="1.1" creator="VisuGPX - https://www.visugpx.com">
  <metadata>
    <name>Trans-Maurienne</name>
    <desc><![CDATA[Course du Dimanche 11/8/2013]]></desc>
  </metadata>
  <wpt lat="45.23995" lon="6.26839">
    <ele>1564</ele>
  </wpt>
  <wpt lat="45.25443" lon="6.25945">
    <ele>1699</ele>
  </wpt>
  <trk>
    <name><![CDATA[Trans-Maurienne_1]]></name>
    <trkseg>
      <trkpt lat="45.23995" lon="6.26839">
        <ele>1564</ele>
        <time>2013-08-11T07:52:26Z</time>
      </trkpt>
      <trkpt lat="45.24002" lon="6.2683">
        <ele>1565</ele>
        <time>2013-08-11T07:53:53Z</time>
      </trkpt>
      <trkpt lat="45.2401" lon="6.26821">
        <ele>1565</ele>
        <time>2013-08-11T07:54:03Z</time>
      </trkpt>
      <trkpt lat="45.24018" lon="6.26814">
        <ele>1565</ele>
        <time>2013-08-11T07:54:18Z</time>
      </trkpt>
      <trkpt lat="45.24028" lon="6.26816">
        <ele>1565</ele>
        <time>2013-08-11T07:54:37Z</time>
      </trkpt>
      <trkpt lat="45.24026" lon="6.26829">
        <ele>1565</ele>
        <time>2013-08-11T07:55:03Z</time>
      </trkpt>
      <trkpt lat="45.24017" lon="6.26825">
        <ele>1565</ele>
        <time>2013-08-11T07:55:13Z</time>
      </trkpt>
      <trkpt lat="45.24025" lon="6.26817">
        <ele>1565</ele>
        <time>2013-08-11T07:55:31Z</time>
      </trkpt>
      <trkpt lat="45.24015" lon="6.26818">
        <ele>1565</ele>
        <time>2013-08-11T07:55:47Z</time>
      </trkpt>
      <trkpt lat="45.24005" lon="6.26816">
        <ele>1565</ele>
        <time>2013-08-11T07:55:55Z</time>
      </trkpt>
      <trkpt lat="45.23999" lon="6.26826">
        <ele>1566</ele>
        <time>2013-08-11T07:56:01Z</time>
      </trkpt>
      <trkpt lat="45.23991" lon="6.26835">
        <ele>1564</ele>
        <time>2013-08-11T07:56:07Z</time>
      </trkpt>
      <trkpt lat="45.23998" lon="6.26844">
        <ele>1564</ele>
        <time>2013-08-11T07:58:48Z</time>
      </trkpt>
      <trkpt lat="45.23989" lon="6.2684">
        <ele>1564</ele>
        <time>2013-08-11T07:59:27Z</time>
      </trkpt>
      <trkpt lat="45.23989" lon="6.26826">
        <ele>1566</ele>
        <time>2013-08-11T08:02:06Z</time>
      </trkpt>
      <trkpt lat="45.23993" lon="6.26839">
        <ele>1564</ele>
        <time>2013-08-11T08:02:27Z</time>
      </trkpt>
      <trkpt lat="45.23985" lon="6.26833">
        <ele>1567</ele>
        <time>2013-08-11T08:04:34Z</time>
      </trkpt>
      <trkpt lat="45.23985" lon="6.26819">
        <ele>1567</ele>
        <time>2013-08-11T08:05:32Z</time>
      </trkpt>
      <trkpt lat="45.23989" lon="6.26831">
        <ele>1566</ele>
        <time>2013-08-11T08:07:17Z</time>
      </trkpt>
      <trkpt lat="45.23994" lon="6.26843">
        <ele>1564</ele>
        <time>2013-08-11T08:07:40Z</time>
      </trkpt>
      <trkpt lat="45.23986" lon="6.26834">
        <ele>1564</ele>
        <time>2013-08-11T08:08:27Z</time>
      </trkpt>
      <trkpt lat="45.23995" lon="6.26838">
        <ele>1564</ele>
        <time>2013-08-11T08:09:07Z</time>
      </trkpt>
      <trkpt lat="45.24003" lon="6.26829">
        <ele>1565</ele>
        <time>2013-08-11T08:09:26Z</time>
      </trkpt>
      <trkpt lat="45.24012" lon="6.26822">
        <ele>1565</ele>
        <time>2013-08-11T08:09:30Z</time>
      </trkpt>
      <trkpt lat="45.24021" lon="6.26817">
        <ele>1565</ele>
        <time>2013-08-11T08:09:34Z</time>
      </trkpt>
      <trkpt lat="45.24032" lon="6.26808">
        <ele>1565</ele>
        <time>2013-08-11T08:09:38Z</time>
      </trkpt>
      <trkpt lat="45.24041" lon="6.26799">
        <ele>1565</ele>
        <time>2013-08-11T08:09:41Z</time>
      </trkpt>
      <trkpt lat="45.2405" lon="6.2679">
        <ele>1565</ele>
        <time>2013-08-11T08:09:44Z</time>
      </trkpt>
      <trkpt lat="45.24059" lon="6.26781">
        <ele>1566</ele>
        <time>2013-08-11T08:09:47Z</time>
      </trkpt>
      <trkpt lat="45.24067" lon="6.26768">
        <ele>1567</ele>
        <time>2013-08-11T08:09:50Z</time>
      </trkpt>
      <trkpt lat="45.24077" lon="6.26756">
        <ele>1569</ele>
        <time>2013-08-11T08:09:53Z</time>
      </trkpt>
      <trkpt lat="45.24087" lon="6.26745">
        <ele>1570</ele>
        <time>2013-08-11T08:09:56Z</time>
      </trkpt>
      <trkpt lat="45.24097" lon="6.26735">
        <ele>1571</ele>
        <time>2013-08-11T08:09:59Z</time>
      </trkpt>
      <trkpt lat="45.24104" lon="6.26722">
        <ele>1571</ele>
        <time>2013-08-11T08:10:02Z</time>
      </trkpt>
      <trkpt lat="45.24111" lon="6.26712">
        <ele>1572</ele>
        <time>2013-08-11T08:10:05Z</time>
      </trkpt>
      <trkpt lat="45.24116" lon="6.26698">
        <ele>1572</ele>
        <time>2013-08-11T08:10:08Z</time>
      </trkpt>
      <trkpt lat="45.24123" lon="6.26689">
        <ele>1573</ele>
        <time>2013-08-11T08:10:11Z</time>
      </trkpt>
      <trkpt lat="45.24127" lon="6.26677">
        <ele>1573</ele>
        <time>2013-08-11T08:10:14Z</time>
      </trkpt>
      <trkpt lat="45.24132" lon="6.26665">
        <ele>1579</ele>
        <time>2013-08-11T08:10:17Z</time>
      </trkpt>
      <trkpt lat="45.24139" lon="6.26654">
        <ele>1579</ele>
        <time>2013-08-11T08:10:20Z</time>
      </trkpt>
      <trkpt lat="45.24149" lon="6.26651">
        <ele>1579</ele>
        <time>2013-08-11T08:10:23Z</time>
      </trkpt>
      <trkpt lat="45.24159" lon="6.2666">
        <ele>1576</ele>
        <time>2013-08-11T08:10:26Z</time>
      </trkpt>
      <trkpt lat="45.24167" lon="6.26672">
        <ele>1573</ele>
        <time>2013-08-11T08:10:28Z</time>
      </trkpt>
      <trkpt lat="45.24174" lon="6.26684">
        <ele>1570</ele>
        <time>2013-08-11T08:10:30Z</time>
      </trkpt>
      <trkpt lat="45.24186" lon="6.26692">
        <ele>1568</ele>
        <time>2013-08-11T08:10:32Z</time>
      </trkpt>
      <trkpt lat="45.24199" lon="6.26699">
        <ele>1567</ele>
        <time>2013-08-11T08:10:34Z</time>
      </trkpt>
      <trkpt lat="45.2421" lon="6.26699">
        <ele>1567</ele>
        <time>2013-08-11T08:10:36Z</time>
      </trkpt>
      <trkpt lat="45.24222" lon="6.26697">
        <ele>1567</ele>
        <time>2013-08-11T08:10:38Z</time>
      </trkpt>
      <trkpt lat="45.24232" lon="6.26689">
        <ele>1568</ele>
        <time>2013-08-11T08:10:40Z</time>
      </trkpt>
      <trkpt lat="45.24238" lon="6.26676">
        <ele>1568</ele>
        <time>2013-08-11T08:10:42Z</time>
      </trkpt>
      <trkpt lat="45.24243" lon="6.2666">
        <ele>1572</ele>
        <time>2013-08-11T08:10:45Z</time>
      </trkpt>
      <trkpt lat="45.24241" lon="6.26645">
        <ele>1575</ele>
        <time>2013-08-11T08:10:49Z</time>
      </trkpt>
      <trkpt lat="45.24235" lon="6.26635">
        <ele>1576</ele>
        <time>2013-08-11T08:10:54Z</time>
      </trkpt>
      <trkpt lat="45.24226" lon="6.26631">
        <ele>1577</ele>
        <time>2013-08-11T08:11:01Z</time>
      </trkpt>
      <trkpt lat="45.24214" lon="6.26632">
        <ele>1577</ele>
        <time>2013-08-11T08:11:06Z</time>
      </trkpt>
      <trkpt lat="45.24203" lon="6.26629">
        <ele>1577</ele>
        <time>2013-08-11T08:11:11Z</time>
      </trkpt>
      <trkpt lat="45.24192" lon="6.26631">
        <ele>1577</ele>
        <time>2013-08-11T08:11:15Z</time>
      </trkpt>
      <trkpt lat="45.24182" lon="6.26626">
        <ele>1578</ele>
        <time>2013-08-11T08:11:21Z</time>
      </trkpt>
      <trkpt lat="45.24173" lon="6.26621">
        <ele>1578</ele>
        <time>2013-08-11T08:11:26Z</time>
      </trkpt>
      <trkpt lat="45.24163" lon="6.26617">
        <ele>1581</ele>
        <time>2013-08-11T08:11:32Z</time>
      </trkpt>
      <trkpt lat="45.24157" lon="6.26607">
        <ele>1582</ele>
        <time>2013-08-11T08:11:40Z</time>
      </trkpt>
      <trkpt lat="45.24147" lon="6.26609">
        <ele>1582</ele>
        <time>2013-08-11T08:11:47Z</time>
      </trkpt>
      <trkpt lat="45.24137" lon="6.26609">
        <ele>1582</ele>
        <time>2013-08-11T08:11:52Z</time>
      </trkpt>
      <trkpt lat="45.24125" lon="6.26608">
        <ele>1582</ele>
        <time>2013-08-11T08:11:57Z</time>
      </trkpt>
      <trkpt lat="45.24113" lon="6.26606">
        <ele>1583</ele>
        <time>2013-08-11T08:12:02Z</time>
      </trkpt>
      <trkpt lat="45.24103" lon="6.26604">
        <ele>1584</ele>
        <time>2013-08-11T08:12:07Z</time>
      </trkpt>
      <trkpt lat="45.2409" lon="6.26603">
        <ele>1585</ele>
        <time>2013-08-11T08:12:11Z</time>
      </trkpt>
      <trkpt lat="45.24079" lon="6.26602">
        <ele>1587</ele>
        <time>2013-08-11T08:12:15Z</time>
      </trkpt>
      <trkpt lat="45.24069" lon="6.26601">
        <ele>1587</ele>
        <time>2013-08-11T08:12:18Z</time>
      </trkpt>
      <trkpt lat="45.24059" lon="6.26603">
        <ele>1587</ele>
        <time>2013-08-11T08:12:21Z</time>
      </trkpt>
      <trkpt lat="45.24048" lon="6.26605">
        <ele>1587</ele>
        <time>2013-08-11T08:12:24Z</time>
      </trkpt>
      <trkpt lat="45.24037" lon="6.26611">
        <ele>1587</ele>
        <time>2013-08-11T08:12:28Z</time>
      </trkpt>
      <trkpt lat="45.24027" lon="6.26615">
        <ele>1586</ele>
        <time>2013-08-11T08:12:31Z</time>
      </trkpt>
      <trkpt lat="45.24017" lon="6.26615">
        <ele>1587</ele>
        <time>2013-08-11T08:12:34Z</time>
      </trkpt>
      <trkpt lat="45.24005" lon="6.26615">
        <ele>1587</ele>
        <time>2013-08-11T08:12:37Z</time>
      </trkpt>
      <trkpt lat="45.23994" lon="6.26617">
        <ele>1590</ele>
        <time>2013-08-11T08:12:40Z</time>
      </trkpt>
      <trkpt lat="45.23982" lon="6.26621">
        <ele>1590</ele>
        <time>2013-08-11T08:12:43Z</time>
      </trkpt>
      <trkpt lat="45.23972" lon="6.26624">
        <ele>1590</ele>
        <time>2013-08-11T08:12:45Z</time>
      </trkpt>
      <trkpt lat="45.23961" lon="6.26632">
        <ele>1590</ele>
        <time>2013-08-11T08:12:47Z</time>
      </trkpt>
      <trkpt lat="45.23952" lon="6.26641">
        <ele>1590</ele>
        <time>2013-08-11T08:12:49Z</time>
      </trkpt>
      <trkpt lat="45.23942" lon="6.26652">
        <ele>1590</ele>
        <time>2013-08-11T08:12:51Z</time>
      </trkpt>
      <trkpt lat="45.23931" lon="6.26661">
        <ele>1589</ele>
        <time>2013-08-11T08:12:53Z</time>
      </trkpt>
      <trkpt lat="45.23919" lon="6.26669">
        <ele>1587</ele>
        <time>2013-08-11T08:12:55Z</time>
      </trkpt>
      <trkpt lat="45.23908" lon="6.26679">
        <ele>1590</ele>
        <time>2013-08-11T08:12:57Z</time>
      </trkpt>
      <trkpt lat="45.23899" lon="6.26688">
        <ele>1591</ele>
        <time>2013-08-11T08:12:59Z</time>
      </trkpt>
      <trkpt lat="45.23892" lon="6.26697">
        <ele>1591</ele>
        <time>2013-08-11T08:13:01Z</time>
      </trkpt>
      <trkpt lat="45.23883" lon="6.26709">
        <ele>1591</ele>
        <time>2013-08-11T08:13:04Z</time>
      </trkpt>
      <trkpt lat="45.23876" lon="6.2672">
        <ele>1591</ele>
        <time>2013-08-11T08:13:09Z</time>
      </trkpt>
      <trkpt lat="45.23867" lon="6.26731">
        <ele>1592</ele>
        <time>2013-08-11T08:13:15Z</time>
      </trkpt>
      <trkpt lat="45.23861" lon="6.26743">
        <ele>1592</ele>
        <time>2013-08-11T08:13:19Z</time>
      </trkpt>
      <trkpt lat="45.23852" lon="6.26753">
        <ele>1587</ele>
        <time>2013-08-11T08:13:25Z</time>
      </trkpt>
      <trkpt lat="45.23843" lon="6.2676">
        <ele>1588</ele>
        <time>2013-08-11T08:13:33Z</time>
      </trkpt>
      <trkpt lat="45.23833" lon="6.26764">
        <ele>1596</ele>
        <time>2013-08-11T08:13:41Z</time>
      </trkpt>
      <trkpt lat="45.23823" lon="6.26765">
        <ele>1597</ele>
        <time>2013-08-11T08:13:48Z</time>
      </trkpt>
      <trkpt lat="45.23813" lon="6.26765">
        <ele>1598</ele>
        <time>2013-08-11T08:13:58Z</time>
      </trkpt>
      <trkpt lat="45.23802" lon="6.26768">
        <ele>1600</ele>
        <time>2013-08-11T08:14:03Z</time>
      </trkpt>
      <trkpt lat="45.23791" lon="6.26773">
        <ele>1601</ele>
        <time>2013-08-11T08:14:10Z</time>
      </trkpt>
      <trkpt lat="45.23781" lon="6.26779">
        <ele>1602</ele>
        <time>2013-08-11T08:14:17Z</time>
      </trkpt>
      <trkpt lat="45.23774" lon="6.26787">
        <ele>1602</ele>
        <time>2013-08-11T08:14:26Z</time>
      </trkpt>
      <trkpt lat="45.23766" lon="6.26795">
        <ele>1602</ele>
        <time>2013-08-11T08:14:32Z</time>
      </trkpt>
      <trkpt lat="45.23759" lon="6.26804">
        <ele>1602</ele>
        <time>2013-08-11T08:14:40Z</time>
      </trkpt>
      <trkpt lat="45.23751" lon="6.26813">
        <ele>1602</ele>
        <time>2013-08-11T08:14:48Z</time>
      </trkpt>
      <trkpt lat="45.23741" lon="6.26815">
        <ele>1613</ele>
        <time>2013-08-11T08:15:01Z</time>
      </trkpt>
      <trkpt lat="45.23733" lon="6.26807">
        <ele>1616</ele>
        <time>2013-08-11T08:15:09Z</time>
      </trkpt>
      <trkpt lat="45.23734" lon="6.26792">
        <ele>1618</ele>
        <time>2013-08-11T08:15:20Z</time>
      </trkpt>
      <trkpt lat="45.23739" lon="6.2678">
        <ele>1619</ele>
        <time>2013-08-11T08:15:28Z</time>
      </trkpt>
      <trkpt lat="45.23745" lon="6.26767">
        <ele>1619</ele>
        <time>2013-08-11T08:15:37Z</time>
      </trkpt>
      <trkpt lat="45.23748" lon="6.26755">
        <ele>1619</ele>
        <time>2013-08-11T08:15:44Z</time>
      </trkpt>
      <trkpt lat="45.23751" lon="6.2674">
        <ele>1617</ele>
        <time>2013-08-11T08:15:51Z</time>
      </trkpt>
      <trkpt lat="45.23755" lon="6.26726">
        <ele>1617</ele>
        <time>2013-08-11T08:15:58Z</time>
      </trkpt>
      <trkpt lat="45.23758" lon="6.26713">
        <ele>1618</ele>
        <time>2013-08-11T08:16:06Z</time>
      </trkpt>
      <trkpt lat="45.23762" lon="6.267">
        <ele>1620</ele>
        <time>2013-08-11T08:16:14Z</time>
      </trkpt>
      <trkpt lat="45.23766" lon="6.26686">
        <ele>1622</ele>
        <time>2013-08-11T08:16:21Z</time>
      </trkpt>
      <trkpt lat="45.23766" lon="6.26672">
        <ele>1625</ele>
        <time>2013-08-11T08:16:31Z</time>
      </trkpt>
      <trkpt lat="45.23765" lon="6.26658">
        <ele>1631</ele>
        <time>2013-08-11T08:16:40Z</time>
      </trkpt>
      <trkpt lat="45.23768" lon="6.26643">
        <ele>1631</ele>
        <time>2013-08-11T08:16:47Z</time>
      </trkpt>
      <trkpt lat="45.23769" lon="6.2663">
        <ele>1631</ele>
        <time>2013-08-11T08:16:56Z</time>
      </trkpt>
      <trkpt lat="45.23768" lon="6.26615">
        <ele>1633</ele>
        <time>2013-08-11T08:17:05Z</time>
      </trkpt>
      <trkpt lat="45.23766" lon="6.26602">
        <ele>1635</ele>
        <time>2013-08-11T08:17:13Z</time>
      </trkpt>
      <trkpt lat="45.23762" lon="6.26589">
        <ele>1639</ele>
        <time>2013-08-11T08:17:20Z</time>
      </trkpt>
      <trkpt lat="45.23758" lon="6.26576">
        <ele>1643</ele>
        <time>2013-08-11T08:17:27Z</time>
      </trkpt>
      <trkpt lat="45.23749" lon="6.26582">
        <ele>1647</ele>
        <time>2013-08-11T08:17:34Z</time>
      </trkpt>
      <trkpt lat="45.23742" lon="6.26593">
        <ele>1649</ele>
        <time>2013-08-11T08:17:41Z</time>
      </trkpt>
      <trkpt lat="45.23735" lon="6.26604">
        <ele>1650</ele>
        <time>2013-08-11T08:17:48Z</time>
      </trkpt>
      <trkpt lat="45.23728" lon="6.26613">
        <ele>1651</ele>
        <time>2013-08-11T08:17:55Z</time>
      </trkpt>
      <trkpt lat="45.2372" lon="6.26623">
        <ele>1651</ele>
        <time>2013-08-11T08:18:03Z</time>
      </trkpt>
      <trkpt lat="45.23713" lon="6.26632">
        <ele>1652</ele>
        <time>2013-08-11T08:18:11Z</time>
      </trkpt>
      <trkpt lat="45.23704" lon="6.2664">
        <ele>1652</ele>
        <time>2013-08-11T08:18:19Z</time>
      </trkpt>
      <trkpt lat="45.23695" lon="6.26646">
        <ele>1653</ele>
        <time>2013-08-11T08:18:25Z</time>
      </trkpt>
      <trkpt lat="45.23684" lon="6.26652">
        <ele>1654</ele>
        <time>2013-08-11T08:18:31Z</time>
      </trkpt>
      <trkpt lat="45.23676" lon="6.26659">
        <ele>1655</ele>
        <time>2013-08-11T08:18:35Z</time>
      </trkpt>
      <trkpt lat="45.23666" lon="6.26669">
        <ele>1656</ele>
        <time>2013-08-11T08:18:39Z</time>
      </trkpt>
      <trkpt lat="45.23656" lon="6.26678">
        <ele>1654</ele>
        <time>2013-08-11T08:18:42Z</time>
      </trkpt>
      <trkpt lat="45.23647" lon="6.26688">
        <ele>1652</ele>
        <time>2013-08-11T08:18:45Z</time>
      </trkpt>
      <trkpt lat="45.23639" lon="6.26694">
        <ele>1652</ele>
        <time>2013-08-11T08:18:50Z</time>
      </trkpt>
      <trkpt lat="45.23629" lon="6.26694">
        <ele>1652</ele>
        <time>2013-08-11T08:18:55Z</time>
      </trkpt>
      <trkpt lat="45.23619" lon="6.26688">
        <ele>1653</ele>
        <time>2013-08-11T08:18:59Z</time>
      </trkpt>
      <trkpt lat="45.23607" lon="6.26685">
        <ele>1654</ele>
        <time>2013-08-11T08:19:02Z</time>
      </trkpt>
      <trkpt lat="45.23595" lon="6.26681">
        <ele>1656</ele>
        <time>2013-08-11T08:19:05Z</time>
      </trkpt>
      <trkpt lat="45.23582" lon="6.26676">
        <ele>1657</ele>
        <time>2013-08-11T08:19:08Z</time>
      </trkpt>
      <trkpt lat="45.2357" lon="6.26672">
        <ele>1656</ele>
        <time>2013-08-11T08:19:11Z</time>
      </trkpt>
      <trkpt lat="45.23562" lon="6.26662">
        <ele>1664</ele>
        <time>2013-08-11T08:19:15Z</time>
      </trkpt>
      <trkpt lat="45.23557" lon="6.26648">
        <ele>1666</ele>
        <time>2013-08-11T08:19:19Z</time>
      </trkpt>
      <trkpt lat="45.23552" lon="6.26633">
        <ele>1667</ele>
        <time>2013-08-11T08:19:24Z</time>
      </trkpt>
      <trkpt lat="45.23551" lon="6.26618">
        <ele>1670</ele>
        <time>2013-08-11T08:19:28Z</time>
      </trkpt>
      <trkpt lat="45.23548" lon="6.26604">
        <ele>1671</ele>
        <time>2013-08-11T08:19:33Z</time>
      </trkpt>
      <trkpt lat="45.23538" lon="6.26597">
        <ele>1671</ele>
        <time>2013-08-11T08:19:38Z</time>
      </trkpt>
      <trkpt lat="45.23529" lon="6.26588">
        <ele>1671</ele>
        <time>2013-08-11T08:19:43Z</time>
      </trkpt>
      <trkpt lat="45.23522" lon="6.26575">
        <ele>1683</ele>
        <time>2013-08-11T08:19:49Z</time>
      </trkpt>
      <trkpt lat="45.23511" lon="6.2657">
        <ele>1681</ele>
        <time>2013-08-11T08:19:52Z</time>
      </trkpt>
      <trkpt lat="45.23497" lon="6.26567">
        <ele>1677</ele>
        <time>2013-08-11T08:19:55Z</time>
      </trkpt>
      <trkpt lat="45.23487" lon="6.26566">
        <ele>1677</ele>
        <time>2013-08-11T08:19:58Z</time>
      </trkpt>
      <trkpt lat="45.23478" lon="6.26557">
        <ele>1679</ele>
        <time>2013-08-11T08:20:04Z</time>
      </trkpt>
      <trkpt lat="45.23468" lon="6.2656">
        <ele>1679</ele>
        <time>2013-08-11T08:20:07Z</time>
      </trkpt>
      <trkpt lat="45.23457" lon="6.26556">
        <ele>1679</ele>
        <time>2013-08-11T08:20:12Z</time>
      </trkpt>
      <trkpt lat="45.23444" lon="6.26553">
        <ele>1679</ele>
        <time>2013-08-11T08:20:16Z</time>
      </trkpt>
      <trkpt lat="45.23431" lon="6.2655">
        <ele>1679</ele>
        <time>2013-08-11T08:20:21Z</time>
      </trkpt>
      <trkpt lat="45.23421" lon="6.26547">
        <ele>1679</ele>
        <time>2013-08-11T08:20:25Z</time>
      </trkpt>
      <trkpt lat="45.23412" lon="6.26551">
        <ele>1674</ele>
        <time>2013-08-11T08:20:27Z</time>
      </trkpt>
      <trkpt lat="45.234" lon="6.26553">
        <ele>1673</ele>
        <time>2013-08-11T08:20:30Z</time>
      </trkpt>
      <trkpt lat="45.23391" lon="6.26547">
        <ele>1674</ele>
        <time>2013-08-11T08:20:34Z</time>
      </trkpt>
      <trkpt lat="45.23383" lon="6.26537">
        <ele>1675</ele>
        <time>2013-08-11T08:20:39Z</time>
      </trkpt>
      <trkpt lat="45.23371" lon="6.26534">
        <ele>1675</ele>
        <time>2013-08-11T08:20:43Z</time>
      </trkpt>
      <trkpt lat="45.23362" lon="6.26531">
        <ele>1675</ele>
        <time>2013-08-11T08:20:46Z</time>
      </trkpt>
      <trkpt lat="45.23352" lon="6.26528">
        <ele>1676</ele>
        <time>2013-08-11T08:20:49Z</time>
      </trkpt>
      <trkpt lat="45.23341" lon="6.26523">
        <ele>1677</ele>
        <time>2013-08-11T08:20:53Z</time>
      </trkpt>
      <trkpt lat="45.23331" lon="6.26517">
        <ele>1676</ele>
        <time>2013-08-11T08:20:57Z</time>
      </trkpt>
      <trkpt lat="45.23322" lon="6.2651">
        <ele>1676</ele>
        <time>2013-08-11T08:21:01Z</time>
      </trkpt>
      <trkpt lat="45.23312" lon="6.265">
        <ele>1684</ele>
        <time>2013-08-11T08:21:05Z</time>
      </trkpt>
      <trkpt lat="45.23301" lon="6.26492">
        <ele>1685</ele>
        <time>2013-08-11T08:21:08Z</time>
      </trkpt>
      <trkpt lat="45.2329" lon="6.26489">
        <ele>1684</ele>
        <time>2013-08-11T08:21:11Z</time>
      </trkpt>
      <trkpt lat="45.23279" lon="6.26486">
        <ele>1683</ele>
        <time>2013-08-11T08:21:14Z</time>
      </trkpt>
      <trkpt lat="45.23267" lon="6.26489">
        <ele>1682</ele>
        <time>2013-08-11T08:21:16Z</time>
      </trkpt>
      <trkpt lat="45.23253" lon="6.26497">
        <ele>1677</ele>
        <time>2013-08-11T08:21:18Z</time>
      </trkpt>
      <trkpt lat="45.2324" lon="6.26505">
        <ele>1674</ele>
        <time>2013-08-11T08:21:20Z</time>
      </trkpt>
      <trkpt lat="45.23229" lon="6.26514">
        <ele>1673</ele>
        <time>2013-08-11T08:21:22Z</time>
      </trkpt>
      <trkpt lat="45.23218" lon="6.26526">
        <ele>1672</ele>
        <time>2013-08-11T08:21:24Z</time>
      </trkpt>
      <trkpt lat="45.23207" lon="6.26543">
        <ele>1671</ele>
        <time>2013-08-11T08:21:26Z</time>
      </trkpt>
      <trkpt lat="45.23196" lon="6.26559">
        <ele>1671</ele>
        <time>2013-08-11T08:21:28Z</time>
      </trkpt>
      <trkpt lat="45.23183" lon="6.26568">
        <ele>1671</ele>
        <time>2013-08-11T08:21:30Z</time>
      </trkpt>
      <trkpt lat="45.23169" lon="6.26575">
        <ele>1670</ele>
        <time>2013-08-11T08:21:32Z</time>
      </trkpt>
      <trkpt lat="45.23157" lon="6.26582">
        <ele>1675</ele>
        <time>2013-08-11T08:21:34Z</time>
      </trkpt>
      <trkpt lat="45.23148" lon="6.26588">
        <ele>1672</ele>
        <time>2013-08-11T08:21:40Z</time>
      </trkpt>
      <trkpt lat="45.23139" lon="6.26595">
        <ele>1672</ele>
        <time>2013-08-11T08:21:49Z</time>
      </trkpt>
      <trkpt lat="45.2313" lon="6.26598">
        <ele>1673</ele>
        <time>2013-08-11T08:21:56Z</time>
      </trkpt>
      <trkpt lat="45.23121" lon="6.26603">
        <ele>1674</ele>
        <time>2013-08-11T08:22:03Z</time>
      </trkpt>
      <trkpt lat="45.23111" lon="6.26607">
        <ele>1675</ele>
        <time>2013-08-11T08:22:11Z</time>
      </trkpt>
      <trkpt lat="45.23101" lon="6.26613">
        <ele>1676</ele>
        <time>2013-08-11T08:22:16Z</time>
      </trkpt>
      <trkpt lat="45.23093" lon="6.26616">
        <ele>1676</ele>
        <time>2013-08-11T08:22:23Z</time>
      </trkpt>
      <trkpt lat="45.23083" lon="6.26619">
        <ele>1680</ele>
        <time>2013-08-11T08:22:29Z</time>
      </trkpt>
      <trkpt lat="45.23073" lon="6.2662">
        <ele>1679</ele>
        <time>2013-08-11T08:22:37Z</time>
      </trkpt>
      <trkpt lat="45.23064" lon="6.26614">
        <ele>1680</ele>
        <time>2013-08-11T08:22:45Z</time>
      </trkpt>
      <trkpt lat="45.23056" lon="6.26604">
        <ele>1680</ele>
        <time>2013-08-11T08:22:52Z</time>
      </trkpt>
      <trkpt lat="45.23047" lon="6.26596">
        <ele>1680</ele>
        <time>2013-08-11T08:22:58Z</time>
      </trkpt>
      <trkpt lat="45.2304" lon="6.26588">
        <ele>1681</ele>
        <time>2013-08-11T08:23:02Z</time>
      </trkpt>
      <trkpt lat="45.23033" lon="6.26574">
        <ele>1690</ele>
        <time>2013-08-11T08:23:07Z</time>
      </trkpt>
      <trkpt lat="45.23028" lon="6.26561">
        <ele>1690</ele>
        <time>2013-08-11T08:23:11Z</time>
      </trkpt>
      <trkpt lat="45.23023" lon="6.26547">
        <ele>1691</ele>
        <time>2013-08-11T08:23:16Z</time>
      </trkpt>
      <trkpt lat="45.2302" lon="6.26533">
        <ele>1692</ele>
        <time>2013-08-11T08:23:21Z</time>
      </trkpt>
      <trkpt lat="45.23015" lon="6.26518">
        <ele>1693</ele>
        <time>2013-08-11T08:23:26Z</time>
      </trkpt>
      <trkpt lat="45.23011" lon="6.26505">
        <ele>1694</ele>
        <time>2013-08-11T08:23:32Z</time>
      </trkpt>
      <trkpt lat="45.23008" lon="6.26491">
        <ele>1699</ele>
        <time>2013-08-11T08:23:38Z</time>
      </trkpt>
      <trkpt lat="45.23002" lon="6.26477">
        <ele>1702</ele>
        <time>2013-08-11T08:23:44Z</time>
      </trkpt>
      <trkpt lat="45.22997" lon="6.26463">
        <ele>1703</ele>
        <time>2013-08-11T08:23:50Z</time>
      </trkpt>
      <trkpt lat="45.22994" lon="6.2645">
        <ele>1706</ele>
        <time>2013-08-11T08:23:55Z</time>
      </trkpt>
      <trkpt lat="45.22987" lon="6.26439">
        <ele>1707</ele>
        <time>2013-08-11T08:24:03Z</time>
      </trkpt>
      <trkpt lat="45.2298" lon="6.2643">
        <ele>1708</ele>
        <time>2013-08-11T08:24:10Z</time>
      </trkpt>
      <trkpt lat="45.22972" lon="6.2642">
        <ele>1708</ele>
        <time>2013-08-11T08:24:18Z</time>
      </trkpt>
      <trkpt lat="45.22965" lon="6.26411">
        <ele>1720</ele>
        <time>2013-08-11T08:24:24Z</time>
      </trkpt>
      <trkpt lat="45.22959" lon="6.264">
        <ele>1721</ele>
        <time>2013-08-11T08:24:33Z</time>
      </trkpt>
      <trkpt lat="45.22952" lon="6.2639">
        <ele>1723</ele>
        <time>2013-08-11T08:24:42Z</time>
      </trkpt>
      <trkpt lat="45.22942" lon="6.26385">
        <ele>1723</ele>
        <time>2013-08-11T08:24:50Z</time>
      </trkpt>
      <trkpt lat="45.22932" lon="6.26384">
        <ele>1723</ele>
        <time>2013-08-11T08:25:04Z</time>
      </trkpt>
      <trkpt lat="45.22924" lon="6.26392">
        <ele>1722</ele>
        <time>2013-08-11T08:25:11Z</time>
      </trkpt>
      <trkpt lat="45.22918" lon="6.26402">
        <ele>1720</ele>
        <time>2013-08-11T08:25:16Z</time>
      </trkpt>
      <trkpt lat="45.22914" lon="6.26414">
        <ele>1719</ele>
        <time>2013-08-11T08:25:22Z</time>
      </trkpt>
      <trkpt lat="45.22907" lon="6.26426">
        <ele>1717</ele>
        <time>2013-08-11T08:25:30Z</time>
      </trkpt>
      <trkpt lat="45.22898" lon="6.2643">
        <ele>1719</ele>
        <time>2013-08-11T08:25:35Z</time>
      </trkpt>
      <trkpt lat="45.22889" lon="6.26436">
        <ele>1720</ele>
        <time>2013-08-11T08:25:42Z</time>
      </trkpt>
      <trkpt lat="45.22881" lon="6.26446">
        <ele>1721</ele>
        <time>2013-08-11T08:25:49Z</time>
      </trkpt>
      <trkpt lat="45.22874" lon="6.26456">
        <ele>1721</ele>
        <time>2013-08-11T08:25:57Z</time>
      </trkpt>
      <trkpt lat="45.22866" lon="6.26464">
        <ele>1722</ele>
        <time>2013-08-11T08:26:02Z</time>
      </trkpt>
      <trkpt lat="45.22858" lon="6.26472">
        <ele>1722</ele>
        <time>2013-08-11T08:26:08Z</time>
      </trkpt>
      <trkpt lat="45.22851" lon="6.26482">
        <ele>1723</ele>
        <time>2013-08-11T08:26:14Z</time>
      </trkpt>
      <trkpt lat="45.22842" lon="6.2649">
        <ele>1724</ele>
        <time>2013-08-11T08:26:20Z</time>
      </trkpt>
      <trkpt lat="45.22832" lon="6.26495">
        <ele>1728</ele>
        <time>2013-08-11T08:26:28Z</time>
      </trkpt>
      <trkpt lat="45.22823" lon="6.26498">
        <ele>1729</ele>
        <time>2013-08-11T08:26:39Z</time>
      </trkpt>
      <trkpt lat="45.22813" lon="6.26501">
        <ele>1721</ele>
        <time>2013-08-11T08:26:45Z</time>
      </trkpt>
      <trkpt lat="45.22804" lon="6.26506">
        <ele>1720</ele>
        <time>2013-08-11T08:26:52Z</time>
      </trkpt>
      <trkpt lat="45.22794" lon="6.26508">
        <ele>1720</ele>
        <time>2013-08-11T08:27:00Z</time>
      </trkpt>
      <trkpt lat="45.22784" lon="6.26503">
        <ele>1721</ele>
        <time>2013-08-11T08:27:05Z</time>
      </trkpt>
      <trkpt lat="45.22776" lon="6.26495">
        <ele>1732</ele>
        <time>2013-08-11T08:27:11Z</time>
      </trkpt>
      <trkpt lat="45.22773" lon="6.26481">
        <ele>1733</ele>
        <time>2013-08-11T08:27:18Z</time>
      </trkpt>
      <trkpt lat="45.22773" lon="6.26466">
        <ele>1735</ele>
        <time>2013-08-11T08:27:24Z</time>
      </trkpt>
      <trkpt lat="45.22772" lon="6.26452">
        <ele>1737</ele>
        <time>2013-08-11T08:27:31Z</time>
      </trkpt>
      <trkpt lat="45.22769" lon="6.26438">
        <ele>1738</ele>
        <time>2013-08-11T08:27:38Z</time>
      </trkpt>
      <trkpt lat="45.22766" lon="6.26425">
        <ele>1740</ele>
        <time>2013-08-11T08:27:44Z</time>
      </trkpt>
      <trkpt lat="45.22763" lon="6.26412">
        <ele>1748</ele>
        <time>2013-08-11T08:27:50Z</time>
      </trkpt>
      <trkpt lat="45.22761" lon="6.264">
        <ele>1749</ele>
        <time>2013-08-11T08:27:55Z</time>
      </trkpt>
      <trkpt lat="45.22757" lon="6.26385">
        <ele>1752</ele>
        <time>2013-08-11T08:28:01Z</time>
      </trkpt>
      <trkpt lat="45.22753" lon="6.26372">
        <ele>1754</ele>
        <time>2013-08-11T08:28:07Z</time>
      </trkpt>
      <trkpt lat="45.22746" lon="6.26363">
        <ele>1750</ele>
        <time>2013-08-11T08:28:13Z</time>
      </trkpt>
      <trkpt lat="45.22741" lon="6.2635">
        <ele>1753</ele>
        <time>2013-08-11T08:28:18Z</time>
      </trkpt>
      <trkpt lat="45.22736" lon="6.26338">
        <ele>1754</ele>
        <time>2013-08-11T08:28:23Z</time>
      </trkpt>
      <trkpt lat="45.22727" lon="6.26332">
        <ele>1762</ele>
        <time>2013-08-11T08:28:29Z</time>
      </trkpt>
      <trkpt lat="45.22717" lon="6.26324">
        <ele>1761</ele>
        <time>2013-08-11T08:28:35Z</time>
      </trkpt>
      <trkpt lat="45.22708" lon="6.2632">
        <ele>1760</ele>
        <time>2013-08-11T08:28:41Z</time>
      </trkpt>
      <trkpt lat="45.227" lon="6.26316">
        <ele>1759</ele>
        <time>2013-08-11T08:28:46Z</time>
      </trkpt>
      <trkpt lat="45.22691" lon="6.26307">
        <ele>1759</ele>
        <time>2013-08-11T08:28:52Z</time>
      </trkpt>
      <trkpt lat="45.22686" lon="6.26293">
        <ele>1761</ele>
        <time>2013-08-11T08:28:57Z</time>
      </trkpt>
      <trkpt lat="45.2268" lon="6.2628">
        <ele>1761</ele>
        <time>2013-08-11T08:29:03Z</time>
      </trkpt>
      <trkpt lat="45.22674" lon="6.2627">
        <ele>1762</ele>
        <time>2013-08-11T08:29:07Z</time>
      </trkpt>
      <trkpt lat="45.22668" lon="6.26256">
        <ele>1762</ele>
        <time>2013-08-11T08:29:13Z</time>
      </trkpt>
      <trkpt lat="45.22659" lon="6.2625">
        <ele>1764</ele>
        <time>2013-08-11T08:29:20Z</time>
      </trkpt>
      <trkpt lat="45.22655" lon="6.26238">
        <ele>1765</ele>
        <time>2013-08-11T08:29:25Z</time>
      </trkpt>
      <trkpt lat="45.22649" lon="6.26226">
        <ele>1767</ele>
        <time>2013-08-11T08:29:32Z</time>
      </trkpt>
      <trkpt lat="45.22641" lon="6.26218">
        <ele>1768</ele>
        <time>2013-08-11T08:29:40Z</time>
      </trkpt>
      <trkpt lat="45.22634" lon="6.26207">
        <ele>1769</ele>
        <time>2013-08-11T08:29:47Z</time>
      </trkpt>
      <trkpt lat="45.22626" lon="6.262">
        <ele>1769</ele>
        <time>2013-08-11T08:29:54Z</time>
      </trkpt>
      <trkpt lat="45.22619" lon="6.26191">
        <ele>1770</ele>
        <time>2013-08-11T08:30:01Z</time>
      </trkpt>
      <trkpt lat="45.22613" lon="6.2618">
        <ele>1771</ele>
        <time>2013-08-11T08:30:08Z</time>
      </trkpt>
      <trkpt lat="45.22605" lon="6.2617">
        <ele>1771</ele>
        <time>2013-08-11T08:30:16Z</time>
      </trkpt>
      <trkpt lat="45.22599" lon="6.26159">
        <ele>1780</ele>
        <time>2013-08-11T08:30:22Z</time>
      </trkpt>
      <trkpt lat="45.22589" lon="6.26155">
        <ele>1780</ele>
        <time>2013-08-11T08:30:30Z</time>
      </trkpt>
      <trkpt lat="45.22579" lon="6.26153">
        <ele>1781</ele>
        <time>2013-08-11T08:30:37Z</time>
      </trkpt>
      <trkpt lat="45.22571" lon="6.26146">
        <ele>1784</ele>
        <time>2013-08-11T08:30:47Z</time>
      </trkpt>
      <trkpt lat="45.22562" lon="6.26142">
        <ele>1786</ele>
        <time>2013-08-11T08:30:57Z</time>
      </trkpt>
      <trkpt lat="45.22553" lon="6.26146">
        <ele>1787</ele>
        <time>2013-08-11T08:31:02Z</time>
      </trkpt>
      <trkpt lat="45.22543" lon="6.26146">
        <ele>1788</ele>
        <time>2013-08-11T08:31:08Z</time>
      </trkpt>
      <trkpt lat="45.22533" lon="6.2615">
        <ele>1789</ele>
        <time>2013-08-11T08:31:15Z</time>
      </trkpt>
      <trkpt lat="45.22524" lon="6.26158">
        <ele>1789</ele>
        <time>2013-08-11T08:31:23Z</time>
      </trkpt>
      <trkpt lat="45.22517" lon="6.26167">
        <ele>1783</ele>
        <time>2013-08-11T08:31:29Z</time>
      </trkpt>
      <trkpt lat="45.22512" lon="6.26178">
        <ele>1784</ele>
        <time>2013-08-11T08:31:37Z</time>
      </trkpt>
      <trkpt lat="45.22506" lon="6.26189">
        <ele>1782</ele>
        <time>2013-08-11T08:31:45Z</time>
      </trkpt>
      <trkpt lat="45.22499" lon="6.26199">
        <ele>1791</ele>
        <time>2013-08-11T08:31:53Z</time>
      </trkpt>
      <trkpt lat="45.2249" lon="6.26205">
        <ele>1791</ele>
        <time>2013-08-11T08:32:01Z</time>
      </trkpt>
      <trkpt lat="45.2248" lon="6.26208">
        <ele>1792</ele>
        <time>2013-08-11T08:32:09Z</time>
      </trkpt>
      <trkpt lat="45.2247" lon="6.26204">
        <ele>1792</ele>
        <time>2013-08-11T08:32:15Z</time>
      </trkpt>
      <trkpt lat="45.22462" lon="6.26198">
        <ele>1793</ele>
        <time>2013-08-11T08:32:21Z</time>
      </trkpt>
      <trkpt lat="45.22453" lon="6.26192">
        <ele>1794</ele>
        <time>2013-08-11T08:32:26Z</time>
      </trkpt>
      <trkpt lat="45.22446" lon="6.26184">
        <ele>1795</ele>
        <time>2013-08-11T08:32:32Z</time>
      </trkpt>
      <trkpt lat="45.22441" lon="6.26172">
        <ele>1796</ele>
        <time>2013-08-11T08:32:39Z</time>
      </trkpt>
      <trkpt lat="45.22441" lon="6.26157">
        <ele>1799</ele>
        <time>2013-08-11T08:32:48Z</time>
      </trkpt>
      <trkpt lat="45.2244" lon="6.26143">
        <ele>1799</ele>
        <time>2013-08-11T08:32:55Z</time>
      </trkpt>
      <trkpt lat="45.22439" lon="6.26128">
        <ele>1800</ele>
        <time>2013-08-11T08:33:01Z</time>
      </trkpt>
      <trkpt lat="45.22434" lon="6.26114">
        <ele>1801</ele>
        <time>2013-08-11T08:33:05Z</time>
      </trkpt>
      <trkpt lat="45.2243" lon="6.26102">
        <ele>1802</ele>
        <time>2013-08-11T08:33:09Z</time>
      </trkpt>
      <trkpt lat="45.22423" lon="6.26091">
        <ele>1803</ele>
        <time>2013-08-11T08:33:15Z</time>
      </trkpt>
      <trkpt lat="45.22418" lon="6.26077">
        <ele>1806</ele>
        <time>2013-08-11T08:33:22Z</time>
      </trkpt>
      <trkpt lat="45.22413" lon="6.26065">
        <ele>1807</ele>
        <time>2013-08-11T08:33:28Z</time>
      </trkpt>
      <trkpt lat="45.22408" lon="6.26053">
        <ele>1808</ele>
        <time>2013-08-11T08:33:33Z</time>
      </trkpt>
      <trkpt lat="45.22399" lon="6.26043">
        <ele>1809</ele>
        <time>2013-08-11T08:33:38Z</time>
      </trkpt>
      <trkpt lat="45.22389" lon="6.26037">
        <ele>1809</ele>
        <time>2013-08-11T08:33:41Z</time>
      </trkpt>
      <trkpt lat="45.2238" lon="6.26031">
        <ele>1809</ele>
        <time>2013-08-11T08:33:43Z</time>
      </trkpt>
      <trkpt lat="45.22371" lon="6.26025">
        <ele>1810</ele>
        <time>2013-08-11T08:33:45Z</time>
      </trkpt>
      <trkpt lat="45.2236" lon="6.26018">
        <ele>1810</ele>
        <time>2013-08-11T08:33:48Z</time>
      </trkpt>
      <trkpt lat="45.2235" lon="6.26012">
        <ele>1810</ele>
        <time>2013-08-11T08:33:52Z</time>
      </trkpt>
      <trkpt lat="45.22342" lon="6.26004">
        <ele>1811</ele>
        <time>2013-08-11T08:33:56Z</time>
      </trkpt>
      <trkpt lat="45.22333" lon="6.25997">
        <ele>1812</ele>
        <time>2013-08-11T08:34:01Z</time>
      </trkpt>
      <trkpt lat="45.22324" lon="6.25991">
        <ele>1813</ele>
        <time>2013-08-11T08:34:05Z</time>
      </trkpt>
      <trkpt lat="45.22316" lon="6.25985">
        <ele>1814</ele>
        <time>2013-08-11T08:34:10Z</time>
      </trkpt>
      <trkpt lat="45.22308" lon="6.25978">
        <ele>1815</ele>
        <time>2013-08-11T08:34:16Z</time>
      </trkpt>
      <trkpt lat="45.22298" lon="6.25978">
        <ele>1815</ele>
        <time>2013-08-11T08:34:23Z</time>
      </trkpt>
      <trkpt lat="45.22289" lon="6.25979">
        <ele>1815</ele>
        <time>2013-08-11T08:34:29Z</time>
      </trkpt>
      <trkpt lat="45.22279" lon="6.25987">
        <ele>1815</ele>
        <time>2013-08-11T08:34:34Z</time>
      </trkpt>
      <trkpt lat="45.22272" lon="6.25997">
        <ele>1815</ele>
        <time>2013-08-11T08:34:37Z</time>
      </trkpt>
      <trkpt lat="45.22266" lon="6.26007">
        <ele>1815</ele>
        <time>2013-08-11T08:34:40Z</time>
      </trkpt>
      <trkpt lat="45.2226" lon="6.26017">
        <ele>1815</ele>
        <time>2013-08-11T08:34:43Z</time>
      </trkpt>
      <trkpt lat="45.22252" lon="6.26029">
        <ele>1814</ele>
        <time>2013-08-11T08:34:47Z</time>
      </trkpt>
      <trkpt lat="45.22244" lon="6.26039">
        <ele>1820</ele>
        <time>2013-08-11T08:34:52Z</time>
      </trkpt>
      <trkpt lat="45.22236" lon="6.26049">
        <ele>1820</ele>
        <time>2013-08-11T08:34:58Z</time>
      </trkpt>
      <trkpt lat="45.22229" lon="6.26058">
        <ele>1820</ele>
        <time>2013-08-11T08:35:05Z</time>
      </trkpt>
      <trkpt lat="45.2222" lon="6.26064">
        <ele>1821</ele>
        <time>2013-08-11T08:35:13Z</time>
      </trkpt>
      <trkpt lat="45.22211" lon="6.26068">
        <ele>1822</ele>
        <time>2013-08-11T08:35:21Z</time>
      </trkpt>
      <trkpt lat="45.22201" lon="6.26071">
        <ele>1823</ele>
        <time>2013-08-11T08:35:29Z</time>
      </trkpt>
      <trkpt lat="45.22191" lon="6.26075">
        <ele>1824</ele>
        <time>2013-08-11T08:35:37Z</time>
      </trkpt>
      <trkpt lat="45.22182" lon="6.26082">
        <ele>1826</ele>
        <time>2013-08-11T08:35:46Z</time>
      </trkpt>
      <trkpt lat="45.22175" lon="6.26091">
        <ele>1829</ele>
        <time>2013-08-11T08:35:55Z</time>
      </trkpt>
      <trkpt lat="45.22168" lon="6.26102">
        <ele>1829</ele>
        <time>2013-08-11T08:36:02Z</time>
      </trkpt>
      <trkpt lat="45.22161" lon="6.26111">
        <ele>1833</ele>
        <time>2013-08-11T08:36:09Z</time>
      </trkpt>
      <trkpt lat="45.22154" lon="6.26121">
        <ele>1833</ele>
        <time>2013-08-11T08:36:17Z</time>
      </trkpt>
      <trkpt lat="45.2215" lon="6.26134">
        <ele>1834</ele>
        <time>2013-08-11T08:36:25Z</time>
      </trkpt>
      <trkpt lat="45.22148" lon="6.26148">
        <ele>1835</ele>
        <time>2013-08-11T08:36:35Z</time>
      </trkpt>
      <trkpt lat="45.22145" lon="6.26161">
        <ele>1836</ele>
        <time>2013-08-11T08:36:43Z</time>
      </trkpt>
      <trkpt lat="45.22142" lon="6.26174">
        <ele>1840</ele>
        <time>2013-08-11T08:36:51Z</time>
      </trkpt>
      <trkpt lat="45.2214" lon="6.26188">
        <ele>1840</ele>
        <time>2013-08-11T08:36:58Z</time>
      </trkpt>
      <trkpt lat="45.22137" lon="6.262">
        <ele>1841</ele>
        <time>2013-08-11T08:37:05Z</time>
      </trkpt>
      <trkpt lat="45.22131" lon="6.26213">
        <ele>1841</ele>
        <time>2013-08-11T08:37:12Z</time>
      </trkpt>
      <trkpt lat="45.22128" lon="6.26226">
        <ele>1842</ele>
        <time>2013-08-11T08:37:18Z</time>
      </trkpt>
      <trkpt lat="45.22125" lon="6.26242">
        <ele>1842</ele>
        <time>2013-08-11T08:37:25Z</time>
      </trkpt>
      <trkpt lat="45.22123" lon="6.26255">
        <ele>1846</ele>
        <time>2013-08-11T08:37:32Z</time>
      </trkpt>
      <trkpt lat="45.22121" lon="6.26269">
        <ele>1847</ele>
        <time>2013-08-11T08:37:38Z</time>
      </trkpt>
      <trkpt lat="45.22121" lon="6.26283">
        <ele>1847</ele>
        <time>2013-08-11T08:37:44Z</time>
      </trkpt>
      <trkpt lat="45.22121" lon="6.26297">
        <ele>1847</ele>
        <time>2013-08-11T08:37:50Z</time>
      </trkpt>
      <trkpt lat="45.22119" lon="6.26313">
        <ele>1848</ele>
        <time>2013-08-11T08:37:56Z</time>
      </trkpt>
      <trkpt lat="45.22114" lon="6.26324">
        <ele>1848</ele>
        <time>2013-08-11T08:38:01Z</time>
      </trkpt>
      <trkpt lat="45.22108" lon="6.26334">
        <ele>1848</ele>
        <time>2013-08-11T08:38:06Z</time>
      </trkpt>
      <trkpt lat="45.22105" lon="6.26349">
        <ele>1847</ele>
        <time>2013-08-11T08:38:29Z</time>
      </trkpt>
      <trkpt lat="45.22104" lon="6.26364">
        <ele>1846</ele>
        <time>2013-08-11T08:38:31Z</time>
      </trkpt>
      <trkpt lat="45.22103" lon="6.26385">
        <ele>1845</ele>
        <time>2013-08-11T08:38:33Z</time>
      </trkpt>
      <trkpt lat="45.22102" lon="6.26409">
        <ele>1843</ele>
        <time>2013-08-11T08:38:35Z</time>
      </trkpt>
      <trkpt lat="45.221" lon="6.26433">
        <ele>1838</ele>
        <time>2013-08-11T08:38:37Z</time>
      </trkpt>
      <trkpt lat="45.22097" lon="6.26455">
        <ele>1838</ele>
        <time>2013-08-11T08:38:39Z</time>
      </trkpt>
      <trkpt lat="45.22092" lon="6.26474">
        <ele>1837</ele>
        <time>2013-08-11T08:38:41Z</time>
      </trkpt>
      <trkpt lat="45.22081" lon="6.26488">
        <ele>1832</ele>
        <time>2013-08-11T08:38:43Z</time>
      </trkpt>
      <trkpt lat="45.22068" lon="6.26497">
        <ele>1830</ele>
        <time>2013-08-11T08:38:45Z</time>
      </trkpt>
      <trkpt lat="45.22055" lon="6.265">
        <ele>1828</ele>
        <time>2013-08-11T08:38:47Z</time>
      </trkpt>
      <trkpt lat="45.22043" lon="6.26506">
        <ele>1825</ele>
        <time>2013-08-11T08:38:49Z</time>
      </trkpt>
      <trkpt lat="45.22032" lon="6.26514">
        <ele>1823</ele>
        <time>2013-08-11T08:38:51Z</time>
      </trkpt>
      <trkpt lat="45.22022" lon="6.26523">
        <ele>1821</ele>
        <time>2013-08-11T08:38:53Z</time>
      </trkpt>
      <trkpt lat="45.22011" lon="6.26533">
        <ele>1821</ele>
        <time>2013-08-11T08:38:55Z</time>
      </trkpt>
      <trkpt lat="45.22002" lon="6.26547">
        <ele>1821</ele>
        <time>2013-08-11T08:38:57Z</time>
      </trkpt>
      <trkpt lat="45.21993" lon="6.26565">
        <ele>1804</ele>
        <time>2013-08-11T08:38:59Z</time>
      </trkpt>
      <trkpt lat="45.21984" lon="6.26582">
        <ele>1805</ele>
        <time>2013-08-11T08:39:01Z</time>
      </trkpt>
      <trkpt lat="45.21977" lon="6.26597">
        <ele>1801</ele>
        <time>2013-08-11T08:39:03Z</time>
      </trkpt>
      <trkpt lat="45.21971" lon="6.26614">
        <ele>1798</ele>
        <time>2013-08-11T08:39:05Z</time>
      </trkpt>
      <trkpt lat="45.21967" lon="6.26629">
        <ele>1796</ele>
        <time>2013-08-11T08:39:07Z</time>
      </trkpt>
      <trkpt lat="45.21966" lon="6.26648">
        <ele>1796</ele>
        <time>2013-08-11T08:39:09Z</time>
      </trkpt>
      <trkpt lat="45.21965" lon="6.26667">
        <ele>1792</ele>
        <time>2013-08-11T08:39:11Z</time>
      </trkpt>
      <trkpt lat="45.21964" lon="6.26685">
        <ele>1791</ele>
        <time>2013-08-11T08:39:13Z</time>
      </trkpt>
      <trkpt lat="45.21963" lon="6.26702">
        <ele>1790</ele>
        <time>2013-08-11T08:39:15Z</time>
      </trkpt>
      <trkpt lat="45.21963" lon="6.26717">
        <ele>1789</ele>
        <time>2013-08-11T08:39:17Z</time>
      </trkpt>
      <trkpt lat="45.21964" lon="6.26732">
        <ele>1788</ele>
        <time>2013-08-11T08:39:19Z</time>
      </trkpt>
      <trkpt lat="45.21966" lon="6.26747">
        <ele>1788</ele>
        <time>2013-08-11T08:39:21Z</time>
      </trkpt>
      <trkpt lat="45.2197" lon="6.26765">
        <ele>1780</ele>
        <time>2013-08-11T08:39:23Z</time>
      </trkpt>
      <trkpt lat="45.21975" lon="6.26786">
        <ele>1778</ele>
        <time>2013-08-11T08:39:25Z</time>
      </trkpt>
      <trkpt lat="45.2198" lon="6.26807">
        <ele>1777</ele>
        <time>2013-08-11T08:39:27Z</time>
      </trkpt>
      <trkpt lat="45.21987" lon="6.26826">
        <ele>1776</ele>
        <time>2013-08-11T08:39:29Z</time>
      </trkpt>
      <trkpt lat="45.21997" lon="6.26844">
        <ele>1772</ele>
        <time>2013-08-11T08:39:31Z</time>
      </trkpt>
      <trkpt lat="45.22008" lon="6.26861">
        <ele>1776</ele>
        <time>2013-08-11T08:39:33Z</time>
      </trkpt>
      <trkpt lat="45.22015" lon="6.26879">
        <ele>1775</ele>
        <time>2013-08-11T08:39:35Z</time>
      </trkpt>
      <trkpt lat="45.22015" lon="6.269">
        <ele>1772</ele>
        <time>2013-08-11T08:39:37Z</time>
      </trkpt>
      <trkpt lat="45.22011" lon="6.26916">
        <ele>1770</ele>
        <time>2013-08-11T08:39:39Z</time>
      </trkpt>
      <trkpt lat="45.22008" lon="6.26932">
        <ele>1767</ele>
        <time>2013-08-11T08:39:41Z</time>
      </trkpt>
      <trkpt lat="45.22004" lon="6.2695">
        <ele>1767</ele>
        <time>2013-08-11T08:39:43Z</time>
      </trkpt>
      <trkpt lat="45.21996" lon="6.26965">
        <ele>1756</ele>
        <time>2013-08-11T08:39:45Z</time>
      </trkpt>
      <trkpt lat="45.21985" lon="6.26982">
        <ele>1755</ele>
        <time>2013-08-11T08:39:47Z</time>
      </trkpt>
      <trkpt lat="45.21976" lon="6.27001">
        <ele>1750</ele>
        <time>2013-08-11T08:39:49Z</time>
      </trkpt>
      <trkpt lat="45.21968" lon="6.27021">
        <ele>1747</ele>
        <time>2013-08-11T08:39:51Z</time>
      </trkpt>
      <trkpt lat="45.21963" lon="6.27037">
        <ele>1745</ele>
        <time>2013-08-11T08:39:53Z</time>
      </trkpt>
      <trkpt lat="45.21961" lon="6.27051">
        <ele>1744</ele>
        <time>2013-08-11T08:39:55Z</time>
      </trkpt>
      <trkpt lat="45.21964" lon="6.27065">
        <ele>1744</ele>
        <time>2013-08-11T08:39:57Z</time>
      </trkpt>
      <trkpt lat="45.21966" lon="6.27079">
        <ele>1744</ele>
        <time>2013-08-11T08:39:59Z</time>
      </trkpt>
      <trkpt lat="45.21963" lon="6.27095">
        <ele>1742</ele>
        <time>2013-08-11T08:40:01Z</time>
      </trkpt>
      <trkpt lat="45.21956" lon="6.27105">
        <ele>1742</ele>
        <time>2013-08-11T08:40:04Z</time>
      </trkpt>
      <trkpt lat="45.21949" lon="6.27115">
        <ele>1742</ele>
        <time>2013-08-11T08:40:11Z</time>
      </trkpt>
      <trkpt lat="45.21944" lon="6.27127">
        <ele>1742</ele>
        <time>2013-08-11T08:40:19Z</time>
      </trkpt>
      <trkpt lat="45.21937" lon="6.27137">
        <ele>1743</ele>
        <time>2013-08-11T08:40:28Z</time>
      </trkpt>
      <trkpt lat="45.21931" lon="6.27148">
        <ele>1744</ele>
        <time>2013-08-11T08:40:36Z</time>
      </trkpt>
      <trkpt lat="45.21926" lon="6.27161">
        <ele>1745</ele>
        <time>2013-08-11T08:40:45Z</time>
      </trkpt>
      <trkpt lat="45.21921" lon="6.27173">
        <ele>1747</ele>
        <time>2013-08-11T08:40:53Z</time>
      </trkpt>
      <trkpt lat="45.21918" lon="6.27186">
        <ele>1746</ele>
        <time>2013-08-11T08:41:03Z</time>
      </trkpt>
      <trkpt lat="45.21915" lon="6.27198">
        <ele>1750</ele>
        <time>2013-08-11T08:41:10Z</time>
      </trkpt>
      <trkpt lat="45.21914" lon="6.27212">
        <ele>1752</ele>
        <time>2013-08-11T08:41:18Z</time>
      </trkpt>
      <trkpt lat="45.21912" lon="6.27226">
        <ele>1753</ele>
        <time>2013-08-11T08:41:27Z</time>
      </trkpt>
      <trkpt lat="45.21909" lon="6.27239">
        <ele>1755</ele>
        <time>2013-08-11T08:41:35Z</time>
      </trkpt>
      <trkpt lat="45.21904" lon="6.27251">
        <ele>1759</ele>
        <time>2013-08-11T08:41:43Z</time>
      </trkpt>
      <trkpt lat="45.21898" lon="6.27264">
        <ele>1759</ele>
        <time>2013-08-11T08:41:51Z</time>
      </trkpt>
      <trkpt lat="45.21894" lon="6.27277">
        <ele>1759</ele>
        <time>2013-08-11T08:42:00Z</time>
      </trkpt>
      <trkpt lat="45.21889" lon="6.27288">
        <ele>1759</ele>
        <time>2013-08-11T08:42:09Z</time>
      </trkpt>
      <trkpt lat="45.21885" lon="6.27301">
        <ele>1759</ele>
        <time>2013-08-11T08:42:17Z</time>
      </trkpt>
      <trkpt lat="45.21884" lon="6.27315">
        <ele>1759</ele>
        <time>2013-08-11T08:42:26Z</time>
      </trkpt>
      <trkpt lat="45.21882" lon="6.27328">
        <ele>1759</ele>
        <time>2013-08-11T08:42:34Z</time>
      </trkpt>
      <trkpt lat="45.21877" lon="6.2734">
        <ele>1763</ele>
        <time>2013-08-11T08:42:42Z</time>
      </trkpt>
      <trkpt lat="45.21871" lon="6.27352">
        <ele>1764</ele>
        <time>2013-08-11T08:42:52Z</time>
      </trkpt>
      <trkpt lat="45.21867" lon="6.27364">
        <ele>1765</ele>
        <time>2013-08-11T08:42:58Z</time>
      </trkpt>
      <trkpt lat="45.21867" lon="6.27378">
        <ele>1765</ele>
        <time>2013-08-11T08:43:03Z</time>
      </trkpt>
      <trkpt lat="45.21866" lon="6.27392">
        <ele>1766</ele>
        <time>2013-08-11T08:43:07Z</time>
      </trkpt>
      <trkpt lat="45.21862" lon="6.27405">
        <ele>1768</ele>
        <time>2013-08-11T08:43:13Z</time>
      </trkpt>
      <trkpt lat="45.21856" lon="6.27418">
        <ele>1774</ele>
        <time>2013-08-11T08:43:20Z</time>
      </trkpt>
      <trkpt lat="45.21851" lon="6.2743">
        <ele>1775</ele>
        <time>2013-08-11T08:43:26Z</time>
      </trkpt>
      <trkpt lat="45.21846" lon="6.27443">
        <ele>1775</ele>
        <time>2013-08-11T08:43:31Z</time>
      </trkpt>
      <trkpt lat="45.21844" lon="6.27455">
        <ele>1776</ele>
        <time>2013-08-11T08:43:36Z</time>
      </trkpt>
      <trkpt lat="45.21843" lon="6.27469">
        <ele>1778</ele>
        <time>2013-08-11T08:43:40Z</time>
      </trkpt>
      <trkpt lat="45.21844" lon="6.27483">
        <ele>1782</ele>
        <time>2013-08-11T08:43:44Z</time>
      </trkpt>
      <trkpt lat="45.21844" lon="6.27498">
        <ele>1787</ele>
        <time>2013-08-11T08:43:48Z</time>
      </trkpt>
      <trkpt lat="45.2184" lon="6.27513">
        <ele>1786</ele>
        <time>2013-08-11T08:43:52Z</time>
      </trkpt>
      <trkpt lat="45.21834" lon="6.27529">
        <ele>1782</ele>
        <time>2013-08-11T08:43:55Z</time>
      </trkpt>
      <trkpt lat="45.21829" lon="6.27544">
        <ele>1798</ele>
        <time>2013-08-11T08:43:57Z</time>
      </trkpt>
      <trkpt lat="45.21824" lon="6.27561">
        <ele>1797</ele>
        <time>2013-08-11T08:43:59Z</time>
      </trkpt>
      <trkpt lat="45.21818" lon="6.27577">
        <ele>1796</ele>
        <time>2013-08-11T08:44:01Z</time>
      </trkpt>
      <trkpt lat="45.21817" lon="6.27591">
        <ele>1797</ele>
        <time>2013-08-11T08:44:03Z</time>
      </trkpt>
      <trkpt lat="45.21815" lon="6.27609">
        <ele>1799</ele>
        <time>2013-08-11T08:44:06Z</time>
      </trkpt>
      <trkpt lat="45.21818" lon="6.27628">
        <ele>1799</ele>
        <time>2013-08-11T08:44:09Z</time>
      </trkpt>
      <trkpt lat="45.21825" lon="6.27643">
        <ele>1797</ele>
        <time>2013-08-11T08:44:12Z</time>
      </trkpt>
      <trkpt lat="45.21831" lon="6.27656">
        <ele>1793</ele>
        <time>2013-08-11T08:44:17Z</time>
      </trkpt>
      <trkpt lat="45.21837" lon="6.27666">
        <ele>1786</ele>
        <time>2013-08-11T08:44:30Z</time>
      </trkpt>
      <trkpt lat="45.21844" lon="6.27657">
        <ele>1782</ele>
        <time>2013-08-11T08:44:44Z</time>
      </trkpt>
      <trkpt lat="45.21855" lon="6.27657">
        <ele>1779</ele>
        <time>2013-08-11T08:44:54Z</time>
      </trkpt>
      <trkpt lat="45.21864" lon="6.27655">
        <ele>1777</ele>
        <time>2013-08-11T08:45:04Z</time>
      </trkpt>
      <trkpt lat="45.2187" lon="6.27643">
        <ele>1775</ele>
        <time>2013-08-11T08:45:09Z</time>
      </trkpt>
      <trkpt lat="45.2188" lon="6.27642">
        <ele>1774</ele>
        <time>2013-08-11T08:45:14Z</time>
      </trkpt>
      <trkpt lat="45.2189" lon="6.27645">
        <ele>1772</ele>
        <time>2013-08-11T08:45:18Z</time>
      </trkpt>
      <trkpt lat="45.21898" lon="6.27653">
        <ele>1770</ele>
        <time>2013-08-11T08:45:27Z</time>
      </trkpt>
      <trkpt lat="45.21907" lon="6.27658">
        <ele>1768</ele>
        <time>2013-08-11T08:45:38Z</time>
      </trkpt>
      <trkpt lat="45.21917" lon="6.27659">
        <ele>1760</ele>
        <time>2013-08-11T08:45:46Z</time>
      </trkpt>
      <trkpt lat="45.21926" lon="6.27653">
        <ele>1757</ele>
        <time>2013-08-11T08:45:54Z</time>
      </trkpt>
      <trkpt lat="45.21936" lon="6.27651">
        <ele>1755</ele>
        <time>2013-08-11T08:46:09Z</time>
      </trkpt>
      <trkpt lat="45.21944" lon="6.27659">
        <ele>1754</ele>
        <time>2013-08-11T08:46:18Z</time>
      </trkpt>
      <trkpt lat="45.2195" lon="6.27669">
        <ele>1757</ele>
        <time>2013-08-11T08:46:28Z</time>
      </trkpt>
      <trkpt lat="45.21956" lon="6.27658">
        <ele>1751</ele>
        <time>2013-08-11T08:46:43Z</time>
      </trkpt>
      <trkpt lat="45.21963" lon="6.27649">
        <ele>1750</ele>
        <time>2013-08-11T08:46:55Z</time>
      </trkpt>
      <trkpt lat="45.21959" lon="6.27637">
        <ele>1750</ele>
        <time>2013-08-11T08:47:07Z</time>
      </trkpt>
      <trkpt lat="45.21961" lon="6.27621">
        <ele>1749</ele>
        <time>2013-08-11T08:47:15Z</time>
      </trkpt>
      <trkpt lat="45.21968" lon="6.27611">
        <ele>1747</ele>
        <time>2013-08-11T08:47:19Z</time>
      </trkpt>
      <trkpt lat="45.21972" lon="6.27597">
        <ele>1746</ele>
        <time>2013-08-11T08:47:22Z</time>
      </trkpt>
      <trkpt lat="45.21982" lon="6.27592">
        <ele>1744</ele>
        <time>2013-08-11T08:47:25Z</time>
      </trkpt>
      <trkpt lat="45.21991" lon="6.27587">
        <ele>1740</ele>
        <time>2013-08-11T08:47:31Z</time>
      </trkpt>
      <trkpt lat="45.22002" lon="6.27586">
        <ele>1734</ele>
        <time>2013-08-11T08:47:37Z</time>
      </trkpt>
      <trkpt lat="45.2201" lon="6.27577">
        <ele>1727</ele>
        <time>2013-08-11T08:47:46Z</time>
      </trkpt>
      <trkpt lat="45.22018" lon="6.27567">
        <ele>1721</ele>
        <time>2013-08-11T08:47:50Z</time>
      </trkpt>
      <trkpt lat="45.22028" lon="6.2756">
        <ele>1718</ele>
        <time>2013-08-11T08:47:54Z</time>
      </trkpt>
      <trkpt lat="45.2204" lon="6.27555">
        <ele>1715</ele>
        <time>2013-08-11T08:48:00Z</time>
      </trkpt>
      <trkpt lat="45.22049" lon="6.27547">
        <ele>1713</ele>
        <time>2013-08-11T08:48:04Z</time>
      </trkpt>
      <trkpt lat="45.2205" lon="6.27561">
        <ele>1714</ele>
        <time>2013-08-11T08:48:24Z</time>
      </trkpt>
      <trkpt lat="45.22049" lon="6.27575">
        <ele>1715</ele>
        <time>2013-08-11T08:48:31Z</time>
      </trkpt>
      <trkpt lat="45.22053" lon="6.27586">
        <ele>1721</ele>
        <time>2013-08-11T08:48:39Z</time>
      </trkpt>
      <trkpt lat="45.22051" lon="6.276">
        <ele>1722</ele>
        <time>2013-08-11T08:49:01Z</time>
      </trkpt>
      <trkpt lat="45.22062" lon="6.27595">
        <ele>1719</ele>
        <time>2013-08-11T08:49:23Z</time>
      </trkpt>
      <trkpt lat="45.22074" lon="6.27586">
        <ele>1714</ele>
        <time>2013-08-11T08:49:39Z</time>
      </trkpt>
      <trkpt lat="45.22086" lon="6.27578">
        <ele>1704</ele>
        <time>2013-08-11T08:49:47Z</time>
      </trkpt>
      <trkpt lat="45.22095" lon="6.27575">
        <ele>1699</ele>
        <time>2013-08-11T08:49:56Z</time>
      </trkpt>
      <trkpt lat="45.22098" lon="6.2759">
        <ele>1701</ele>
        <time>2013-08-11T08:50:01Z</time>
      </trkpt>
      <trkpt lat="45.22108" lon="6.27592">
        <ele>1698</ele>
        <time>2013-08-11T08:50:08Z</time>
      </trkpt>
      <trkpt lat="45.22116" lon="6.276">
        <ele>1696</ele>
        <time>2013-08-11T08:50:13Z</time>
      </trkpt>
      <trkpt lat="45.22126" lon="6.27603">
        <ele>1693</ele>
        <time>2013-08-11T08:50:22Z</time>
      </trkpt>
      <trkpt lat="45.22137" lon="6.27607">
        <ele>1691</ele>
        <time>2013-08-11T08:50:37Z</time>
      </trkpt>
      <trkpt lat="45.22147" lon="6.27608">
        <ele>1689</ele>
        <time>2013-08-11T08:50:58Z</time>
      </trkpt>
      <trkpt lat="45.22156" lon="6.27612">
        <ele>1688</ele>
        <time>2013-08-11T08:51:03Z</time>
      </trkpt>
      <trkpt lat="45.22166" lon="6.27616">
        <ele>1688</ele>
        <time>2013-08-11T08:51:07Z</time>
      </trkpt>
      <trkpt lat="45.22174" lon="6.27622">
        <ele>1671</ele>
        <time>2013-08-11T08:51:18Z</time>
      </trkpt>
      <trkpt lat="45.22194" lon="6.2763">
        <ele>1670</ele>
        <time>2013-08-11T08:51:27Z</time>
      </trkpt>
      <trkpt lat="45.22204" lon="6.27639">
        <ele>1669</ele>
        <time>2013-08-11T08:51:29Z</time>
      </trkpt>
      <trkpt lat="45.22211" lon="6.27648">
        <ele>1668</ele>
        <time>2013-08-11T08:51:34Z</time>
      </trkpt>
      <trkpt lat="45.2222" lon="6.27656">
        <ele>1667</ele>
        <time>2013-08-11T08:51:49Z</time>
      </trkpt>
      <trkpt lat="45.22229" lon="6.27653">
        <ele>1665</ele>
        <time>2013-08-11T08:51:54Z</time>
      </trkpt>
      <trkpt lat="45.22239" lon="6.27653">
        <ele>1664</ele>
        <time>2013-08-11T08:52:02Z</time>
      </trkpt>
      <trkpt lat="45.22248" lon="6.27651">
        <ele>1663</ele>
        <time>2013-08-11T08:52:12Z</time>
      </trkpt>
      <trkpt lat="45.22257" lon="6.27648">
        <ele>1651</ele>
        <time>2013-08-11T08:52:19Z</time>
      </trkpt>
      <trkpt lat="45.22263" lon="6.27638">
        <ele>1649</ele>
        <time>2013-08-11T08:52:30Z</time>
      </trkpt>
      <trkpt lat="45.22276" lon="6.27635">
        <ele>1647</ele>
        <time>2013-08-11T08:52:38Z</time>
      </trkpt>
      <trkpt lat="45.22284" lon="6.27642">
        <ele>1646</ele>
        <time>2013-08-11T08:52:44Z</time>
      </trkpt>
      <trkpt lat="45.22293" lon="6.27648">
        <ele>1645</ele>
        <time>2013-08-11T08:52:57Z</time>
      </trkpt>
      <trkpt lat="45.22301" lon="6.2766">
        <ele>1643</ele>
        <time>2013-08-11T08:53:13Z</time>
      </trkpt>
      <trkpt lat="45.22309" lon="6.27666">
        <ele>1641</ele>
        <time>2013-08-11T08:53:18Z</time>
      </trkpt>
      <trkpt lat="45.22307" lon="6.2768">
        <ele>1645</ele>
        <time>2013-08-11T08:53:37Z</time>
      </trkpt>
      <trkpt lat="45.22309" lon="6.27694">
        <ele>1645</ele>
        <time>2013-08-11T08:53:50Z</time>
      </trkpt>
      <trkpt lat="45.22317" lon="6.27701">
        <ele>1645</ele>
        <time>2013-08-11T08:54:04Z</time>
      </trkpt>
      <trkpt lat="45.22325" lon="6.2771">
        <ele>1644</ele>
        <time>2013-08-11T08:54:19Z</time>
      </trkpt>
      <trkpt lat="45.22335" lon="6.27707">
        <ele>1627</ele>
        <time>2013-08-11T08:54:37Z</time>
      </trkpt>
      <trkpt lat="45.22344" lon="6.27705">
        <ele>1627</ele>
        <time>2013-08-11T08:54:48Z</time>
      </trkpt>
      <trkpt lat="45.22352" lon="6.27696">
        <ele>1626</ele>
        <time>2013-08-11T08:54:53Z</time>
      </trkpt>
      <trkpt lat="45.22355" lon="6.27683">
        <ele>1627</ele>
        <time>2013-08-11T08:54:58Z</time>
      </trkpt>
      <trkpt lat="45.22361" lon="6.27673">
        <ele>1626</ele>
        <time>2013-08-11T08:55:05Z</time>
      </trkpt>
      <trkpt lat="45.22364" lon="6.2766">
        <ele>1625</ele>
        <time>2013-08-11T08:55:12Z</time>
      </trkpt>
      <trkpt lat="45.22374" lon="6.27651">
        <ele>1624</ele>
        <time>2013-08-11T08:55:21Z</time>
      </trkpt>
      <trkpt lat="45.2238" lon="6.27639">
        <ele>1622</ele>
        <time>2013-08-11T08:55:26Z</time>
      </trkpt>
      <trkpt lat="45.22381" lon="6.27626">
        <ele>1622</ele>
        <time>2013-08-11T08:55:37Z</time>
      </trkpt>
      <trkpt lat="45.22381" lon="6.27613">
        <ele>1622</ele>
        <time>2013-08-11T08:55:50Z</time>
      </trkpt>
      <trkpt lat="45.22375" lon="6.27602">
        <ele>1622</ele>
        <time>2013-08-11T08:56:02Z</time>
      </trkpt>
      <trkpt lat="45.22373" lon="6.27588">
        <ele>1622</ele>
        <time>2013-08-11T08:56:12Z</time>
      </trkpt>
      <trkpt lat="45.22372" lon="6.2757">
        <ele>1619</ele>
        <time>2013-08-11T08:56:21Z</time>
      </trkpt>
      <trkpt lat="45.22383" lon="6.27576">
        <ele>1618</ele>
        <time>2013-08-11T08:56:32Z</time>
      </trkpt>
      <trkpt lat="45.22388" lon="6.27587">
        <ele>1620</ele>
        <time>2013-08-11T08:56:37Z</time>
      </trkpt>
      <trkpt lat="45.22398" lon="6.27593">
        <ele>1619</ele>
        <time>2013-08-11T08:56:46Z</time>
      </trkpt>
      <trkpt lat="45.22409" lon="6.27594">
        <ele>1617</ele>
        <time>2013-08-11T08:56:52Z</time>
      </trkpt>
      <trkpt lat="45.22419" lon="6.276">
        <ele>1609</ele>
        <time>2013-08-11T08:57:00Z</time>
      </trkpt>
      <trkpt lat="45.22425" lon="6.27588">
        <ele>1610</ele>
        <time>2013-08-11T08:57:07Z</time>
      </trkpt>
      <trkpt lat="45.22427" lon="6.27575">
        <ele>1608</ele>
        <time>2013-08-11T08:57:12Z</time>
      </trkpt>
      <trkpt lat="45.22434" lon="6.27565">
        <ele>1605</ele>
        <time>2013-08-11T08:57:22Z</time>
      </trkpt>
      <trkpt lat="45.22444" lon="6.27564">
        <ele>1603</ele>
        <time>2013-08-11T08:57:27Z</time>
      </trkpt>
      <trkpt lat="45.22453" lon="6.2757">
        <ele>1602</ele>
        <time>2013-08-11T08:57:30Z</time>
      </trkpt>
      <trkpt lat="45.2246" lon="6.27578">
        <ele>1601</ele>
        <time>2013-08-11T08:57:36Z</time>
      </trkpt>
      <trkpt lat="45.22463" lon="6.27592">
        <ele>1602</ele>
        <time>2013-08-11T08:57:44Z</time>
      </trkpt>
      <trkpt lat="45.22465" lon="6.27605">
        <ele>1602</ele>
        <time>2013-08-11T08:57:52Z</time>
      </trkpt>
      <trkpt lat="45.22467" lon="6.2762">
        <ele>1602</ele>
        <time>2013-08-11T08:58:00Z</time>
      </trkpt>
      <trkpt lat="45.22463" lon="6.27632">
        <ele>1602</ele>
        <time>2013-08-11T08:58:10Z</time>
      </trkpt>
      <trkpt lat="45.22466" lon="6.27647">
        <ele>1602</ele>
        <time>2013-08-11T08:58:26Z</time>
      </trkpt>
      <trkpt lat="45.22467" lon="6.27661">
        <ele>1602</ele>
        <time>2013-08-11T08:58:36Z</time>
      </trkpt>
      <trkpt lat="45.22469" lon="6.27674">
        <ele>1602</ele>
        <time>2013-08-11T08:58:41Z</time>
      </trkpt>
      <trkpt lat="45.22474" lon="6.27685">
        <ele>1601</ele>
        <time>2013-08-11T08:58:52Z</time>
      </trkpt>
      <trkpt lat="45.22474" lon="6.27699">
        <ele>1602</ele>
        <time>2013-08-11T08:58:59Z</time>
      </trkpt>
      <trkpt lat="45.22474" lon="6.27713">
        <ele>1602</ele>
        <time>2013-08-11T08:59:05Z</time>
      </trkpt>
      <trkpt lat="45.22473" lon="6.27731">
        <ele>1601</ele>
        <time>2013-08-11T08:59:13Z</time>
      </trkpt>
      <trkpt lat="45.22474" lon="6.27745">
        <ele>1601</ele>
        <time>2013-08-11T08:59:18Z</time>
      </trkpt>
      <trkpt lat="45.22482" lon="6.27756">
        <ele>1594</ele>
        <time>2013-08-11T08:59:23Z</time>
      </trkpt>
      <trkpt lat="45.22489" lon="6.27767">
        <ele>1593</ele>
        <time>2013-08-11T08:59:30Z</time>
      </trkpt>
      <trkpt lat="45.22482" lon="6.27779">
        <ele>1592</ele>
        <time>2013-08-11T08:59:40Z</time>
      </trkpt>
      <trkpt lat="45.22473" lon="6.27786">
        <ele>1591</ele>
        <time>2013-08-11T09:00:01Z</time>
      </trkpt>
      <trkpt lat="45.22462" lon="6.27792">
        <ele>1591</ele>
        <time>2013-08-11T09:00:05Z</time>
      </trkpt>
      <trkpt lat="45.22451" lon="6.278">
        <ele>1590</ele>
        <time>2013-08-11T09:00:09Z</time>
      </trkpt>
      <trkpt lat="45.22442" lon="6.2781">
        <ele>1590</ele>
        <time>2013-08-11T09:00:15Z</time>
      </trkpt>
      <trkpt lat="45.22437" lon="6.27822">
        <ele>1589</ele>
        <time>2013-08-11T09:00:23Z</time>
      </trkpt>
      <trkpt lat="45.22435" lon="6.27836">
        <ele>1581</ele>
        <time>2013-08-11T09:00:47Z</time>
      </trkpt>
      <trkpt lat="45.22441" lon="6.27846">
        <ele>1579</ele>
        <time>2013-08-11T09:01:21Z</time>
      </trkpt>
      <trkpt lat="45.22435" lon="6.27856">
        <ele>1579</ele>
        <time>2013-08-11T09:01:31Z</time>
      </trkpt>
      <trkpt lat="45.22434" lon="6.2787">
        <ele>1577</ele>
        <time>2013-08-11T09:01:44Z</time>
      </trkpt>
      <trkpt lat="45.22442" lon="6.27877">
        <ele>1576</ele>
        <time>2013-08-11T09:01:53Z</time>
      </trkpt>
      <trkpt lat="45.2244" lon="6.2789">
        <ele>1576</ele>
        <time>2013-08-11T09:01:58Z</time>
      </trkpt>
      <trkpt lat="45.22442" lon="6.27904">
        <ele>1575</ele>
        <time>2013-08-11T09:02:08Z</time>
      </trkpt>
      <trkpt lat="45.22449" lon="6.27913">
        <ele>1574</ele>
        <time>2013-08-11T09:02:21Z</time>
      </trkpt>
      <trkpt lat="45.22447" lon="6.27926">
        <ele>1570</ele>
        <time>2013-08-11T09:02:28Z</time>
      </trkpt>
      <trkpt lat="45.22443" lon="6.27939">
        <ele>1570</ele>
        <time>2013-08-11T09:02:33Z</time>
      </trkpt>
      <trkpt lat="45.22443" lon="6.27952">
        <ele>1570</ele>
        <time>2013-08-11T09:02:43Z</time>
      </trkpt>
      <trkpt lat="45.22452" lon="6.27956">
        <ele>1569</ele>
        <time>2013-08-11T09:02:53Z</time>
      </trkpt>
      <trkpt lat="45.22455" lon="6.27969">
        <ele>1568</ele>
        <time>2013-08-11T09:03:02Z</time>
      </trkpt>
      <trkpt lat="45.2246" lon="6.27983">
        <ele>1567</ele>
        <time>2013-08-11T09:03:08Z</time>
      </trkpt>
      <trkpt lat="45.22462" lon="6.27997">
        <ele>1567</ele>
        <time>2013-08-11T09:03:14Z</time>
      </trkpt>
      <trkpt lat="45.22471" lon="6.28003">
        <ele>1571</ele>
        <time>2013-08-11T09:03:22Z</time>
      </trkpt>
      <trkpt lat="45.22479" lon="6.28011">
        <ele>1570</ele>
        <time>2013-08-11T09:03:27Z</time>
      </trkpt>
      <trkpt lat="45.22487" lon="6.28023">
        <ele>1570</ele>
        <time>2013-08-11T09:03:32Z</time>
      </trkpt>
      <trkpt lat="45.22494" lon="6.28033">
        <ele>1572</ele>
        <time>2013-08-11T09:03:38Z</time>
      </trkpt>
      <trkpt lat="45.22504" lon="6.28034">
        <ele>1556</ele>
        <time>2013-08-11T09:03:44Z</time>
      </trkpt>
      <trkpt lat="45.22512" lon="6.28043">
        <ele>1557</ele>
        <time>2013-08-11T09:03:49Z</time>
      </trkpt>
      <trkpt lat="45.22519" lon="6.28054">
        <ele>1558</ele>
        <time>2013-08-11T09:03:54Z</time>
      </trkpt>
      <trkpt lat="45.22519" lon="6.28068">
        <ele>1561</ele>
        <time>2013-08-11T09:04:00Z</time>
      </trkpt>
      <trkpt lat="45.22521" lon="6.28081">
        <ele>1563</ele>
        <time>2013-08-11T09:04:07Z</time>
      </trkpt>
      <trkpt lat="45.2253" lon="6.28086">
        <ele>1573</ele>
        <time>2013-08-11T09:04:16Z</time>
      </trkpt>
      <trkpt lat="45.22538" lon="6.28093">
        <ele>1571</ele>
        <time>2013-08-11T09:04:28Z</time>
      </trkpt>
      <trkpt lat="45.2255" lon="6.28096">
        <ele>1568</ele>
        <time>2013-08-11T09:04:45Z</time>
      </trkpt>
      <trkpt lat="45.22555" lon="6.28107">
        <ele>1568</ele>
        <time>2013-08-11T09:04:57Z</time>
      </trkpt>
      <trkpt lat="45.22566" lon="6.2811">
        <ele>1566</ele>
        <time>2013-08-11T09:05:05Z</time>
      </trkpt>
      <trkpt lat="45.22571" lon="6.28121">
        <ele>1568</ele>
        <time>2013-08-11T09:05:11Z</time>
      </trkpt>
      <trkpt lat="45.22567" lon="6.28133">
        <ele>1570</ele>
        <time>2013-08-11T09:05:19Z</time>
      </trkpt>
      <trkpt lat="45.22576" lon="6.28132">
        <ele>1569</ele>
        <time>2013-08-11T09:05:26Z</time>
      </trkpt>
      <trkpt lat="45.22587" lon="6.28132">
        <ele>1543</ele>
        <time>2013-08-11T09:05:34Z</time>
      </trkpt>
      <trkpt lat="45.22597" lon="6.28132">
        <ele>1542</ele>
        <time>2013-08-11T09:05:37Z</time>
      </trkpt>
      <trkpt lat="45.22608" lon="6.28137">
        <ele>1540</ele>
        <time>2013-08-11T09:05:44Z</time>
      </trkpt>
      <trkpt lat="45.22616" lon="6.28133">
        <ele>1538</ele>
        <time>2013-08-11T09:05:52Z</time>
      </trkpt>
      <trkpt lat="45.22627" lon="6.28137">
        <ele>1536</ele>
        <time>2013-08-11T09:06:07Z</time>
      </trkpt>
      <trkpt lat="45.22633" lon="6.28127">
        <ele>1534</ele>
        <time>2013-08-11T09:06:26Z</time>
      </trkpt>
      <trkpt lat="45.2263" lon="6.28115">
        <ele>1534</ele>
        <time>2013-08-11T09:06:34Z</time>
      </trkpt>
      <trkpt lat="45.22635" lon="6.28101">
        <ele>1532</ele>
        <time>2013-08-11T09:06:42Z</time>
      </trkpt>
      <trkpt lat="45.22644" lon="6.28093">
        <ele>1528</ele>
        <time>2013-08-11T09:06:51Z</time>
      </trkpt>
      <trkpt lat="45.22654" lon="6.28095">
        <ele>1526</ele>
        <time>2013-08-11T09:06:59Z</time>
      </trkpt>
      <trkpt lat="45.22665" lon="6.28095">
        <ele>1523</ele>
        <time>2013-08-11T09:07:02Z</time>
      </trkpt>
      <trkpt lat="45.22673" lon="6.28105">
        <ele>1507</ele>
        <time>2013-08-11T09:07:09Z</time>
      </trkpt>
      <trkpt lat="45.2268" lon="6.28115">
        <ele>1505</ele>
        <time>2013-08-11T09:07:13Z</time>
      </trkpt>
      <trkpt lat="45.22689" lon="6.28105">
        <ele>1504</ele>
        <time>2013-08-11T09:07:31Z</time>
      </trkpt>
      <trkpt lat="45.22698" lon="6.28099">
        <ele>1503</ele>
        <time>2013-08-11T09:07:35Z</time>
      </trkpt>
      <trkpt lat="45.22702" lon="6.28084">
        <ele>1502</ele>
        <time>2013-08-11T09:07:45Z</time>
      </trkpt>
      <trkpt lat="45.22693" lon="6.28076">
        <ele>1503</ele>
        <time>2013-08-11T09:07:51Z</time>
      </trkpt>
      <trkpt lat="45.22692" lon="6.2806">
        <ele>1501</ele>
        <time>2013-08-11T09:08:01Z</time>
      </trkpt>
      <trkpt lat="45.227" lon="6.28052">
        <ele>1499</ele>
        <time>2013-08-11T09:08:06Z</time>
      </trkpt>
      <trkpt lat="45.2271" lon="6.28056">
        <ele>1497</ele>
        <time>2013-08-11T09:08:18Z</time>
      </trkpt>
      <trkpt lat="45.22719" lon="6.28055">
        <ele>1495</ele>
        <time>2013-08-11T09:08:25Z</time>
      </trkpt>
      <trkpt lat="45.22727" lon="6.28065">
        <ele>1494</ele>
        <time>2013-08-11T09:08:31Z</time>
      </trkpt>
      <trkpt lat="45.22735" lon="6.28073">
        <ele>1492</ele>
        <time>2013-08-11T09:08:40Z</time>
      </trkpt>
      <trkpt lat="45.22744" lon="6.28066">
        <ele>1491</ele>
        <time>2013-08-11T09:09:02Z</time>
      </trkpt>
      <trkpt lat="45.22754" lon="6.28065">
        <ele>1476</ele>
        <time>2013-08-11T09:09:10Z</time>
      </trkpt>
      <trkpt lat="45.22764" lon="6.28068">
        <ele>1475</ele>
        <time>2013-08-11T09:09:18Z</time>
      </trkpt>
      <trkpt lat="45.22762" lon="6.28081">
        <ele>1478</ele>
        <time>2013-08-11T09:09:24Z</time>
      </trkpt>
      <trkpt lat="45.22772" lon="6.28073">
        <ele>1473</ele>
        <time>2013-08-11T09:09:47Z</time>
      </trkpt>
      <trkpt lat="45.22783" lon="6.28067">
        <ele>1468</ele>
        <time>2013-08-11T09:09:57Z</time>
      </trkpt>
      <trkpt lat="45.2279" lon="6.28056">
        <ele>1466</ele>
        <time>2013-08-11T09:10:09Z</time>
      </trkpt>
      <trkpt lat="45.22799" lon="6.2806">
        <ele>1464</ele>
        <time>2013-08-11T09:10:19Z</time>
      </trkpt>
      <trkpt lat="45.22804" lon="6.28078">
        <ele>1463</ele>
        <time>2013-08-11T09:10:37Z</time>
      </trkpt>
      <trkpt lat="45.22803" lon="6.28091">
        <ele>1462</ele>
        <time>2013-08-11T09:10:43Z</time>
      </trkpt>
      <trkpt lat="45.22811" lon="6.281">
        <ele>1460</ele>
        <time>2013-08-11T09:10:59Z</time>
      </trkpt>
      <trkpt lat="45.2282" lon="6.28107">
        <ele>1459</ele>
        <time>2013-08-11T09:11:08Z</time>
      </trkpt>
      <trkpt lat="45.22828" lon="6.28113">
        <ele>1458</ele>
        <time>2013-08-11T09:11:30Z</time>
      </trkpt>
      <trkpt lat="45.22835" lon="6.28122">
        <ele>1436</ele>
        <time>2013-08-11T09:11:46Z</time>
      </trkpt>
      <trkpt lat="45.22846" lon="6.28128">
        <ele>1435</ele>
        <time>2013-08-11T09:11:58Z</time>
      </trkpt>
      <trkpt lat="45.22854" lon="6.28122">
        <ele>1434</ele>
        <time>2013-08-11T09:12:05Z</time>
      </trkpt>
      <trkpt lat="45.22863" lon="6.28128">
        <ele>1432</ele>
        <time>2013-08-11T09:12:16Z</time>
      </trkpt>
      <trkpt lat="45.2287" lon="6.28137">
        <ele>1431</ele>
        <time>2013-08-11T09:12:32Z</time>
      </trkpt>
      <trkpt lat="45.22875" lon="6.28151">
        <ele>1429</ele>
        <time>2013-08-11T09:12:50Z</time>
      </trkpt>
      <trkpt lat="45.22882" lon="6.2816">
        <ele>1427</ele>
        <time>2013-08-11T09:12:57Z</time>
      </trkpt>
      <trkpt lat="45.22892" lon="6.28159">
        <ele>1424</ele>
        <time>2013-08-11T09:13:08Z</time>
      </trkpt>
      <trkpt lat="45.22903" lon="6.28161">
        <ele>1420</ele>
        <time>2013-08-11T09:13:14Z</time>
      </trkpt>
      <trkpt lat="45.22909" lon="6.28173">
        <ele>1416</ele>
        <time>2013-08-11T09:13:21Z</time>
      </trkpt>
      <trkpt lat="45.22915" lon="6.28183">
        <ele>1418</ele>
        <time>2013-08-11T09:13:34Z</time>
      </trkpt>
      <trkpt lat="45.22925" lon="6.28187">
        <ele>1407</ele>
        <time>2013-08-11T09:13:42Z</time>
      </trkpt>
      <trkpt lat="45.22934" lon="6.28187">
        <ele>1406</ele>
        <time>2013-08-11T09:13:51Z</time>
      </trkpt>
      <trkpt lat="45.22946" lon="6.28189">
        <ele>1404</ele>
        <time>2013-08-11T09:13:58Z</time>
      </trkpt>
      <trkpt lat="45.22954" lon="6.28201">
        <ele>1403</ele>
        <time>2013-08-11T09:14:02Z</time>
      </trkpt>
      <trkpt lat="45.22957" lon="6.28215">
        <ele>1403</ele>
        <time>2013-08-11T09:14:06Z</time>
      </trkpt>
      <trkpt lat="45.22967" lon="6.28214">
        <ele>1402</ele>
        <time>2013-08-11T09:14:18Z</time>
      </trkpt>
      <trkpt lat="45.22973" lon="6.28203">
        <ele>1401</ele>
        <time>2013-08-11T09:14:20Z</time>
      </trkpt>
      <trkpt lat="45.22982" lon="6.28203">
        <ele>1400</ele>
        <time>2013-08-11T09:14:23Z</time>
      </trkpt>
      <trkpt lat="45.22988" lon="6.28188">
        <ele>1400</ele>
        <time>2013-08-11T09:14:30Z</time>
      </trkpt>
      <trkpt lat="45.22998" lon="6.28178">
        <ele>1398</ele>
        <time>2013-08-11T09:14:33Z</time>
      </trkpt>
      <trkpt lat="45.23008" lon="6.28171">
        <ele>1393</ele>
        <time>2013-08-11T09:14:36Z</time>
      </trkpt>
      <trkpt lat="45.23023" lon="6.28167">
        <ele>1391</ele>
        <time>2013-08-11T09:14:39Z</time>
      </trkpt>
      <trkpt lat="45.23033" lon="6.28169">
        <ele>1390</ele>
        <time>2013-08-11T09:14:42Z</time>
      </trkpt>
      <trkpt lat="45.23042" lon="6.28176">
        <ele>1389</ele>
        <time>2013-08-11T09:14:45Z</time>
      </trkpt>
      <trkpt lat="45.23053" lon="6.28179">
        <ele>1388</ele>
        <time>2013-08-11T09:14:47Z</time>
      </trkpt>
      <trkpt lat="45.23066" lon="6.28179">
        <ele>1387</ele>
        <time>2013-08-11T09:14:49Z</time>
      </trkpt>
      <trkpt lat="45.23079" lon="6.28178">
        <ele>1386</ele>
        <time>2013-08-11T09:14:51Z</time>
      </trkpt>
      <trkpt lat="45.23089" lon="6.28172">
        <ele>1382</ele>
        <time>2013-08-11T09:14:55Z</time>
      </trkpt>
      <trkpt lat="45.23097" lon="6.28182">
        <ele>1379</ele>
        <time>2013-08-11T09:15:01Z</time>
      </trkpt>
      <trkpt lat="45.23108" lon="6.28187">
        <ele>1377</ele>
        <time>2013-08-11T09:15:03Z</time>
      </trkpt>
      <trkpt lat="45.23117" lon="6.28196">
        <ele>1375</ele>
        <time>2013-08-11T09:15:08Z</time>
      </trkpt>
      <trkpt lat="45.23124" lon="6.28209">
        <ele>1374</ele>
        <time>2013-08-11T09:15:14Z</time>
      </trkpt>
      <trkpt lat="45.23133" lon="6.28219">
        <ele>1372</ele>
        <time>2013-08-11T09:15:18Z</time>
      </trkpt>
      <trkpt lat="45.23139" lon="6.2823">
        <ele>1370</ele>
        <time>2013-08-11T09:15:23Z</time>
      </trkpt>
      <trkpt lat="45.23146" lon="6.2824">
        <ele>1368</ele>
        <time>2013-08-11T09:15:28Z</time>
      </trkpt>
      <trkpt lat="45.23155" lon="6.28245">
        <ele>1365</ele>
        <time>2013-08-11T09:15:36Z</time>
      </trkpt>
      <trkpt lat="45.23152" lon="6.28258">
        <ele>1362</ele>
        <time>2013-08-11T09:15:52Z</time>
      </trkpt>
      <trkpt lat="45.23158" lon="6.28269">
        <ele>1362</ele>
        <time>2013-08-11T09:15:56Z</time>
      </trkpt>
      <trkpt lat="45.23168" lon="6.28275">
        <ele>1353</ele>
        <time>2013-08-11T09:15:59Z</time>
      </trkpt>
      <trkpt lat="45.23176" lon="6.28283">
        <ele>1352</ele>
        <time>2013-08-11T09:16:05Z</time>
      </trkpt>
      <trkpt lat="45.23185" lon="6.28287">
        <ele>1352</ele>
        <time>2013-08-11T09:16:08Z</time>
      </trkpt>
      <trkpt lat="45.23192" lon="6.28297">
        <ele>1351</ele>
        <time>2013-08-11T09:16:12Z</time>
      </trkpt>
      <trkpt lat="45.232" lon="6.28309">
        <ele>1350</ele>
        <time>2013-08-11T09:16:21Z</time>
      </trkpt>
      <trkpt lat="45.23212" lon="6.28311">
        <ele>1349</ele>
        <time>2013-08-11T09:16:28Z</time>
      </trkpt>
      <trkpt lat="45.23224" lon="6.2831">
        <ele>1347</ele>
        <time>2013-08-11T09:16:30Z</time>
      </trkpt>
      <trkpt lat="45.23235" lon="6.28319">
        <ele>1345</ele>
        <time>2013-08-11T09:16:36Z</time>
      </trkpt>
      <trkpt lat="45.23241" lon="6.28329">
        <ele>1342</ele>
        <time>2013-08-11T09:16:48Z</time>
      </trkpt>
      <trkpt lat="45.23252" lon="6.28338">
        <ele>1335</ele>
        <time>2013-08-11T09:17:01Z</time>
      </trkpt>
      <trkpt lat="45.23262" lon="6.2834">
        <ele>1332</ele>
        <time>2013-08-11T09:17:03Z</time>
      </trkpt>
      <trkpt lat="45.23272" lon="6.28345">
        <ele>1329</ele>
        <time>2013-08-11T09:17:09Z</time>
      </trkpt>
      <trkpt lat="45.23276" lon="6.28356">
        <ele>1327</ele>
        <time>2013-08-11T09:17:14Z</time>
      </trkpt>
      <trkpt lat="45.23285" lon="6.28363">
        <ele>1325</ele>
        <time>2013-08-11T09:17:19Z</time>
      </trkpt>
      <trkpt lat="45.23286" lon="6.28377">
        <ele>1325</ele>
        <time>2013-08-11T09:17:25Z</time>
      </trkpt>
      <trkpt lat="45.23285" lon="6.2839">
        <ele>1325</ele>
        <time>2013-08-11T09:17:30Z</time>
      </trkpt>
      <trkpt lat="45.23292" lon="6.284">
        <ele>1324</ele>
        <time>2013-08-11T09:17:39Z</time>
      </trkpt>
      <trkpt lat="45.23296" lon="6.28413">
        <ele>1323</ele>
        <time>2013-08-11T09:17:55Z</time>
      </trkpt>
      <trkpt lat="45.23294" lon="6.28425">
        <ele>1318</ele>
        <time>2013-08-11T09:18:02Z</time>
      </trkpt>
      <trkpt lat="45.23288" lon="6.28436">
        <ele>1319</ele>
        <time>2013-08-11T09:18:07Z</time>
      </trkpt>
      <trkpt lat="45.23299" lon="6.28438">
        <ele>1317</ele>
        <time>2013-08-11T09:18:19Z</time>
      </trkpt>
      <trkpt lat="45.23302" lon="6.28451">
        <ele>1316</ele>
        <time>2013-08-11T09:18:28Z</time>
      </trkpt>
      <trkpt lat="45.23313" lon="6.28452">
        <ele>1316</ele>
        <time>2013-08-11T09:18:36Z</time>
      </trkpt>
      <trkpt lat="45.23324" lon="6.28455">
        <ele>1315</ele>
        <time>2013-08-11T09:18:43Z</time>
      </trkpt>
      <trkpt lat="45.23325" lon="6.2847">
        <ele>1314</ele>
        <time>2013-08-11T09:18:50Z</time>
      </trkpt>
      <trkpt lat="45.23335" lon="6.2847">
        <ele>1306</ele>
        <time>2013-08-11T09:18:54Z</time>
      </trkpt>
      <trkpt lat="45.23345" lon="6.28463">
        <ele>1306</ele>
        <time>2013-08-11T09:19:00Z</time>
      </trkpt>
      <trkpt lat="45.23355" lon="6.28464">
        <ele>1305</ele>
        <time>2013-08-11T09:19:03Z</time>
      </trkpt>
      <trkpt lat="45.23362" lon="6.28478">
        <ele>1304</ele>
        <time>2013-08-11T09:19:08Z</time>
      </trkpt>
      <trkpt lat="45.23369" lon="6.2849">
        <ele>1303</ele>
        <time>2013-08-11T09:19:11Z</time>
      </trkpt>
      <trkpt lat="45.23375" lon="6.28504">
        <ele>1296</ele>
        <time>2013-08-11T09:19:15Z</time>
      </trkpt>
      <trkpt lat="45.23379" lon="6.2852">
        <ele>1295</ele>
        <time>2013-08-11T09:19:21Z</time>
      </trkpt>
      <trkpt lat="45.2339" lon="6.28526">
        <ele>1293</ele>
        <time>2013-08-11T09:19:25Z</time>
      </trkpt>
      <trkpt lat="45.23398" lon="6.28539">
        <ele>1292</ele>
        <time>2013-08-11T09:19:30Z</time>
      </trkpt>
      <trkpt lat="45.234" lon="6.28554">
        <ele>1290</ele>
        <time>2013-08-11T09:19:36Z</time>
      </trkpt>
      <trkpt lat="45.234" lon="6.28567">
        <ele>1289</ele>
        <time>2013-08-11T09:19:40Z</time>
      </trkpt>
      <trkpt lat="45.2341" lon="6.28572">
        <ele>1286</ele>
        <time>2013-08-11T09:19:48Z</time>
      </trkpt>
      <trkpt lat="45.23406" lon="6.28589">
        <ele>1282</ele>
        <time>2013-08-11T09:19:53Z</time>
      </trkpt>
      <trkpt lat="45.23397" lon="6.28601">
        <ele>1283</ele>
        <time>2013-08-11T09:19:55Z</time>
      </trkpt>
      <trkpt lat="45.23388" lon="6.28615">
        <ele>1283</ele>
        <time>2013-08-11T09:19:58Z</time>
      </trkpt>
      <trkpt lat="45.2338" lon="6.28629">
        <ele>1283</ele>
        <time>2013-08-11T09:20:02Z</time>
      </trkpt>
      <trkpt lat="45.23386" lon="6.28641">
        <ele>1282</ele>
        <time>2013-08-11T09:20:06Z</time>
      </trkpt>
      <trkpt lat="45.23395" lon="6.28654">
        <ele>1281</ele>
        <time>2013-08-11T09:20:08Z</time>
      </trkpt>
      <trkpt lat="45.23403" lon="6.28661">
        <ele>1279</ele>
        <time>2013-08-11T09:20:10Z</time>
      </trkpt>
      <trkpt lat="45.23411" lon="6.28668">
        <ele>1275</ele>
        <time>2013-08-11T09:20:13Z</time>
      </trkpt>
      <trkpt lat="45.23424" lon="6.28673">
        <ele>1271</ele>
        <time>2013-08-11T09:20:16Z</time>
      </trkpt>
      <trkpt lat="45.23435" lon="6.28682">
        <ele>1267</ele>
        <time>2013-08-11T09:20:19Z</time>
      </trkpt>
      <trkpt lat="45.23451" lon="6.28694">
        <ele>1264</ele>
        <time>2013-08-11T09:20:23Z</time>
      </trkpt>
      <trkpt lat="45.23452" lon="6.28711">
        <ele>1263</ele>
        <time>2013-08-11T09:20:26Z</time>
      </trkpt>
      <trkpt lat="45.23456" lon="6.28727">
        <ele>1262</ele>
        <time>2013-08-11T09:20:29Z</time>
      </trkpt>
      <trkpt lat="45.23452" lon="6.2874">
        <ele>1262</ele>
        <time>2013-08-11T09:20:31Z</time>
      </trkpt>
      <trkpt lat="45.23444" lon="6.28753">
        <ele>1259</ele>
        <time>2013-08-11T09:20:34Z</time>
      </trkpt>
      <trkpt lat="45.23441" lon="6.28766">
        <ele>1258</ele>
        <time>2013-08-11T09:20:38Z</time>
      </trkpt>
      <trkpt lat="45.2346" lon="6.28777">
        <ele>1254</ele>
        <time>2013-08-11T09:20:46Z</time>
      </trkpt>
      <trkpt lat="45.2347" lon="6.28779">
        <ele>1253</ele>
        <time>2013-08-11T09:20:47Z</time>
      </trkpt>
      <trkpt lat="45.2349" lon="6.28782">
        <ele>1251</ele>
        <time>2013-08-11T09:20:48Z</time>
      </trkpt>
      <trkpt lat="45.235" lon="6.2879">
        <ele>1249</ele>
        <time>2013-08-11T09:20:49Z</time>
      </trkpt>
      <trkpt lat="45.23511" lon="6.28809">
        <ele>1230</ele>
        <time>2013-08-11T09:20:51Z</time>
      </trkpt>
      <trkpt lat="45.23512" lon="6.28831">
        <ele>1231</ele>
        <time>2013-08-11T09:20:53Z</time>
      </trkpt>
      <trkpt lat="45.2351" lon="6.28849">
        <ele>1224</ele>
        <time>2013-08-11T09:20:55Z</time>
      </trkpt>
      <trkpt lat="45.23504" lon="6.28861">
        <ele>1221</ele>
        <time>2013-08-11T09:20:58Z</time>
      </trkpt>
      <trkpt lat="45.23519" lon="6.28857">
        <ele>1220</ele>
        <time>2013-08-11T09:21:03Z</time>
      </trkpt>
      <trkpt lat="45.23536" lon="6.28855">
        <ele>1216</ele>
        <time>2013-08-11T09:21:05Z</time>
      </trkpt>
      <trkpt lat="45.23546" lon="6.28856">
        <ele>1214</ele>
        <time>2013-08-11T09:21:06Z</time>
      </trkpt>
      <trkpt lat="45.23559" lon="6.28856">
        <ele>1211</ele>
        <time>2013-08-11T09:21:08Z</time>
      </trkpt>
      <trkpt lat="45.23569" lon="6.28858">
        <ele>1210</ele>
        <time>2013-08-11T09:21:10Z</time>
      </trkpt>
      <trkpt lat="45.23569" lon="6.28874">
        <ele>1209</ele>
        <time>2013-08-11T09:21:13Z</time>
      </trkpt>
      <trkpt lat="45.23563" lon="6.28885">
        <ele>1209</ele>
        <time>2013-08-11T09:21:15Z</time>
      </trkpt>
      <trkpt lat="45.23553" lon="6.28897">
        <ele>1210</ele>
        <time>2013-08-11T09:21:17Z</time>
      </trkpt>
      <trkpt lat="45.23545" lon="6.28906">
        <ele>1211</ele>
        <time>2013-08-11T09:21:19Z</time>
      </trkpt>
      <trkpt lat="45.2356" lon="6.28909">
        <ele>1206</ele>
        <time>2013-08-11T09:21:27Z</time>
      </trkpt>
      <trkpt lat="45.23572" lon="6.28907">
        <ele>1202</ele>
        <time>2013-08-11T09:21:28Z</time>
      </trkpt>
      <trkpt lat="45.23591" lon="6.28901">
        <ele>1190</ele>
        <time>2013-08-11T09:21:30Z</time>
      </trkpt>
      <trkpt lat="45.23608" lon="6.28893">
        <ele>1189</ele>
        <time>2013-08-11T09:21:32Z</time>
      </trkpt>
      <trkpt lat="45.23623" lon="6.2889">
        <ele>1187</ele>
        <time>2013-08-11T09:21:34Z</time>
      </trkpt>
      <trkpt lat="45.23626" lon="6.28902">
        <ele>1185</ele>
        <time>2013-08-11T09:21:39Z</time>
      </trkpt>
      <trkpt lat="45.2362" lon="6.2892">
        <ele>1180</ele>
        <time>2013-08-11T09:21:41Z</time>
      </trkpt>
      <trkpt lat="45.23616" lon="6.28932">
        <ele>1180</ele>
        <time>2013-08-11T09:21:42Z</time>
      </trkpt>
      <trkpt lat="45.23611" lon="6.28946">
        <ele>1180</ele>
        <time>2013-08-11T09:21:43Z</time>
      </trkpt>
      <trkpt lat="45.23605" lon="6.28964">
        <ele>1179</ele>
        <time>2013-08-11T09:21:45Z</time>
      </trkpt>
      <trkpt lat="45.23596" lon="6.28981">
        <ele>1180</ele>
        <time>2013-08-11T09:21:47Z</time>
      </trkpt>
      <trkpt lat="45.23587" lon="6.28996">
        <ele>1183</ele>
        <time>2013-08-11T09:21:49Z</time>
      </trkpt>
      <trkpt lat="45.23584" lon="6.29009">
        <ele>1180</ele>
        <time>2013-08-11T09:21:52Z</time>
      </trkpt>
      <trkpt lat="45.23587" lon="6.29026">
        <ele>1177</ele>
        <time>2013-08-11T09:21:55Z</time>
      </trkpt>
      <trkpt lat="45.2359" lon="6.29043">
        <ele>1176</ele>
        <time>2013-08-11T09:21:57Z</time>
      </trkpt>
      <trkpt lat="45.23586" lon="6.29058">
        <ele>1177</ele>
        <time>2013-08-11T09:21:59Z</time>
      </trkpt>
      <trkpt lat="45.23595" lon="6.29077">
        <ele>1179</ele>
        <time>2013-08-11T09:22:01Z</time>
      </trkpt>
      <trkpt lat="45.23601" lon="6.29088">
        <ele>1177</ele>
        <time>2013-08-11T09:22:02Z</time>
      </trkpt>
      <trkpt lat="45.23611" lon="6.29109">
        <ele>1173</ele>
        <time>2013-08-11T09:22:04Z</time>
      </trkpt>
      <trkpt lat="45.23616" lon="6.29121">
        <ele>1172</ele>
        <time>2013-08-11T09:22:05Z</time>
      </trkpt>
      <trkpt lat="45.23626" lon="6.29134">
        <ele>1171</ele>
        <time>2013-08-11T09:22:06Z</time>
      </trkpt>
      <trkpt lat="45.23636" lon="6.29147">
        <ele>1169</ele>
        <time>2013-08-11T09:22:08Z</time>
      </trkpt>
      <trkpt lat="45.23649" lon="6.29148">
        <ele>1167</ele>
        <time>2013-08-11T09:22:11Z</time>
      </trkpt>
      <trkpt lat="45.23659" lon="6.29153">
        <ele>1166</ele>
        <time>2013-08-11T09:22:12Z</time>
      </trkpt>
      <trkpt lat="45.23668" lon="6.29148">
        <ele>1158</ele>
        <time>2013-08-11T09:22:17Z</time>
      </trkpt>
      <trkpt lat="45.2368" lon="6.29149">
        <ele>1158</ele>
        <time>2013-08-11T09:22:19Z</time>
      </trkpt>
      <trkpt lat="45.23693" lon="6.29149">
        <ele>1157</ele>
        <time>2013-08-11T09:22:21Z</time>
      </trkpt>
      <trkpt lat="45.23703" lon="6.29142">
        <ele>1156</ele>
        <time>2013-08-11T09:22:23Z</time>
      </trkpt>
      <trkpt lat="45.23711" lon="6.29129">
        <ele>1155</ele>
        <time>2013-08-11T09:22:25Z</time>
      </trkpt>
      <trkpt lat="45.23727" lon="6.29118">
        <ele>1154</ele>
        <time>2013-08-11T09:22:28Z</time>
      </trkpt>
      <trkpt lat="45.23736" lon="6.29114">
        <ele>1153</ele>
        <time>2013-08-11T09:22:29Z</time>
      </trkpt>
      <trkpt lat="45.23753" lon="6.2911">
        <ele>1149</ele>
        <time>2013-08-11T09:22:31Z</time>
      </trkpt>
      <trkpt lat="45.23766" lon="6.29106">
        <ele>1149</ele>
        <time>2013-08-11T09:22:33Z</time>
      </trkpt>
      <trkpt lat="45.23775" lon="6.29105">
        <ele>1149</ele>
        <time>2013-08-11T09:22:34Z</time>
      </trkpt>
      <trkpt lat="45.23788" lon="6.29099">
        <ele>1148</ele>
        <time>2013-08-11T09:22:36Z</time>
      </trkpt>
      <trkpt lat="45.23803" lon="6.29093">
        <ele>1148</ele>
        <time>2013-08-11T09:22:38Z</time>
      </trkpt>
      <trkpt lat="45.23816" lon="6.29083">
        <ele>1145</ele>
        <time>2013-08-11T09:22:40Z</time>
      </trkpt>
      <trkpt lat="45.23829" lon="6.29072">
        <ele>1145</ele>
        <time>2013-08-11T09:22:42Z</time>
      </trkpt>
      <trkpt lat="45.2384" lon="6.29057">
        <ele>1141</ele>
        <time>2013-08-11T09:22:44Z</time>
      </trkpt>
      <trkpt lat="45.23857" lon="6.29044">
        <ele>1140</ele>
        <time>2013-08-11T09:22:46Z</time>
      </trkpt>
      <trkpt lat="45.23866" lon="6.29037">
        <ele>1140</ele>
        <time>2013-08-11T09:22:47Z</time>
      </trkpt>
      <trkpt lat="45.23879" lon="6.29026">
        <ele>1139</ele>
        <time>2013-08-11T09:22:49Z</time>
      </trkpt>
      <trkpt lat="45.23892" lon="6.29019">
        <ele>1138</ele>
        <time>2013-08-11T09:22:51Z</time>
      </trkpt>
      <trkpt lat="45.23909" lon="6.29013">
        <ele>1137</ele>
        <time>2013-08-11T09:22:53Z</time>
      </trkpt>
      <trkpt lat="45.23925" lon="6.29005">
        <ele>1133</ele>
        <time>2013-08-11T09:22:55Z</time>
      </trkpt>
      <trkpt lat="45.23937" lon="6.28996">
        <ele>1131</ele>
        <time>2013-08-11T09:22:57Z</time>
      </trkpt>
      <trkpt lat="45.2394" lon="6.28983">
        <ele>1130</ele>
        <time>2013-08-11T09:22:59Z</time>
      </trkpt>
      <trkpt lat="45.23954" lon="6.28979">
        <ele>1129</ele>
        <time>2013-08-11T09:23:01Z</time>
      </trkpt>
      <trkpt lat="45.23963" lon="6.28975">
        <ele>1128</ele>
        <time>2013-08-11T09:23:04Z</time>
      </trkpt>
      <trkpt lat="45.23949" lon="6.28968">
        <ele>1130</ele>
        <time>2013-08-11T09:23:08Z</time>
      </trkpt>
      <trkpt lat="45.2394" lon="6.28964">
        <ele>1130</ele>
        <time>2013-08-11T09:23:10Z</time>
      </trkpt>
      <trkpt lat="45.23927" lon="6.28953">
        <ele>1131</ele>
        <time>2013-08-11T09:23:14Z</time>
      </trkpt>
      <trkpt lat="45.23914" lon="6.28941">
        <ele>1136</ele>
        <time>2013-08-11T09:23:17Z</time>
      </trkpt>
      <trkpt lat="45.23906" lon="6.28932">
        <ele>1136</ele>
        <time>2013-08-11T09:23:20Z</time>
      </trkpt>
      <trkpt lat="45.23892" lon="6.28915">
        <ele>1139</ele>
        <time>2013-08-11T09:23:25Z</time>
      </trkpt>
      <trkpt lat="45.23884" lon="6.28897">
        <ele>1140</ele>
        <time>2013-08-11T09:23:28Z</time>
      </trkpt>
      <trkpt lat="45.23881" lon="6.28885">
        <ele>1141</ele>
        <time>2013-08-11T09:23:31Z</time>
      </trkpt>
      <trkpt lat="45.23894" lon="6.2888">
        <ele>1140</ele>
        <time>2013-08-11T09:23:35Z</time>
      </trkpt>
      <trkpt lat="45.23907" lon="6.28882">
        <ele>1140</ele>
        <time>2013-08-11T09:23:38Z</time>
      </trkpt>
      <trkpt lat="45.23918" lon="6.28888">
        <ele>1134</ele>
        <time>2013-08-11T09:23:41Z</time>
      </trkpt>
      <trkpt lat="45.23931" lon="6.28893">
        <ele>1134</ele>
        <time>2013-08-11T09:23:44Z</time>
      </trkpt>
      <trkpt lat="45.23944" lon="6.28899">
        <ele>1133</ele>
        <time>2013-08-11T09:23:46Z</time>
      </trkpt>
      <trkpt lat="45.23961" lon="6.28903">
        <ele>1132</ele>
        <time>2013-08-11T09:23:48Z</time>
      </trkpt>
      <trkpt lat="45.2398" lon="6.28902">
        <ele>1131</ele>
        <time>2013-08-11T09:23:50Z</time>
      </trkpt>
      <trkpt lat="45.23991" lon="6.28899">
        <ele>1131</ele>
        <time>2013-08-11T09:23:51Z</time>
      </trkpt>
      <trkpt lat="45.24015" lon="6.28885">
        <ele>1127</ele>
        <time>2013-08-11T09:23:54Z</time>
      </trkpt>
      <trkpt lat="45.24027" lon="6.28877">
        <ele>1128</ele>
        <time>2013-08-11T09:23:55Z</time>
      </trkpt>
      <trkpt lat="45.24034" lon="6.28867">
        <ele>1128</ele>
        <time>2013-08-11T09:23:57Z</time>
      </trkpt>
      <trkpt lat="45.24042" lon="6.28858">
        <ele>1128</ele>
        <time>2013-08-11T09:24:01Z</time>
      </trkpt>
      <trkpt lat="45.24049" lon="6.28873">
        <ele>1127</ele>
        <time>2013-08-11T09:24:09Z</time>
      </trkpt>
      <trkpt lat="45.24066" lon="6.28882">
        <ele>1126</ele>
        <time>2013-08-11T09:24:10Z</time>
      </trkpt>
      <trkpt lat="45.24081" lon="6.28902">
        <ele>1123</ele>
        <time>2013-08-11T09:24:14Z</time>
      </trkpt>
      <trkpt lat="45.24093" lon="6.28911">
        <ele>1122</ele>
        <time>2013-08-11T09:24:16Z</time>
      </trkpt>
      <trkpt lat="45.24103" lon="6.28923">
        <ele>1116</ele>
        <time>2013-08-11T09:24:19Z</time>
      </trkpt>
      <trkpt lat="45.24117" lon="6.28935">
        <ele>1115</ele>
        <time>2013-08-11T09:24:21Z</time>
      </trkpt>
      <trkpt lat="45.24128" lon="6.28946">
        <ele>1114</ele>
        <time>2013-08-11T09:24:23Z</time>
      </trkpt>
      <trkpt lat="45.24135" lon="6.28959">
        <ele>1113</ele>
        <time>2013-08-11T09:24:25Z</time>
      </trkpt>
      <trkpt lat="45.24147" lon="6.28972">
        <ele>1113</ele>
        <time>2013-08-11T09:24:27Z</time>
      </trkpt>
      <trkpt lat="45.24158" lon="6.28982">
        <ele>1112</ele>
        <time>2013-08-11T09:24:29Z</time>
      </trkpt>
      <trkpt lat="45.24169" lon="6.2899">
        <ele>1111</ele>
        <time>2013-08-11T09:24:31Z</time>
      </trkpt>
      <trkpt lat="45.24178" lon="6.28993">
        <ele>1112</ele>
        <time>2013-08-11T09:24:36Z</time>
      </trkpt>
      <trkpt lat="45.24189" lon="6.28993">
        <ele>1113</ele>
        <time>2013-08-11T09:24:39Z</time>
      </trkpt>
      <trkpt lat="45.242" lon="6.28982">
        <ele>1114</ele>
        <time>2013-08-11T09:24:49Z</time>
      </trkpt>
      <trkpt lat="45.24205" lon="6.28971">
        <ele>1115</ele>
        <time>2013-08-11T09:24:55Z</time>
      </trkpt>
      <trkpt lat="45.24213" lon="6.28964">
        <ele>1116</ele>
        <time>2013-08-11T09:24:58Z</time>
      </trkpt>
      <trkpt lat="45.24224" lon="6.28956">
        <ele>1117</ele>
        <time>2013-08-11T09:25:06Z</time>
      </trkpt>
      <trkpt lat="45.2423" lon="6.28966">
        <ele>1116</ele>
        <time>2013-08-11T09:25:09Z</time>
      </trkpt>
      <trkpt lat="45.24238" lon="6.28977">
        <ele>1115</ele>
        <time>2013-08-11T09:25:13Z</time>
      </trkpt>
      <trkpt lat="45.24246" lon="6.28985">
        <ele>1115</ele>
        <time>2013-08-11T09:25:16Z</time>
      </trkpt>
      <trkpt lat="45.24252" lon="6.28996">
        <ele>1115</ele>
        <time>2013-08-11T09:25:19Z</time>
      </trkpt>
      <trkpt lat="45.24257" lon="6.29008">
        <ele>1114</ele>
        <time>2013-08-11T09:25:21Z</time>
      </trkpt>
      <trkpt lat="45.24262" lon="6.2902">
        <ele>1115</ele>
        <time>2013-08-11T09:25:23Z</time>
      </trkpt>
      <trkpt lat="45.24269" lon="6.29032">
        <ele>1115</ele>
        <time>2013-08-11T09:25:25Z</time>
      </trkpt>
      <trkpt lat="45.24281" lon="6.29043">
        <ele>1115</ele>
        <time>2013-08-11T09:25:27Z</time>
      </trkpt>
      <trkpt lat="45.2429" lon="6.2905">
        <ele>1116</ele>
        <time>2013-08-11T09:25:29Z</time>
      </trkpt>
      <trkpt lat="45.243" lon="6.29055">
        <ele>1116</ele>
        <time>2013-08-11T09:25:32Z</time>
      </trkpt>
      <trkpt lat="45.24309" lon="6.29061">
        <ele>1116</ele>
        <time>2013-08-11T09:25:36Z</time>
      </trkpt>
      <trkpt lat="45.24321" lon="6.29068">
        <ele>1116</ele>
        <time>2013-08-11T09:25:39Z</time>
      </trkpt>
      <trkpt lat="45.24331" lon="6.2907">
        <ele>1116</ele>
        <time>2013-08-11T09:25:44Z</time>
      </trkpt>
      <trkpt lat="45.2434" lon="6.29066">
        <ele>1121</ele>
        <time>2013-08-11T09:26:17Z</time>
      </trkpt>
      <trkpt lat="45.24349" lon="6.29072">
        <ele>1121</ele>
        <time>2013-08-11T09:26:22Z</time>
      </trkpt>
      <trkpt lat="45.24358" lon="6.29078">
        <ele>1122</ele>
        <time>2013-08-11T09:26:28Z</time>
      </trkpt>
      <trkpt lat="45.2437" lon="6.29088">
        <ele>1118</ele>
        <time>2013-08-11T09:26:32Z</time>
      </trkpt>
      <trkpt lat="45.24384" lon="6.29101">
        <ele>1118</ele>
        <time>2013-08-11T09:26:36Z</time>
      </trkpt>
      <trkpt lat="45.24397" lon="6.29105">
        <ele>1119</ele>
        <time>2013-08-11T09:26:39Z</time>
      </trkpt>
      <trkpt lat="45.24406" lon="6.29101">
        <ele>1120</ele>
        <time>2013-08-11T09:26:44Z</time>
      </trkpt>
      <trkpt lat="45.24416" lon="6.29096">
        <ele>1122</ele>
        <time>2013-08-11T09:26:49Z</time>
      </trkpt>
      <trkpt lat="45.24424" lon="6.29087">
        <ele>1127</ele>
        <time>2013-08-11T09:26:54Z</time>
      </trkpt>
      <trkpt lat="45.24434" lon="6.29081">
        <ele>1131</ele>
        <time>2013-08-11T09:27:01Z</time>
      </trkpt>
      <trkpt lat="45.24445" lon="6.2908">
        <ele>1133</ele>
        <time>2013-08-11T09:27:05Z</time>
      </trkpt>
      <trkpt lat="45.24457" lon="6.29085">
        <ele>1131</ele>
        <time>2013-08-11T09:27:10Z</time>
      </trkpt>
      <trkpt lat="45.24467" lon="6.29084">
        <ele>1132</ele>
        <time>2013-08-11T09:27:13Z</time>
      </trkpt>
      <trkpt lat="45.24477" lon="6.29088">
        <ele>1134</ele>
        <time>2013-08-11T09:27:17Z</time>
      </trkpt>
      <trkpt lat="45.24488" lon="6.29089">
        <ele>1135</ele>
        <time>2013-08-11T09:27:20Z</time>
      </trkpt>
      <trkpt lat="45.24495" lon="6.29102">
        <ele>1135</ele>
        <time>2013-08-11T09:27:31Z</time>
      </trkpt>
      <trkpt lat="45.24497" lon="6.29114">
        <ele>1134</ele>
        <time>2013-08-11T09:27:42Z</time>
      </trkpt>
      <trkpt lat="45.24496" lon="6.29129">
        <ele>1135</ele>
        <time>2013-08-11T09:27:53Z</time>
      </trkpt>
      <trkpt lat="45.24498" lon="6.29142">
        <ele>1136</ele>
        <time>2013-08-11T09:28:01Z</time>
      </trkpt>
      <trkpt lat="45.2449" lon="6.2915">
        <ele>1137</ele>
        <time>2013-08-11T09:28:24Z</time>
      </trkpt>
      <trkpt lat="45.24497" lon="6.2916">
        <ele>1140</ele>
        <time>2013-08-11T09:28:36Z</time>
      </trkpt>
      <trkpt lat="45.24498" lon="6.29175">
        <ele>1140</ele>
        <time>2013-08-11T09:29:06Z</time>
      </trkpt>
      <trkpt lat="45.24488" lon="6.29176">
        <ele>1138</ele>
        <time>2013-08-11T09:29:26Z</time>
      </trkpt>
      <trkpt lat="45.24479" lon="6.29182">
        <ele>1136</ele>
        <time>2013-08-11T09:29:35Z</time>
      </trkpt>
      <trkpt lat="45.24472" lon="6.29194">
        <ele>1135</ele>
        <time>2013-08-11T09:29:54Z</time>
      </trkpt>
      <trkpt lat="45.24469" lon="6.29206">
        <ele>1135</ele>
        <time>2013-08-11T09:30:23Z</time>
      </trkpt>
      <trkpt lat="45.24464" lon="6.29219">
        <ele>1134</ele>
        <time>2013-08-11T09:30:29Z</time>
      </trkpt>
      <trkpt lat="45.24459" lon="6.29231">
        <ele>1134</ele>
        <time>2013-08-11T09:30:33Z</time>
      </trkpt>
      <trkpt lat="45.24463" lon="6.29243">
        <ele>1135</ele>
        <time>2013-08-11T09:30:40Z</time>
      </trkpt>
      <trkpt lat="45.24469" lon="6.29255">
        <ele>1138</ele>
        <time>2013-08-11T09:30:45Z</time>
      </trkpt>
      <trkpt lat="45.24473" lon="6.29274">
        <ele>1138</ele>
        <time>2013-08-11T09:30:49Z</time>
      </trkpt>
      <trkpt lat="45.24472" lon="6.29294">
        <ele>1138</ele>
        <time>2013-08-11T09:30:51Z</time>
      </trkpt>
      <trkpt lat="45.24471" lon="6.29309">
        <ele>1138</ele>
        <time>2013-08-11T09:30:54Z</time>
      </trkpt>
      <trkpt lat="45.24474" lon="6.29325">
        <ele>1139</ele>
        <time>2013-08-11T09:30:58Z</time>
      </trkpt>
      <trkpt lat="45.24483" lon="6.29331">
        <ele>1143</ele>
        <time>2013-08-11T09:31:01Z</time>
      </trkpt>
      <trkpt lat="45.24486" lon="6.29344">
        <ele>1142</ele>
        <time>2013-08-11T09:31:04Z</time>
      </trkpt>
      <trkpt lat="45.24487" lon="6.29362">
        <ele>1139</ele>
        <time>2013-08-11T09:31:10Z</time>
      </trkpt>
      <trkpt lat="45.24484" lon="6.29375">
        <ele>1137</ele>
        <time>2013-08-11T09:31:13Z</time>
      </trkpt>
      <trkpt lat="45.24489" lon="6.2939">
        <ele>1138</ele>
        <time>2013-08-11T09:31:19Z</time>
      </trkpt>
      <trkpt lat="45.2449" lon="6.29404">
        <ele>1140</ele>
        <time>2013-08-11T09:31:24Z</time>
      </trkpt>
      <trkpt lat="45.24487" lon="6.29416">
        <ele>1140</ele>
        <time>2013-08-11T09:31:32Z</time>
      </trkpt>
      <trkpt lat="45.24478" lon="6.29421">
        <ele>1135</ele>
        <time>2013-08-11T09:32:00Z</time>
      </trkpt>
      <trkpt lat="45.24468" lon="6.29424">
        <ele>1132</ele>
        <time>2013-08-11T09:32:19Z</time>
      </trkpt>
      <trkpt lat="45.24459" lon="6.29433">
        <ele>1129</ele>
        <time>2013-08-11T09:32:25Z</time>
      </trkpt>
      <trkpt lat="45.2446" lon="6.29447">
        <ele>1129</ele>
        <time>2013-08-11T09:32:35Z</time>
      </trkpt>
      <trkpt lat="45.24463" lon="6.29459">
        <ele>1130</ele>
        <time>2013-08-11T09:32:44Z</time>
      </trkpt>
      <trkpt lat="45.24469" lon="6.2947">
        <ele>1130</ele>
        <time>2013-08-11T09:32:55Z</time>
      </trkpt>
      <trkpt lat="45.24472" lon="6.29483">
        <ele>1131</ele>
        <time>2013-08-11T09:33:23Z</time>
      </trkpt>
      <trkpt lat="45.24475" lon="6.29495">
        <ele>1133</ele>
        <time>2013-08-11T09:33:56Z</time>
      </trkpt>
      <trkpt lat="45.24473" lon="6.29508">
        <ele>1131</ele>
        <time>2013-08-11T09:34:21Z</time>
      </trkpt>
      <trkpt lat="45.2448" lon="6.29519">
        <ele>1132</ele>
        <time>2013-08-11T09:34:36Z</time>
      </trkpt>
      <trkpt lat="45.24486" lon="6.2953">
        <ele>1132</ele>
        <time>2013-08-11T09:34:52Z</time>
      </trkpt>
      <trkpt lat="45.24489" lon="6.29542">
        <ele>1131</ele>
        <time>2013-08-11T09:35:02Z</time>
      </trkpt>
      <trkpt lat="45.24489" lon="6.29556">
        <ele>1132</ele>
        <time>2013-08-11T09:35:09Z</time>
      </trkpt>
      <trkpt lat="45.24491" lon="6.2957">
        <ele>1134</ele>
        <time>2013-08-11T09:35:15Z</time>
      </trkpt>
      <trkpt lat="45.24493" lon="6.29584">
        <ele>1136</ele>
        <time>2013-08-11T09:35:22Z</time>
      </trkpt>
      <trkpt lat="45.24491" lon="6.29598">
        <ele>1132</ele>
        <time>2013-08-11T09:35:27Z</time>
      </trkpt>
      <trkpt lat="45.2449" lon="6.29616">
        <ele>1128</ele>
        <time>2013-08-11T09:35:30Z</time>
      </trkpt>
      <trkpt lat="45.24491" lon="6.29632">
        <ele>1127</ele>
        <time>2013-08-11T09:35:32Z</time>
      </trkpt>
      <trkpt lat="45.24495" lon="6.29646">
        <ele>1128</ele>
        <time>2013-08-11T09:35:34Z</time>
      </trkpt>
      <trkpt lat="45.24499" lon="6.29659">
        <ele>1130</ele>
        <time>2013-08-11T09:35:37Z</time>
      </trkpt>
      <trkpt lat="45.24506" lon="6.29671">
        <ele>1136</ele>
        <time>2013-08-11T09:35:42Z</time>
      </trkpt>
      <trkpt lat="45.2451" lon="6.29684">
        <ele>1139</ele>
        <time>2013-08-11T09:35:47Z</time>
      </trkpt>
      <trkpt lat="45.24514" lon="6.29698">
        <ele>1140</ele>
        <time>2013-08-11T09:35:52Z</time>
      </trkpt>
      <trkpt lat="45.24517" lon="6.29714">
        <ele>1140</ele>
        <time>2013-08-11T09:35:57Z</time>
      </trkpt>
      <trkpt lat="45.2452" lon="6.29727">
        <ele>1139</ele>
        <time>2013-08-11T09:36:01Z</time>
      </trkpt>
      <trkpt lat="45.24525" lon="6.29741">
        <ele>1138</ele>
        <time>2013-08-11T09:36:05Z</time>
      </trkpt>
      <trkpt lat="45.24529" lon="6.29752">
        <ele>1137</ele>
        <time>2013-08-11T09:36:08Z</time>
      </trkpt>
      <trkpt lat="45.24537" lon="6.2976">
        <ele>1139</ele>
        <time>2013-08-11T09:36:12Z</time>
      </trkpt>
      <trkpt lat="45.24546" lon="6.29768">
        <ele>1142</ele>
        <time>2013-08-11T09:36:17Z</time>
      </trkpt>
      <trkpt lat="45.2455" lon="6.29784">
        <ele>1142</ele>
        <time>2013-08-11T09:36:23Z</time>
      </trkpt>
      <trkpt lat="45.24548" lon="6.29798">
        <ele>1142</ele>
        <time>2013-08-11T09:36:25Z</time>
      </trkpt>
      <trkpt lat="45.24548" lon="6.29815">
        <ele>1142</ele>
        <time>2013-08-11T09:36:27Z</time>
      </trkpt>
      <trkpt lat="45.24552" lon="6.29832">
        <ele>1143</ele>
        <time>2013-08-11T09:36:29Z</time>
      </trkpt>
      <trkpt lat="45.24554" lon="6.29847">
        <ele>1146</ele>
        <time>2013-08-11T09:36:32Z</time>
      </trkpt>
      <trkpt lat="45.24552" lon="6.29864">
        <ele>1145</ele>
        <time>2013-08-11T09:36:37Z</time>
      </trkpt>
      <trkpt lat="45.2455" lon="6.29879">
        <ele>1145</ele>
        <time>2013-08-11T09:36:40Z</time>
      </trkpt>
      <trkpt lat="45.24545" lon="6.29895">
        <ele>1145</ele>
        <time>2013-08-11T09:36:43Z</time>
      </trkpt>
      <trkpt lat="45.24542" lon="6.29911">
        <ele>1145</ele>
        <time>2013-08-11T09:36:46Z</time>
      </trkpt>
      <trkpt lat="45.24539" lon="6.29924">
        <ele>1153</ele>
        <time>2013-08-11T09:36:50Z</time>
      </trkpt>
      <trkpt lat="45.24535" lon="6.29936">
        <ele>1153</ele>
        <time>2013-08-11T09:36:55Z</time>
      </trkpt>
      <trkpt lat="45.24526" lon="6.29945">
        <ele>1153</ele>
        <time>2013-08-11T09:37:02Z</time>
      </trkpt>
      <trkpt lat="45.2452" lon="6.29957">
        <ele>1154</ele>
        <time>2013-08-11T09:37:09Z</time>
      </trkpt>
      <trkpt lat="45.24513" lon="6.29966">
        <ele>1155</ele>
        <time>2013-08-11T09:37:14Z</time>
      </trkpt>
      <trkpt lat="45.24503" lon="6.29971">
        <ele>1155</ele>
        <time>2013-08-11T09:37:20Z</time>
      </trkpt>
      <trkpt lat="45.24496" lon="6.2998">
        <ele>1143</ele>
        <time>2013-08-11T09:37:25Z</time>
      </trkpt>
      <trkpt lat="45.24487" lon="6.29989">
        <ele>1144</ele>
        <time>2013-08-11T09:37:30Z</time>
      </trkpt>
      <trkpt lat="45.24479" lon="6.29995">
        <ele>1142</ele>
        <time>2013-08-11T09:37:34Z</time>
      </trkpt>
      <trkpt lat="45.2447" lon="6.30001">
        <ele>1149</ele>
        <time>2013-08-11T09:37:38Z</time>
      </trkpt>
      <trkpt lat="45.24462" lon="6.30008">
        <ele>1147</ele>
        <time>2013-08-11T09:37:42Z</time>
      </trkpt>
      <trkpt lat="45.24453" lon="6.30016">
        <ele>1145</ele>
        <time>2013-08-11T09:37:46Z</time>
      </trkpt>
      <trkpt lat="45.24451" lon="6.30031">
        <ele>1145</ele>
        <time>2013-08-11T09:37:52Z</time>
      </trkpt>
      <trkpt lat="45.24458" lon="6.3004">
        <ele>1146</ele>
        <time>2013-08-11T09:37:58Z</time>
      </trkpt>
      <trkpt lat="45.24465" lon="6.3005">
        <ele>1147</ele>
        <time>2013-08-11T09:38:06Z</time>
      </trkpt>
      <trkpt lat="45.24469" lon="6.30062">
        <ele>1148</ele>
        <time>2013-08-11T09:38:13Z</time>
      </trkpt>
      <trkpt lat="45.24475" lon="6.30076">
        <ele>1150</ele>
        <time>2013-08-11T09:38:19Z</time>
      </trkpt>
      <trkpt lat="45.24482" lon="6.30084">
        <ele>1154</ele>
        <time>2013-08-11T09:38:23Z</time>
      </trkpt>
      <trkpt lat="45.24491" lon="6.30089">
        <ele>1156</ele>
        <time>2013-08-11T09:38:27Z</time>
      </trkpt>
      <trkpt lat="45.24502" lon="6.30091">
        <ele>1161</ele>
        <time>2013-08-11T09:38:32Z</time>
      </trkpt>
      <trkpt lat="45.24511" lon="6.3009">
        <ele>1162</ele>
        <time>2013-08-11T09:38:37Z</time>
      </trkpt>
      <trkpt lat="45.24521" lon="6.30088">
        <ele>1163</ele>
        <time>2013-08-11T09:38:42Z</time>
      </trkpt>
      <trkpt lat="45.24529" lon="6.30081">
        <ele>1164</ele>
        <time>2013-08-11T09:38:48Z</time>
      </trkpt>
      <trkpt lat="45.24534" lon="6.30069">
        <ele>1165</ele>
        <time>2013-08-11T09:38:53Z</time>
      </trkpt>
      <trkpt lat="45.24541" lon="6.30059">
        <ele>1166</ele>
        <time>2013-08-11T09:39:02Z</time>
      </trkpt>
      <trkpt lat="45.24548" lon="6.30048">
        <ele>1166</ele>
        <time>2013-08-11T09:39:07Z</time>
      </trkpt>
      <trkpt lat="45.24555" lon="6.30038">
        <ele>1167</ele>
        <time>2013-08-11T09:39:12Z</time>
      </trkpt>
      <trkpt lat="45.24564" lon="6.30031">
        <ele>1168</ele>
        <time>2013-08-11T09:39:17Z</time>
      </trkpt>
      <trkpt lat="45.24573" lon="6.30027">
        <ele>1169</ele>
        <time>2013-08-11T09:39:23Z</time>
      </trkpt>
      <trkpt lat="45.24583" lon="6.30029">
        <ele>1169</ele>
        <time>2013-08-11T09:39:31Z</time>
      </trkpt>
      <trkpt lat="45.24594" lon="6.30031">
        <ele>1179</ele>
        <time>2013-08-11T09:39:37Z</time>
      </trkpt>
      <trkpt lat="45.24604" lon="6.30033">
        <ele>1180</ele>
        <time>2013-08-11T09:39:43Z</time>
      </trkpt>
      <trkpt lat="45.24613" lon="6.3004">
        <ele>1181</ele>
        <time>2013-08-11T09:39:48Z</time>
      </trkpt>
      <trkpt lat="45.24623" lon="6.3004">
        <ele>1182</ele>
        <time>2013-08-11T09:39:53Z</time>
      </trkpt>
      <trkpt lat="45.24633" lon="6.30042">
        <ele>1183</ele>
        <time>2013-08-11T09:39:59Z</time>
      </trkpt>
      <trkpt lat="45.24643" lon="6.3004">
        <ele>1184</ele>
        <time>2013-08-11T09:40:04Z</time>
      </trkpt>
      <trkpt lat="45.24654" lon="6.3004">
        <ele>1185</ele>
        <time>2013-08-11T09:40:09Z</time>
      </trkpt>
      <trkpt lat="45.24661" lon="6.30048">
        <ele>1185</ele>
        <time>2013-08-11T09:40:14Z</time>
      </trkpt>
      <trkpt lat="45.2467" lon="6.30055">
        <ele>1193</ele>
        <time>2013-08-11T09:40:20Z</time>
      </trkpt>
      <trkpt lat="45.24675" lon="6.30069">
        <ele>1190</ele>
        <time>2013-08-11T09:40:26Z</time>
      </trkpt>
      <trkpt lat="45.24682" lon="6.30077">
        <ele>1190</ele>
        <time>2013-08-11T09:40:31Z</time>
      </trkpt>
      <trkpt lat="45.24691" lon="6.3009">
        <ele>1185</ele>
        <time>2013-08-11T09:40:36Z</time>
      </trkpt>
      <trkpt lat="45.247" lon="6.30095">
        <ele>1185</ele>
        <time>2013-08-11T09:40:40Z</time>
      </trkpt>
      <trkpt lat="45.2471" lon="6.30103">
        <ele>1185</ele>
        <time>2013-08-11T09:40:44Z</time>
      </trkpt>
      <trkpt lat="45.24718" lon="6.30117">
        <ele>1184</ele>
        <time>2013-08-11T09:40:47Z</time>
      </trkpt>
      <trkpt lat="45.24725" lon="6.3013">
        <ele>1183</ele>
        <time>2013-08-11T09:40:50Z</time>
      </trkpt>
      <trkpt lat="45.24728" lon="6.30144">
        <ele>1182</ele>
        <time>2013-08-11T09:40:53Z</time>
      </trkpt>
      <trkpt lat="45.24734" lon="6.3016">
        <ele>1180</ele>
        <time>2013-08-11T09:40:56Z</time>
      </trkpt>
      <trkpt lat="45.24737" lon="6.30177">
        <ele>1176</ele>
        <time>2013-08-11T09:40:58Z</time>
      </trkpt>
      <trkpt lat="45.24743" lon="6.30196">
        <ele>1175</ele>
        <time>2013-08-11T09:41:00Z</time>
      </trkpt>
      <trkpt lat="45.24748" lon="6.30215">
        <ele>1174</ele>
        <time>2013-08-11T09:41:02Z</time>
      </trkpt>
      <trkpt lat="45.24751" lon="6.30233">
        <ele>1166</ele>
        <time>2013-08-11T09:41:04Z</time>
      </trkpt>
      <trkpt lat="45.24756" lon="6.30253">
        <ele>1164</ele>
        <time>2013-08-11T09:41:06Z</time>
      </trkpt>
      <trkpt lat="45.24761" lon="6.30276">
        <ele>1161</ele>
        <time>2013-08-11T09:41:08Z</time>
      </trkpt>
      <trkpt lat="45.24764" lon="6.30289">
        <ele>1161</ele>
        <time>2013-08-11T09:41:09Z</time>
      </trkpt>
      <trkpt lat="45.24767" lon="6.30302">
        <ele>1160</ele>
        <time>2013-08-11T09:41:10Z</time>
      </trkpt>
      <trkpt lat="45.2477" lon="6.30315">
        <ele>1160</ele>
        <time>2013-08-11T09:41:11Z</time>
      </trkpt>
      <trkpt lat="45.24775" lon="6.30335">
        <ele>1156</ele>
        <time>2013-08-11T09:41:13Z</time>
      </trkpt>
      <trkpt lat="45.24781" lon="6.30349">
        <ele>1155</ele>
        <time>2013-08-11T09:41:15Z</time>
      </trkpt>
      <trkpt lat="45.24788" lon="6.3036">
        <ele>1154</ele>
        <time>2013-08-11T09:41:17Z</time>
      </trkpt>
      <trkpt lat="45.24798" lon="6.30369">
        <ele>1153</ele>
        <time>2013-08-11T09:41:20Z</time>
      </trkpt>
      <trkpt lat="45.24809" lon="6.30376">
        <ele>1153</ele>
        <time>2013-08-11T09:41:22Z</time>
      </trkpt>
      <trkpt lat="45.24822" lon="6.30373">
        <ele>1153</ele>
        <time>2013-08-11T09:41:24Z</time>
      </trkpt>
      <trkpt lat="45.24834" lon="6.30372">
        <ele>1153</ele>
        <time>2013-08-11T09:41:26Z</time>
      </trkpt>
      <trkpt lat="45.24844" lon="6.30373">
        <ele>1154</ele>
        <time>2013-08-11T09:41:28Z</time>
      </trkpt>
      <trkpt lat="45.24851" lon="6.30388">
        <ele>1153</ele>
        <time>2013-08-11T09:41:31Z</time>
      </trkpt>
      <trkpt lat="45.24854" lon="6.30404">
        <ele>1152</ele>
        <time>2013-08-11T09:41:33Z</time>
      </trkpt>
      <trkpt lat="45.24861" lon="6.30421">
        <ele>1144</ele>
        <time>2013-08-11T09:41:35Z</time>
      </trkpt>
      <trkpt lat="45.24871" lon="6.30431">
        <ele>1144</ele>
        <time>2013-08-11T09:41:37Z</time>
      </trkpt>
      <trkpt lat="45.24885" lon="6.30441">
        <ele>1144</ele>
        <time>2013-08-11T09:41:39Z</time>
      </trkpt>
      <trkpt lat="45.24901" lon="6.3045">
        <ele>1143</ele>
        <time>2013-08-11T09:41:41Z</time>
      </trkpt>
      <trkpt lat="45.2491" lon="6.30455">
        <ele>1142</ele>
        <time>2013-08-11T09:41:42Z</time>
      </trkpt>
      <trkpt lat="45.24918" lon="6.30459">
        <ele>1144</ele>
        <time>2013-08-11T09:41:43Z</time>
      </trkpt>
      <trkpt lat="45.24927" lon="6.30463">
        <ele>1143</ele>
        <time>2013-08-11T09:41:44Z</time>
      </trkpt>
      <trkpt lat="45.24936" lon="6.30467">
        <ele>1143</ele>
        <time>2013-08-11T09:41:45Z</time>
      </trkpt>
      <trkpt lat="45.24945" lon="6.30472">
        <ele>1143</ele>
        <time>2013-08-11T09:41:46Z</time>
      </trkpt>
      <trkpt lat="45.24955" lon="6.30476">
        <ele>1143</ele>
        <time>2013-08-11T09:41:47Z</time>
      </trkpt>
      <trkpt lat="45.24963" lon="6.30481">
        <ele>1142</ele>
        <time>2013-08-11T09:41:48Z</time>
      </trkpt>
      <trkpt lat="45.24972" lon="6.30486">
        <ele>1142</ele>
        <time>2013-08-11T09:41:49Z</time>
      </trkpt>
      <trkpt lat="45.24989" lon="6.30494">
        <ele>1140</ele>
        <time>2013-08-11T09:41:51Z</time>
      </trkpt>
      <trkpt lat="45.25005" lon="6.30501">
        <ele>1134</ele>
        <time>2013-08-11T09:41:53Z</time>
      </trkpt>
      <trkpt lat="45.25019" lon="6.30506">
        <ele>1131</ele>
        <time>2013-08-11T09:41:55Z</time>
      </trkpt>
      <trkpt lat="45.25031" lon="6.30509">
        <ele>1130</ele>
        <time>2013-08-11T09:41:57Z</time>
      </trkpt>
      <trkpt lat="45.2504" lon="6.30507">
        <ele>1130</ele>
        <time>2013-08-11T09:42:00Z</time>
      </trkpt>
      <trkpt lat="45.2505" lon="6.3051">
        <ele>1131</ele>
        <time>2013-08-11T09:42:06Z</time>
      </trkpt>
      <trkpt lat="45.2506" lon="6.3051">
        <ele>1133</ele>
        <time>2013-08-11T09:42:11Z</time>
      </trkpt>
      <trkpt lat="45.25069" lon="6.30512">
        <ele>1134</ele>
        <time>2013-08-11T09:42:17Z</time>
      </trkpt>
      <trkpt lat="45.25079" lon="6.30511">
        <ele>1137</ele>
        <time>2013-08-11T09:42:23Z</time>
      </trkpt>
      <trkpt lat="45.25088" lon="6.30504">
        <ele>1142</ele>
        <time>2013-08-11T09:42:31Z</time>
      </trkpt>
      <trkpt lat="45.25097" lon="6.30502">
        <ele>1140</ele>
        <time>2013-08-11T09:42:37Z</time>
      </trkpt>
      <trkpt lat="45.25111" lon="6.30501">
        <ele>1139</ele>
        <time>2013-08-11T09:42:41Z</time>
      </trkpt>
      <trkpt lat="45.25119" lon="6.30508">
        <ele>1139</ele>
        <time>2013-08-11T09:42:43Z</time>
      </trkpt>
      <trkpt lat="45.25127" lon="6.30516">
        <ele>1139</ele>
        <time>2013-08-11T09:42:48Z</time>
      </trkpt>
      <trkpt lat="45.25137" lon="6.30517">
        <ele>1140</ele>
        <time>2013-08-11T09:42:52Z</time>
      </trkpt>
      <trkpt lat="45.25146" lon="6.3052">
        <ele>1141</ele>
        <time>2013-08-11T09:42:56Z</time>
      </trkpt>
      <trkpt lat="45.25156" lon="6.30521">
        <ele>1142</ele>
        <time>2013-08-11T09:43:00Z</time>
      </trkpt>
      <trkpt lat="45.25165" lon="6.30524">
        <ele>1142</ele>
        <time>2013-08-11T09:43:05Z</time>
      </trkpt>
      <trkpt lat="45.25177" lon="6.30523">
        <ele>1150</ele>
        <time>2013-08-11T09:43:11Z</time>
      </trkpt>
      <trkpt lat="45.25187" lon="6.30524">
        <ele>1150</ele>
        <time>2013-08-11T09:43:17Z</time>
      </trkpt>
      <trkpt lat="45.25198" lon="6.30523">
        <ele>1150</ele>
        <time>2013-08-11T09:43:25Z</time>
      </trkpt>
      <trkpt lat="45.25206" lon="6.30534">
        <ele>1149</ele>
        <time>2013-08-11T09:43:30Z</time>
      </trkpt>
      <trkpt lat="45.2521" lon="6.30547">
        <ele>1147</ele>
        <time>2013-08-11T09:43:38Z</time>
      </trkpt>
      <trkpt lat="45.25217" lon="6.30555">
        <ele>1147</ele>
        <time>2013-08-11T09:43:43Z</time>
      </trkpt>
      <trkpt lat="45.25226" lon="6.30564">
        <ele>1146</ele>
        <time>2013-08-11T09:43:49Z</time>
      </trkpt>
      <trkpt lat="45.25236" lon="6.30572">
        <ele>1145</ele>
        <time>2013-08-11T09:43:55Z</time>
      </trkpt>
      <trkpt lat="45.25246" lon="6.30575">
        <ele>1144</ele>
        <time>2013-08-11T09:44:00Z</time>
      </trkpt>
      <trkpt lat="45.25256" lon="6.30579">
        <ele>1148</ele>
        <time>2013-08-11T09:44:05Z</time>
      </trkpt>
      <trkpt lat="45.25266" lon="6.30581">
        <ele>1154</ele>
        <time>2013-08-11T09:44:10Z</time>
      </trkpt>
      <trkpt lat="45.25276" lon="6.30577">
        <ele>1158</ele>
        <time>2013-08-11T09:44:14Z</time>
      </trkpt>
      <trkpt lat="45.2529" lon="6.30579">
        <ele>1161</ele>
        <time>2013-08-11T09:44:18Z</time>
      </trkpt>
      <trkpt lat="45.253" lon="6.30583">
        <ele>1162</ele>
        <time>2013-08-11T09:44:21Z</time>
      </trkpt>
      <trkpt lat="45.25308" lon="6.30591">
        <ele>1147</ele>
        <time>2013-08-11T09:44:25Z</time>
      </trkpt>
      <trkpt lat="45.25318" lon="6.30597">
        <ele>1149</ele>
        <time>2013-08-11T09:44:30Z</time>
      </trkpt>
      <trkpt lat="45.25328" lon="6.30603">
        <ele>1149</ele>
        <time>2013-08-11T09:44:36Z</time>
      </trkpt>
      <trkpt lat="45.25336" lon="6.30612">
        <ele>1161</ele>
        <time>2013-08-11T09:44:42Z</time>
      </trkpt>
      <trkpt lat="45.25344" lon="6.30621">
        <ele>1160</ele>
        <time>2013-08-11T09:44:49Z</time>
      </trkpt>
      <trkpt lat="45.25351" lon="6.30632">
        <ele>1158</ele>
        <time>2013-08-11T09:44:56Z</time>
      </trkpt>
      <trkpt lat="45.25361" lon="6.30637">
        <ele>1159</ele>
        <time>2013-08-11T09:45:04Z</time>
      </trkpt>
      <trkpt lat="45.25371" lon="6.30638">
        <ele>1161</ele>
        <time>2013-08-11T09:45:14Z</time>
      </trkpt>
      <trkpt lat="45.25384" lon="6.30637">
        <ele>1164</ele>
        <time>2013-08-11T09:45:22Z</time>
      </trkpt>
      <trkpt lat="45.25394" lon="6.30641">
        <ele>1164</ele>
        <time>2013-08-11T09:45:32Z</time>
      </trkpt>
      <trkpt lat="45.25401" lon="6.3065">
        <ele>1164</ele>
        <time>2013-08-11T09:45:40Z</time>
      </trkpt>
      <trkpt lat="45.25408" lon="6.30658">
        <ele>1164</ele>
        <time>2013-08-11T09:45:49Z</time>
      </trkpt>
      <trkpt lat="45.25416" lon="6.30668">
        <ele>1162</ele>
        <time>2013-08-11T09:45:58Z</time>
      </trkpt>
      <trkpt lat="45.25427" lon="6.30669">
        <ele>1164</ele>
        <time>2013-08-11T09:46:05Z</time>
      </trkpt>
      <trkpt lat="45.25436" lon="6.30669">
        <ele>1165</ele>
        <time>2013-08-11T09:46:13Z</time>
      </trkpt>
      <trkpt lat="45.25448" lon="6.30665">
        <ele>1186</ele>
        <time>2013-08-11T09:46:24Z</time>
      </trkpt>
      <trkpt lat="45.25458" lon="6.30666">
        <ele>1189</ele>
        <time>2013-08-11T09:46:31Z</time>
      </trkpt>
      <trkpt lat="45.25467" lon="6.30671">
        <ele>1172</ele>
        <time>2013-08-11T09:46:41Z</time>
      </trkpt>
      <trkpt lat="45.25472" lon="6.30682">
        <ele>1172</ele>
        <time>2013-08-11T09:46:51Z</time>
      </trkpt>
      <trkpt lat="45.25477" lon="6.30695">
        <ele>1170</ele>
        <time>2013-08-11T09:46:59Z</time>
      </trkpt>
      <trkpt lat="45.25487" lon="6.30697">
        <ele>1172</ele>
        <time>2013-08-11T09:47:03Z</time>
      </trkpt>
      <trkpt lat="45.25496" lon="6.30701">
        <ele>1172</ele>
        <time>2013-08-11T09:47:09Z</time>
      </trkpt>
      <trkpt lat="45.25505" lon="6.30705">
        <ele>1190</ele>
        <time>2013-08-11T09:47:15Z</time>
      </trkpt>
      <trkpt lat="45.25514" lon="6.30711">
        <ele>1190</ele>
        <time>2013-08-11T09:47:20Z</time>
      </trkpt>
      <trkpt lat="45.25522" lon="6.30718">
        <ele>1189</ele>
        <time>2013-08-11T09:47:24Z</time>
      </trkpt>
      <trkpt lat="45.2553" lon="6.30728">
        <ele>1189</ele>
        <time>2013-08-11T09:47:30Z</time>
      </trkpt>
      <trkpt lat="45.25537" lon="6.30739">
        <ele>1189</ele>
        <time>2013-08-11T09:47:34Z</time>
      </trkpt>
      <trkpt lat="45.25544" lon="6.30751">
        <ele>1172</ele>
        <time>2013-08-11T09:47:38Z</time>
      </trkpt>
      <trkpt lat="45.25552" lon="6.30761">
        <ele>1173</ele>
        <time>2013-08-11T09:47:45Z</time>
      </trkpt>
      <trkpt lat="45.25558" lon="6.30776">
        <ele>1172</ele>
        <time>2013-08-11T09:47:50Z</time>
      </trkpt>
      <trkpt lat="45.25564" lon="6.30792">
        <ele>1170</ele>
        <time>2013-08-11T09:47:56Z</time>
      </trkpt>
      <trkpt lat="45.25573" lon="6.30796">
        <ele>1170</ele>
        <time>2013-08-11T09:47:59Z</time>
      </trkpt>
      <trkpt lat="45.25581" lon="6.30806">
        <ele>1169</ele>
        <time>2013-08-11T09:48:03Z</time>
      </trkpt>
      <trkpt lat="45.25592" lon="6.30811">
        <ele>1183</ele>
        <time>2013-08-11T09:48:07Z</time>
      </trkpt>
      <trkpt lat="45.25604" lon="6.30814">
        <ele>1185</ele>
        <time>2013-08-11T09:48:12Z</time>
      </trkpt>
      <trkpt lat="45.25613" lon="6.30821">
        <ele>1186</ele>
        <time>2013-08-11T09:48:15Z</time>
      </trkpt>
      <trkpt lat="45.25622" lon="6.3083">
        <ele>1187</ele>
        <time>2013-08-11T09:48:20Z</time>
      </trkpt>
      <trkpt lat="45.25631" lon="6.30836">
        <ele>1172</ele>
        <time>2013-08-11T09:48:25Z</time>
      </trkpt>
      <trkpt lat="45.25639" lon="6.30845">
        <ele>1174</ele>
        <time>2013-08-11T09:48:31Z</time>
      </trkpt>
      <trkpt lat="45.25646" lon="6.30855">
        <ele>1173</ele>
        <time>2013-08-11T09:48:36Z</time>
      </trkpt>
      <trkpt lat="45.25652" lon="6.3087">
        <ele>1171</ele>
        <time>2013-08-11T09:48:40Z</time>
      </trkpt>
      <trkpt lat="45.2566" lon="6.30878">
        <ele>1170</ele>
        <time>2013-08-11T09:48:43Z</time>
      </trkpt>
      <trkpt lat="45.25668" lon="6.30885">
        <ele>1180</ele>
        <time>2013-08-11T09:48:46Z</time>
      </trkpt>
      <trkpt lat="45.25679" lon="6.30885">
        <ele>1180</ele>
        <time>2013-08-11T09:48:51Z</time>
      </trkpt>
      <trkpt lat="45.25687" lon="6.3089">
        <ele>1180</ele>
        <time>2013-08-11T09:48:55Z</time>
      </trkpt>
      <trkpt lat="45.25698" lon="6.30891">
        <ele>1181</ele>
        <time>2013-08-11T09:49:00Z</time>
      </trkpt>
      <trkpt lat="45.25708" lon="6.30887">
        <ele>1182</ele>
        <time>2013-08-11T09:49:05Z</time>
      </trkpt>
      <trkpt lat="45.25717" lon="6.30882">
        <ele>1183</ele>
        <time>2013-08-11T09:49:11Z</time>
      </trkpt>
      <trkpt lat="45.25726" lon="6.30883">
        <ele>1184</ele>
        <time>2013-08-11T09:49:24Z</time>
      </trkpt>
      <trkpt lat="45.25736" lon="6.30888">
        <ele>1183</ele>
        <time>2013-08-11T09:49:31Z</time>
      </trkpt>
      <trkpt lat="45.25745" lon="6.30889">
        <ele>1183</ele>
        <time>2013-08-11T09:49:37Z</time>
      </trkpt>
      <trkpt lat="45.25754" lon="6.30894">
        <ele>1184</ele>
        <time>2013-08-11T09:49:45Z</time>
      </trkpt>
      <trkpt lat="45.25762" lon="6.30904">
        <ele>1182</ele>
        <time>2013-08-11T09:49:50Z</time>
      </trkpt>
      <trkpt lat="45.25772" lon="6.30901">
        <ele>1184</ele>
        <time>2013-08-11T09:49:54Z</time>
      </trkpt>
      <trkpt lat="45.25781" lon="6.30897">
        <ele>1186</ele>
        <time>2013-08-11T09:49:58Z</time>
      </trkpt>
      <trkpt lat="45.25791" lon="6.3089">
        <ele>1187</ele>
        <time>2013-08-11T09:50:03Z</time>
      </trkpt>
      <trkpt lat="45.258" lon="6.30881">
        <ele>1188</ele>
        <time>2013-08-11T09:50:08Z</time>
      </trkpt>
      <trkpt lat="45.25806" lon="6.30872">
        <ele>1189</ele>
        <time>2013-08-11T09:50:14Z</time>
      </trkpt>
      <trkpt lat="45.25814" lon="6.30863">
        <ele>1191</ele>
        <time>2013-08-11T09:50:19Z</time>
      </trkpt>
      <trkpt lat="45.25822" lon="6.30855">
        <ele>1192</ele>
        <time>2013-08-11T09:50:29Z</time>
      </trkpt>
      <trkpt lat="45.25831" lon="6.30851">
        <ele>1194</ele>
        <time>2013-08-11T09:50:36Z</time>
      </trkpt>
      <trkpt lat="45.25842" lon="6.30854">
        <ele>1196</ele>
        <time>2013-08-11T09:50:49Z</time>
      </trkpt>
      <trkpt lat="45.25852" lon="6.30857">
        <ele>1196</ele>
        <time>2013-08-11T09:50:52Z</time>
      </trkpt>
      <trkpt lat="45.25861" lon="6.30865">
        <ele>1195</ele>
        <time>2013-08-11T09:50:56Z</time>
      </trkpt>
      <trkpt lat="45.2587" lon="6.3087">
        <ele>1195</ele>
        <time>2013-08-11T09:51:01Z</time>
      </trkpt>
      <trkpt lat="45.2588" lon="6.30875">
        <ele>1196</ele>
        <time>2013-08-11T09:51:06Z</time>
      </trkpt>
      <trkpt lat="45.25889" lon="6.30879">
        <ele>1196</ele>
        <time>2013-08-11T09:51:12Z</time>
      </trkpt>
      <trkpt lat="45.259" lon="6.30881">
        <ele>1196</ele>
        <time>2013-08-11T09:51:19Z</time>
      </trkpt>
      <trkpt lat="45.25908" lon="6.30892">
        <ele>1195</ele>
        <time>2013-08-11T09:51:26Z</time>
      </trkpt>
      <trkpt lat="45.25914" lon="6.30903">
        <ele>1194</ele>
        <time>2013-08-11T09:51:31Z</time>
      </trkpt>
      <trkpt lat="45.25923" lon="6.30912">
        <ele>1199</ele>
        <time>2013-08-11T09:51:39Z</time>
      </trkpt>
      <trkpt lat="45.25931" lon="6.30923">
        <ele>1198</ele>
        <time>2013-08-11T09:51:44Z</time>
      </trkpt>
      <trkpt lat="45.25939" lon="6.30933">
        <ele>1201</ele>
        <time>2013-08-11T09:51:49Z</time>
      </trkpt>
      <trkpt lat="45.25944" lon="6.30945">
        <ele>1202</ele>
        <time>2013-08-11T09:51:55Z</time>
      </trkpt>
      <trkpt lat="45.25949" lon="6.30957">
        <ele>1202</ele>
        <time>2013-08-11T09:51:59Z</time>
      </trkpt>
      <trkpt lat="45.25955" lon="6.30969">
        <ele>1203</ele>
        <time>2013-08-11T09:52:05Z</time>
      </trkpt>
      <trkpt lat="45.25957" lon="6.30983">
        <ele>1202</ele>
        <time>2013-08-11T09:52:10Z</time>
      </trkpt>
      <trkpt lat="45.25959" lon="6.30996">
        <ele>1202</ele>
        <time>2013-08-11T09:52:15Z</time>
      </trkpt>
      <trkpt lat="45.25964" lon="6.3101">
        <ele>1196</ele>
        <time>2013-08-11T09:52:22Z</time>
      </trkpt>
      <trkpt lat="45.25968" lon="6.31023">
        <ele>1196</ele>
        <time>2013-08-11T09:52:29Z</time>
      </trkpt>
      <trkpt lat="45.25975" lon="6.31032">
        <ele>1196</ele>
        <time>2013-08-11T09:52:35Z</time>
      </trkpt>
      <trkpt lat="45.25982" lon="6.31045">
        <ele>1196</ele>
        <time>2013-08-11T09:52:40Z</time>
      </trkpt>
      <trkpt lat="45.25991" lon="6.31051">
        <ele>1197</ele>
        <time>2013-08-11T09:52:45Z</time>
      </trkpt>
      <trkpt lat="45.26001" lon="6.31058">
        <ele>1215</ele>
        <time>2013-08-11T09:52:51Z</time>
      </trkpt>
      <trkpt lat="45.2601" lon="6.3106">
        <ele>1216</ele>
        <time>2013-08-11T09:52:56Z</time>
      </trkpt>
      <trkpt lat="45.26021" lon="6.31059">
        <ele>1218</ele>
        <time>2013-08-11T09:53:02Z</time>
      </trkpt>
      <trkpt lat="45.26029" lon="6.31066">
        <ele>1219</ele>
        <time>2013-08-11T09:53:09Z</time>
      </trkpt>
      <trkpt lat="45.2604" lon="6.31066">
        <ele>1222</ele>
        <time>2013-08-11T09:53:14Z</time>
      </trkpt>
      <trkpt lat="45.26034" lon="6.31053">
        <ele>1221</ele>
        <time>2013-08-11T09:53:30Z</time>
      </trkpt>
      <trkpt lat="45.26024" lon="6.31049">
        <ele>1220</ele>
        <time>2013-08-11T09:53:36Z</time>
      </trkpt>
      <trkpt lat="45.26015" lon="6.31045">
        <ele>1219</ele>
        <time>2013-08-11T09:53:41Z</time>
      </trkpt>
      <trkpt lat="45.26005" lon="6.31039">
        <ele>1219</ele>
        <time>2013-08-11T09:53:45Z</time>
      </trkpt>
      <trkpt lat="45.25998" lon="6.3103">
        <ele>1200</ele>
        <time>2013-08-11T09:53:49Z</time>
      </trkpt>
      <trkpt lat="45.25993" lon="6.31016">
        <ele>1204</ele>
        <time>2013-08-11T09:53:53Z</time>
      </trkpt>
      <trkpt lat="45.25992" lon="6.31">
        <ele>1212</ele>
        <time>2013-08-11T09:53:58Z</time>
      </trkpt>
      <trkpt lat="45.25993" lon="6.30985">
        <ele>1210</ele>
        <time>2013-08-11T09:54:04Z</time>
      </trkpt>
      <trkpt lat="45.25995" lon="6.30971">
        <ele>1209</ele>
        <time>2013-08-11T09:54:09Z</time>
      </trkpt>
      <trkpt lat="45.25996" lon="6.30958">
        <ele>1210</ele>
        <time>2013-08-11T09:54:14Z</time>
      </trkpt>
      <trkpt lat="45.25998" lon="6.30943">
        <ele>1213</ele>
        <time>2013-08-11T09:54:20Z</time>
      </trkpt>
      <trkpt lat="45.25999" lon="6.3093">
        <ele>1217</ele>
        <time>2013-08-11T09:54:25Z</time>
      </trkpt>
      <trkpt lat="45.26" lon="6.30916">
        <ele>1226</ele>
        <time>2013-08-11T09:54:31Z</time>
      </trkpt>
      <trkpt lat="45.26001" lon="6.30901">
        <ele>1234</ele>
        <time>2013-08-11T09:54:37Z</time>
      </trkpt>
      <trkpt lat="45.26001" lon="6.30887">
        <ele>1238</ele>
        <time>2013-08-11T09:54:43Z</time>
      </trkpt>
      <trkpt lat="45.26001" lon="6.30873">
        <ele>1240</ele>
        <time>2013-08-11T09:54:49Z</time>
      </trkpt>
      <trkpt lat="45.26001" lon="6.30859">
        <ele>1240</ele>
        <time>2013-08-11T09:54:55Z</time>
      </trkpt>
      <trkpt lat="45.26001" lon="6.30846">
        <ele>1238</ele>
        <time>2013-08-11T09:55:01Z</time>
      </trkpt>
      <trkpt lat="45.26001" lon="6.3083">
        <ele>1236</ele>
        <time>2013-08-11T09:55:08Z</time>
      </trkpt>
      <trkpt lat="45.26001" lon="6.30817">
        <ele>1243</ele>
        <time>2013-08-11T09:55:14Z</time>
      </trkpt>
      <trkpt lat="45.26001" lon="6.30803">
        <ele>1246</ele>
        <time>2013-08-11T09:55:20Z</time>
      </trkpt>
      <trkpt lat="45.26" lon="6.30789">
        <ele>1234</ele>
        <time>2013-08-11T09:55:29Z</time>
      </trkpt>
      <trkpt lat="45.25996" lon="6.30775">
        <ele>1236</ele>
        <time>2013-08-11T09:55:35Z</time>
      </trkpt>
      <trkpt lat="45.25993" lon="6.30763">
        <ele>1239</ele>
        <time>2013-08-11T09:55:45Z</time>
      </trkpt>
      <trkpt lat="45.25989" lon="6.3075">
        <ele>1241</ele>
        <time>2013-08-11T09:55:53Z</time>
      </trkpt>
      <trkpt lat="45.25996" lon="6.30739">
        <ele>1247</ele>
        <time>2013-08-11T09:56:05Z</time>
      </trkpt>
      <trkpt lat="45.26006" lon="6.30741">
        <ele>1253</ele>
        <time>2013-08-11T09:56:12Z</time>
      </trkpt>
      <trkpt lat="45.26014" lon="6.30751">
        <ele>1249</ele>
        <time>2013-08-11T09:56:20Z</time>
      </trkpt>
      <trkpt lat="45.2602" lon="6.30764">
        <ele>1251</ele>
        <time>2013-08-11T09:56:26Z</time>
      </trkpt>
      <trkpt lat="45.26023" lon="6.30776">
        <ele>1251</ele>
        <time>2013-08-11T09:56:34Z</time>
      </trkpt>
      <trkpt lat="45.26026" lon="6.30791">
        <ele>1251</ele>
        <time>2013-08-11T09:56:42Z</time>
      </trkpt>
      <trkpt lat="45.26024" lon="6.30805">
        <ele>1249</ele>
        <time>2013-08-11T09:56:49Z</time>
      </trkpt>
      <trkpt lat="45.26021" lon="6.3082">
        <ele>1246</ele>
        <time>2013-08-11T09:56:56Z</time>
      </trkpt>
      <trkpt lat="45.26022" lon="6.30835">
        <ele>1241</ele>
        <time>2013-08-11T09:57:01Z</time>
      </trkpt>
      <trkpt lat="45.26026" lon="6.30851">
        <ele>1243</ele>
        <time>2013-08-11T09:57:06Z</time>
      </trkpt>
      <trkpt lat="45.26031" lon="6.30865">
        <ele>1244</ele>
        <time>2013-08-11T09:57:10Z</time>
      </trkpt>
      <trkpt lat="45.26037" lon="6.30877">
        <ele>1244</ele>
        <time>2013-08-11T09:57:17Z</time>
      </trkpt>
      <trkpt lat="45.26041" lon="6.3089">
        <ele>1245</ele>
        <time>2013-08-11T09:57:22Z</time>
      </trkpt>
      <trkpt lat="45.26047" lon="6.30903">
        <ele>1246</ele>
        <time>2013-08-11T09:57:26Z</time>
      </trkpt>
      <trkpt lat="45.26051" lon="6.30917">
        <ele>1241</ele>
        <time>2013-08-11T09:57:30Z</time>
      </trkpt>
      <trkpt lat="45.26055" lon="6.30931">
        <ele>1242</ele>
        <time>2013-08-11T09:57:36Z</time>
      </trkpt>
      <trkpt lat="45.26064" lon="6.30939">
        <ele>1243</ele>
        <time>2013-08-11T09:57:40Z</time>
      </trkpt>
      <trkpt lat="45.26073" lon="6.30946">
        <ele>1243</ele>
        <time>2013-08-11T09:57:44Z</time>
      </trkpt>
      <trkpt lat="45.26083" lon="6.30952">
        <ele>1243</ele>
        <time>2013-08-11T09:57:49Z</time>
      </trkpt>
      <trkpt lat="45.26091" lon="6.30962">
        <ele>1264</ele>
        <time>2013-08-11T09:57:54Z</time>
      </trkpt>
      <trkpt lat="45.261" lon="6.30968">
        <ele>1265</ele>
        <time>2013-08-11T09:57:59Z</time>
      </trkpt>
      <trkpt lat="45.26107" lon="6.30978">
        <ele>1265</ele>
        <time>2013-08-11T09:58:05Z</time>
      </trkpt>
      <trkpt lat="45.26112" lon="6.3099">
        <ele>1265</ele>
        <time>2013-08-11T09:58:11Z</time>
      </trkpt>
      <trkpt lat="45.26116" lon="6.31002">
        <ele>1258</ele>
        <time>2013-08-11T09:58:17Z</time>
      </trkpt>
      <trkpt lat="45.26118" lon="6.31015">
        <ele>1258</ele>
        <time>2013-08-11T09:58:24Z</time>
      </trkpt>
      <trkpt lat="45.26119" lon="6.31029">
        <ele>1258</ele>
        <time>2013-08-11T09:58:29Z</time>
      </trkpt>
      <trkpt lat="45.26121" lon="6.31044">
        <ele>1257</ele>
        <time>2013-08-11T09:58:36Z</time>
      </trkpt>
      <trkpt lat="45.26128" lon="6.31056">
        <ele>1258</ele>
        <time>2013-08-11T09:58:41Z</time>
      </trkpt>
      <trkpt lat="45.26137" lon="6.31051">
        <ele>1260</ele>
        <time>2013-08-11T09:58:48Z</time>
      </trkpt>
      <trkpt lat="45.26137" lon="6.31038">
        <ele>1262</ele>
        <time>2013-08-11T09:58:54Z</time>
      </trkpt>
      <trkpt lat="45.26137" lon="6.31023">
        <ele>1263</ele>
        <time>2013-08-11T09:59:01Z</time>
      </trkpt>
      <trkpt lat="45.26137" lon="6.31009">
        <ele>1265</ele>
        <time>2013-08-11T09:59:07Z</time>
      </trkpt>
      <trkpt lat="45.26133" lon="6.30996">
        <ele>1271</ele>
        <time>2013-08-11T09:59:15Z</time>
      </trkpt>
      <trkpt lat="45.2613" lon="6.3098">
        <ele>1271</ele>
        <time>2013-08-11T09:59:20Z</time>
      </trkpt>
      <trkpt lat="45.26125" lon="6.30966">
        <ele>1270</ele>
        <time>2013-08-11T09:59:27Z</time>
      </trkpt>
      <trkpt lat="45.2612" lon="6.30954">
        <ele>1270</ele>
        <time>2013-08-11T09:59:32Z</time>
      </trkpt>
      <trkpt lat="45.26115" lon="6.30943">
        <ele>1269</ele>
        <time>2013-08-11T09:59:37Z</time>
      </trkpt>
      <trkpt lat="45.26109" lon="6.30929">
        <ele>1268</ele>
        <time>2013-08-11T09:59:44Z</time>
      </trkpt>
      <trkpt lat="45.26103" lon="6.30917">
        <ele>1270</ele>
        <time>2013-08-11T09:59:48Z</time>
      </trkpt>
      <trkpt lat="45.26102" lon="6.30902">
        <ele>1271</ele>
        <time>2013-08-11T09:59:53Z</time>
      </trkpt>
      <trkpt lat="45.26105" lon="6.30889">
        <ele>1273</ele>
        <time>2013-08-11T09:59:58Z</time>
      </trkpt>
      <trkpt lat="45.26109" lon="6.30875">
        <ele>1275</ele>
        <time>2013-08-11T10:00:05Z</time>
      </trkpt>
      <trkpt lat="45.26113" lon="6.30863">
        <ele>1276</ele>
        <time>2013-08-11T10:00:11Z</time>
      </trkpt>
      <trkpt lat="45.26115" lon="6.30848">
        <ele>1276</ele>
        <time>2013-08-11T10:00:16Z</time>
      </trkpt>
      <trkpt lat="45.26119" lon="6.30836">
        <ele>1277</ele>
        <time>2013-08-11T10:00:20Z</time>
      </trkpt>
      <trkpt lat="45.26123" lon="6.30822">
        <ele>1281</ele>
        <time>2013-08-11T10:00:25Z</time>
      </trkpt>
      <trkpt lat="45.26126" lon="6.30809">
        <ele>1282</ele>
        <time>2013-08-11T10:00:30Z</time>
      </trkpt>
      <trkpt lat="45.2613" lon="6.30794">
        <ele>1282</ele>
        <time>2013-08-11T10:00:35Z</time>
      </trkpt>
      <trkpt lat="45.26135" lon="6.30782">
        <ele>1283</ele>
        <time>2013-08-11T10:00:40Z</time>
      </trkpt>
      <trkpt lat="45.2614" lon="6.30768">
        <ele>1285</ele>
        <time>2013-08-11T10:00:46Z</time>
      </trkpt>
      <trkpt lat="45.26142" lon="6.30754">
        <ele>1286</ele>
        <time>2013-08-11T10:00:52Z</time>
      </trkpt>
      <trkpt lat="45.26145" lon="6.30741">
        <ele>1288</ele>
        <time>2013-08-11T10:00:57Z</time>
      </trkpt>
      <trkpt lat="45.26149" lon="6.30727">
        <ele>1288</ele>
        <time>2013-08-11T10:01:02Z</time>
      </trkpt>
      <trkpt lat="45.26152" lon="6.30713">
        <ele>1287</ele>
        <time>2013-08-11T10:01:06Z</time>
      </trkpt>
      <trkpt lat="45.26152" lon="6.30697">
        <ele>1288</ele>
        <time>2013-08-11T10:01:12Z</time>
      </trkpt>
      <trkpt lat="45.26153" lon="6.30683">
        <ele>1289</ele>
        <time>2013-08-11T10:01:17Z</time>
      </trkpt>
      <trkpt lat="45.26154" lon="6.30667">
        <ele>1290</ele>
        <time>2013-08-11T10:01:22Z</time>
      </trkpt>
      <trkpt lat="45.26155" lon="6.30652">
        <ele>1292</ele>
        <time>2013-08-11T10:01:27Z</time>
      </trkpt>
      <trkpt lat="45.26154" lon="6.30638">
        <ele>1291</ele>
        <time>2013-08-11T10:01:32Z</time>
      </trkpt>
      <trkpt lat="45.26151" lon="6.30625">
        <ele>1292</ele>
        <time>2013-08-11T10:01:37Z</time>
      </trkpt>
      <trkpt lat="45.26144" lon="6.30616">
        <ele>1292</ele>
        <time>2013-08-11T10:01:43Z</time>
      </trkpt>
      <trkpt lat="45.26135" lon="6.30607">
        <ele>1292</ele>
        <time>2013-08-11T10:01:49Z</time>
      </trkpt>
      <trkpt lat="45.26128" lon="6.30598">
        <ele>1292</ele>
        <time>2013-08-11T10:01:54Z</time>
      </trkpt>
      <trkpt lat="45.26118" lon="6.3059">
        <ele>1292</ele>
        <time>2013-08-11T10:01:59Z</time>
      </trkpt>
      <trkpt lat="45.26117" lon="6.30575">
        <ele>1299</ele>
        <time>2013-08-11T10:02:05Z</time>
      </trkpt>
      <trkpt lat="45.26125" lon="6.30568">
        <ele>1300</ele>
        <time>2013-08-11T10:02:10Z</time>
      </trkpt>
      <trkpt lat="45.26136" lon="6.30569">
        <ele>1300</ele>
        <time>2013-08-11T10:02:16Z</time>
      </trkpt>
      <trkpt lat="45.26145" lon="6.30572">
        <ele>1300</ele>
        <time>2013-08-11T10:02:23Z</time>
      </trkpt>
      <trkpt lat="45.26154" lon="6.30575">
        <ele>1299</ele>
        <time>2013-08-11T10:02:29Z</time>
      </trkpt>
      <trkpt lat="45.26165" lon="6.30578">
        <ele>1298</ele>
        <time>2013-08-11T10:02:37Z</time>
      </trkpt>
      <trkpt lat="45.26173" lon="6.30587">
        <ele>1296</ele>
        <time>2013-08-11T10:02:45Z</time>
      </trkpt>
      <trkpt lat="45.2618" lon="6.30595">
        <ele>1296</ele>
        <time>2013-08-11T10:02:51Z</time>
      </trkpt>
      <trkpt lat="45.26188" lon="6.30603">
        <ele>1295</ele>
        <time>2013-08-11T10:02:56Z</time>
      </trkpt>
      <trkpt lat="45.26198" lon="6.3061">
        <ele>1295</ele>
        <time>2013-08-11T10:03:01Z</time>
      </trkpt>
      <trkpt lat="45.26208" lon="6.30613">
        <ele>1295</ele>
        <time>2013-08-11T10:03:05Z</time>
      </trkpt>
      <trkpt lat="45.26218" lon="6.30609">
        <ele>1295</ele>
        <time>2013-08-11T10:03:09Z</time>
      </trkpt>
      <trkpt lat="45.26226" lon="6.30601">
        <ele>1295</ele>
        <time>2013-08-11T10:03:12Z</time>
      </trkpt>
      <trkpt lat="45.26234" lon="6.30589">
        <ele>1295</ele>
        <time>2013-08-11T10:03:15Z</time>
      </trkpt>
      <trkpt lat="45.26241" lon="6.30577">
        <ele>1298</ele>
        <time>2013-08-11T10:03:17Z</time>
      </trkpt>
      <trkpt lat="45.26248" lon="6.30564">
        <ele>1299</ele>
        <time>2013-08-11T10:03:19Z</time>
      </trkpt>
      <trkpt lat="45.26255" lon="6.30554">
        <ele>1293</ele>
        <time>2013-08-11T10:03:21Z</time>
      </trkpt>
      <trkpt lat="45.26261" lon="6.30538">
        <ele>1293</ele>
        <time>2013-08-11T10:03:24Z</time>
      </trkpt>
      <trkpt lat="45.26267" lon="6.30527">
        <ele>1294</ele>
        <time>2013-08-11T10:03:26Z</time>
      </trkpt>
      <trkpt lat="45.2627" lon="6.30514">
        <ele>1295</ele>
        <time>2013-08-11T10:03:28Z</time>
      </trkpt>
      <trkpt lat="45.26274" lon="6.30499">
        <ele>1297</ele>
        <time>2013-08-11T10:03:31Z</time>
      </trkpt>
      <trkpt lat="45.26274" lon="6.30483">
        <ele>1297</ele>
        <time>2013-08-11T10:03:36Z</time>
      </trkpt>
      <trkpt lat="45.26272" lon="6.30468">
        <ele>1296</ele>
        <time>2013-08-11T10:03:41Z</time>
      </trkpt>
      <trkpt lat="45.2627" lon="6.30453">
        <ele>1297</ele>
        <time>2013-08-11T10:03:47Z</time>
      </trkpt>
      <trkpt lat="45.26269" lon="6.30439">
        <ele>1297</ele>
        <time>2013-08-11T10:03:53Z</time>
      </trkpt>
      <trkpt lat="45.26266" lon="6.30424">
        <ele>1299</ele>
        <time>2013-08-11T10:04:00Z</time>
      </trkpt>
      <trkpt lat="45.26263" lon="6.30411">
        <ele>1302</ele>
        <time>2013-08-11T10:04:09Z</time>
      </trkpt>
      <trkpt lat="45.26261" lon="6.30395">
        <ele>1302</ele>
        <time>2013-08-11T10:04:14Z</time>
      </trkpt>
      <trkpt lat="45.2626" lon="6.3038">
        <ele>1302</ele>
        <time>2013-08-11T10:04:21Z</time>
      </trkpt>
      <trkpt lat="45.2626" lon="6.30367">
        <ele>1304</ele>
        <time>2013-08-11T10:04:29Z</time>
      </trkpt>
      <trkpt lat="45.26259" lon="6.30352">
        <ele>1306</ele>
        <time>2013-08-11T10:04:38Z</time>
      </trkpt>
      <trkpt lat="45.2626" lon="6.30339">
        <ele>1308</ele>
        <time>2013-08-11T10:04:45Z</time>
      </trkpt>
      <trkpt lat="45.26261" lon="6.30325">
        <ele>1314</ele>
        <time>2013-08-11T10:05:07Z</time>
      </trkpt>
      <trkpt lat="45.26265" lon="6.30337">
        <ele>1307</ele>
        <time>2013-08-11T10:05:57Z</time>
      </trkpt>
      <trkpt lat="45.2627" lon="6.30325">
        <ele>1314</ele>
        <time>2013-08-11T10:06:31Z</time>
      </trkpt>
      <trkpt lat="45.26264" lon="6.30335">
        <ele>1307</ele>
        <time>2013-08-11T10:07:09Z</time>
      </trkpt>
      <trkpt lat="45.26263" lon="6.30322">
        <ele>1314</ele>
        <time>2013-08-11T10:08:27Z</time>
      </trkpt>
      <trkpt lat="45.26252" lon="6.30319">
        <ele>1314</ele>
        <time>2013-08-11T10:08:53Z</time>
      </trkpt>
      <trkpt lat="45.2624" lon="6.30319">
        <ele>1323</ele>
        <time>2013-08-11T10:09:02Z</time>
      </trkpt>
      <trkpt lat="45.26231" lon="6.30322">
        <ele>1326</ele>
        <time>2013-08-11T10:09:11Z</time>
      </trkpt>
      <trkpt lat="45.26221" lon="6.30322">
        <ele>1329</ele>
        <time>2013-08-11T10:09:17Z</time>
      </trkpt>
      <trkpt lat="45.26211" lon="6.30322">
        <ele>1331</ele>
        <time>2013-08-11T10:09:23Z</time>
      </trkpt>
      <trkpt lat="45.26201" lon="6.30323">
        <ele>1333</ele>
        <time>2013-08-11T10:09:31Z</time>
      </trkpt>
      <trkpt lat="45.26191" lon="6.30326">
        <ele>1335</ele>
        <time>2013-08-11T10:09:38Z</time>
      </trkpt>
      <trkpt lat="45.26185" lon="6.30338">
        <ele>1328</ele>
        <time>2013-08-11T10:09:49Z</time>
      </trkpt>
      <trkpt lat="45.26177" lon="6.30348">
        <ele>1328</ele>
        <time>2013-08-11T10:09:57Z</time>
      </trkpt>
      <trkpt lat="45.26173" lon="6.3036">
        <ele>1326</ele>
        <time>2013-08-11T10:10:04Z</time>
      </trkpt>
      <trkpt lat="45.26165" lon="6.30367">
        <ele>1338</ele>
        <time>2013-08-11T10:10:09Z</time>
      </trkpt>
      <trkpt lat="45.2616" lon="6.3038">
        <ele>1336</ele>
        <time>2013-08-11T10:10:16Z</time>
      </trkpt>
      <trkpt lat="45.26153" lon="6.30391">
        <ele>1335</ele>
        <time>2013-08-11T10:10:23Z</time>
      </trkpt>
      <trkpt lat="45.26145" lon="6.30399">
        <ele>1335</ele>
        <time>2013-08-11T10:10:28Z</time>
      </trkpt>
      <trkpt lat="45.26134" lon="6.304">
        <ele>1336</ele>
        <time>2013-08-11T10:10:33Z</time>
      </trkpt>
      <trkpt lat="45.26123" lon="6.304">
        <ele>1338</ele>
        <time>2013-08-11T10:10:39Z</time>
      </trkpt>
      <trkpt lat="45.26114" lon="6.30401">
        <ele>1339</ele>
        <time>2013-08-11T10:10:45Z</time>
      </trkpt>
      <trkpt lat="45.26104" lon="6.30402">
        <ele>1339</ele>
        <time>2013-08-11T10:10:52Z</time>
      </trkpt>
      <trkpt lat="45.26093" lon="6.30406">
        <ele>1339</ele>
        <time>2013-08-11T10:11:00Z</time>
      </trkpt>
      <trkpt lat="45.26084" lon="6.30408">
        <ele>1339</ele>
        <time>2013-08-11T10:11:05Z</time>
      </trkpt>
      <trkpt lat="45.26074" lon="6.30412">
        <ele>1344</ele>
        <time>2013-08-11T10:11:12Z</time>
      </trkpt>
      <trkpt lat="45.26064" lon="6.30411">
        <ele>1347</ele>
        <time>2013-08-11T10:11:17Z</time>
      </trkpt>
      <trkpt lat="45.26054" lon="6.30411">
        <ele>1349</ele>
        <time>2013-08-11T10:11:22Z</time>
      </trkpt>
      <trkpt lat="45.26044" lon="6.30413">
        <ele>1350</ele>
        <time>2013-08-11T10:11:28Z</time>
      </trkpt>
      <trkpt lat="45.26034" lon="6.30416">
        <ele>1350</ele>
        <time>2013-08-11T10:11:33Z</time>
      </trkpt>
      <trkpt lat="45.26024" lon="6.3042">
        <ele>1335</ele>
        <time>2013-08-11T10:11:38Z</time>
      </trkpt>
      <trkpt lat="45.26014" lon="6.30423">
        <ele>1337</ele>
        <time>2013-08-11T10:11:43Z</time>
      </trkpt>
      <trkpt lat="45.26003" lon="6.30424">
        <ele>1340</ele>
        <time>2013-08-11T10:11:48Z</time>
      </trkpt>
      <trkpt lat="45.25993" lon="6.30425">
        <ele>1339</ele>
        <time>2013-08-11T10:11:52Z</time>
      </trkpt>
      <trkpt lat="45.25982" lon="6.30422">
        <ele>1337</ele>
        <time>2013-08-11T10:11:58Z</time>
      </trkpt>
      <trkpt lat="45.25973" lon="6.3042">
        <ele>1336</ele>
        <time>2013-08-11T10:12:03Z</time>
      </trkpt>
      <trkpt lat="45.25962" lon="6.30416">
        <ele>1353</ele>
        <time>2013-08-11T10:12:08Z</time>
      </trkpt>
      <trkpt lat="45.25953" lon="6.30414">
        <ele>1353</ele>
        <time>2013-08-11T10:12:12Z</time>
      </trkpt>
      <trkpt lat="45.25942" lon="6.30412">
        <ele>1353</ele>
        <time>2013-08-11T10:12:17Z</time>
      </trkpt>
      <trkpt lat="45.25931" lon="6.30409">
        <ele>1351</ele>
        <time>2013-08-11T10:12:22Z</time>
      </trkpt>
      <trkpt lat="45.2592" lon="6.30405">
        <ele>1350</ele>
        <time>2013-08-11T10:12:27Z</time>
      </trkpt>
      <trkpt lat="45.25909" lon="6.30404">
        <ele>1351</ele>
        <time>2013-08-11T10:12:32Z</time>
      </trkpt>
      <trkpt lat="45.259" lon="6.30402">
        <ele>1353</ele>
        <time>2013-08-11T10:12:37Z</time>
      </trkpt>
      <trkpt lat="45.2589" lon="6.304">
        <ele>1354</ele>
        <time>2013-08-11T10:12:42Z</time>
      </trkpt>
      <trkpt lat="45.2588" lon="6.30396">
        <ele>1355</ele>
        <time>2013-08-11T10:12:47Z</time>
      </trkpt>
      <trkpt lat="45.25871" lon="6.30393">
        <ele>1356</ele>
        <time>2013-08-11T10:12:52Z</time>
      </trkpt>
      <trkpt lat="45.2586" lon="6.3039">
        <ele>1356</ele>
        <time>2013-08-11T10:12:57Z</time>
      </trkpt>
      <trkpt lat="45.2585" lon="6.30387">
        <ele>1356</ele>
        <time>2013-08-11T10:13:02Z</time>
      </trkpt>
      <trkpt lat="45.25841" lon="6.30383">
        <ele>1357</ele>
        <time>2013-08-11T10:13:07Z</time>
      </trkpt>
      <trkpt lat="45.25831" lon="6.30381">
        <ele>1357</ele>
        <time>2013-08-11T10:13:12Z</time>
      </trkpt>
      <trkpt lat="45.25822" lon="6.3038">
        <ele>1358</ele>
        <time>2013-08-11T10:13:17Z</time>
      </trkpt>
      <trkpt lat="45.25812" lon="6.3038">
        <ele>1358</ele>
        <time>2013-08-11T10:13:22Z</time>
      </trkpt>
      <trkpt lat="45.25802" lon="6.30378">
        <ele>1358</ele>
        <time>2013-08-11T10:13:27Z</time>
      </trkpt>
      <trkpt lat="45.25793" lon="6.30378">
        <ele>1358</ele>
        <time>2013-08-11T10:13:32Z</time>
      </trkpt>
      <trkpt lat="45.25784" lon="6.30373">
        <ele>1359</ele>
        <time>2013-08-11T10:13:37Z</time>
      </trkpt>
      <trkpt lat="45.25773" lon="6.30369">
        <ele>1360</ele>
        <time>2013-08-11T10:13:42Z</time>
      </trkpt>
      <trkpt lat="45.25763" lon="6.30363">
        <ele>1361</ele>
        <time>2013-08-11T10:13:46Z</time>
      </trkpt>
      <trkpt lat="45.25753" lon="6.30356">
        <ele>1363</ele>
        <time>2013-08-11T10:13:51Z</time>
      </trkpt>
      <trkpt lat="45.25743" lon="6.30348">
        <ele>1362</ele>
        <time>2013-08-11T10:13:56Z</time>
      </trkpt>
      <trkpt lat="45.25734" lon="6.30343">
        <ele>1362</ele>
        <time>2013-08-11T10:14:00Z</time>
      </trkpt>
      <trkpt lat="45.25726" lon="6.30337">
        <ele>1360</ele>
        <time>2013-08-11T10:14:04Z</time>
      </trkpt>
      <trkpt lat="45.25717" lon="6.30333">
        <ele>1373</ele>
        <time>2013-08-11T10:14:08Z</time>
      </trkpt>
      <trkpt lat="45.25707" lon="6.30327">
        <ele>1372</ele>
        <time>2013-08-11T10:14:12Z</time>
      </trkpt>
      <trkpt lat="45.25699" lon="6.30321">
        <ele>1372</ele>
        <time>2013-08-11T10:14:16Z</time>
      </trkpt>
      <trkpt lat="45.25687" lon="6.30315">
        <ele>1371</ele>
        <time>2013-08-11T10:14:20Z</time>
      </trkpt>
      <trkpt lat="45.25679" lon="6.30308">
        <ele>1371</ele>
        <time>2013-08-11T10:14:23Z</time>
      </trkpt>
      <trkpt lat="45.25674" lon="6.30295">
        <ele>1373</ele>
        <time>2013-08-11T10:14:28Z</time>
      </trkpt>
      <trkpt lat="45.25668" lon="6.30284">
        <ele>1375</ele>
        <time>2013-08-11T10:14:44Z</time>
      </trkpt>
      <trkpt lat="45.25664" lon="6.30272">
        <ele>1370</ele>
        <time>2013-08-11T10:14:55Z</time>
      </trkpt>
      <trkpt lat="45.25657" lon="6.30262">
        <ele>1372</ele>
        <time>2013-08-11T10:15:02Z</time>
      </trkpt>
      <trkpt lat="45.25653" lon="6.30249">
        <ele>1381</ele>
        <time>2013-08-11T10:15:12Z</time>
      </trkpt>
      <trkpt lat="45.25654" lon="6.30236">
        <ele>1381</ele>
        <time>2013-08-11T10:15:35Z</time>
      </trkpt>
      <trkpt lat="45.25659" lon="6.30223">
        <ele>1383</ele>
        <time>2013-08-11T10:16:00Z</time>
      </trkpt>
      <trkpt lat="45.25661" lon="6.3021">
        <ele>1384</ele>
        <time>2013-08-11T10:16:17Z</time>
      </trkpt>
      <trkpt lat="45.25663" lon="6.30197">
        <ele>1387</ele>
        <time>2013-08-11T10:16:35Z</time>
      </trkpt>
      <trkpt lat="45.25661" lon="6.30183">
        <ele>1390</ele>
        <time>2013-08-11T10:16:51Z</time>
      </trkpt>
      <trkpt lat="45.25658" lon="6.30171">
        <ele>1393</ele>
        <time>2013-08-11T10:17:06Z</time>
      </trkpt>
      <trkpt lat="45.25653" lon="6.30159">
        <ele>1400</ele>
        <time>2013-08-11T10:17:16Z</time>
      </trkpt>
      <trkpt lat="45.25649" lon="6.30148">
        <ele>1400</ele>
        <time>2013-08-11T10:17:25Z</time>
      </trkpt>
      <trkpt lat="45.25643" lon="6.30136">
        <ele>1401</ele>
        <time>2013-08-11T10:17:36Z</time>
      </trkpt>
      <trkpt lat="45.25637" lon="6.30125">
        <ele>1402</ele>
        <time>2013-08-11T10:17:47Z</time>
      </trkpt>
      <trkpt lat="45.25631" lon="6.30113">
        <ele>1403</ele>
        <time>2013-08-11T10:17:58Z</time>
      </trkpt>
      <trkpt lat="45.25632" lon="6.30099">
        <ele>1405</ele>
        <time>2013-08-11T10:18:10Z</time>
      </trkpt>
      <trkpt lat="45.25625" lon="6.3009">
        <ele>1404</ele>
        <time>2013-08-11T10:18:23Z</time>
      </trkpt>
      <trkpt lat="45.25619" lon="6.30079">
        <ele>1415</ele>
        <time>2013-08-11T10:18:31Z</time>
      </trkpt>
      <trkpt lat="45.25611" lon="6.30071">
        <ele>1414</ele>
        <time>2013-08-11T10:18:40Z</time>
      </trkpt>
      <trkpt lat="45.25606" lon="6.3006">
        <ele>1415</ele>
        <time>2013-08-11T10:18:50Z</time>
      </trkpt>
      <trkpt lat="45.25601" lon="6.30048">
        <ele>1416</ele>
        <time>2013-08-11T10:19:00Z</time>
      </trkpt>
      <trkpt lat="45.25598" lon="6.30035">
        <ele>1418</ele>
        <time>2013-08-11T10:19:08Z</time>
      </trkpt>
      <trkpt lat="45.25591" lon="6.30025">
        <ele>1419</ele>
        <time>2013-08-11T10:19:16Z</time>
      </trkpt>
      <trkpt lat="45.25583" lon="6.30017">
        <ele>1412</ele>
        <time>2013-08-11T10:19:22Z</time>
      </trkpt>
      <trkpt lat="45.25575" lon="6.30007">
        <ele>1414</ele>
        <time>2013-08-11T10:19:27Z</time>
      </trkpt>
      <trkpt lat="45.25568" lon="6.29996">
        <ele>1420</ele>
        <time>2013-08-11T10:19:31Z</time>
      </trkpt>
      <trkpt lat="45.2556" lon="6.29986">
        <ele>1419</ele>
        <time>2013-08-11T10:19:35Z</time>
      </trkpt>
      <trkpt lat="45.25553" lon="6.29975">
        <ele>1419</ele>
        <time>2013-08-11T10:19:39Z</time>
      </trkpt>
      <trkpt lat="45.25547" lon="6.29964">
        <ele>1419</ele>
        <time>2013-08-11T10:19:43Z</time>
      </trkpt>
      <trkpt lat="45.25542" lon="6.29952">
        <ele>1420</ele>
        <time>2013-08-11T10:19:48Z</time>
      </trkpt>
      <trkpt lat="45.25535" lon="6.29939">
        <ele>1420</ele>
        <time>2013-08-11T10:19:53Z</time>
      </trkpt>
      <trkpt lat="45.25528" lon="6.29929">
        <ele>1420</ele>
        <time>2013-08-11T10:19:57Z</time>
      </trkpt>
      <trkpt lat="45.25522" lon="6.29919">
        <ele>1420</ele>
        <time>2013-08-11T10:20:01Z</time>
      </trkpt>
      <trkpt lat="45.25515" lon="6.29909">
        <ele>1426</ele>
        <time>2013-08-11T10:20:06Z</time>
      </trkpt>
      <trkpt lat="45.25509" lon="6.29895">
        <ele>1428</ele>
        <time>2013-08-11T10:20:11Z</time>
      </trkpt>
      <trkpt lat="45.25504" lon="6.29882">
        <ele>1430</ele>
        <time>2013-08-11T10:20:17Z</time>
      </trkpt>
      <trkpt lat="45.25501" lon="6.29869">
        <ele>1432</ele>
        <time>2013-08-11T10:20:24Z</time>
      </trkpt>
      <trkpt lat="45.25498" lon="6.29857">
        <ele>1421</ele>
        <time>2013-08-11T10:20:30Z</time>
      </trkpt>
      <trkpt lat="45.25491" lon="6.29843">
        <ele>1425</ele>
        <time>2013-08-11T10:20:36Z</time>
      </trkpt>
      <trkpt lat="45.25486" lon="6.29832">
        <ele>1428</ele>
        <time>2013-08-11T10:20:41Z</time>
      </trkpt>
      <trkpt lat="45.25479" lon="6.29821">
        <ele>1425</ele>
        <time>2013-08-11T10:20:47Z</time>
      </trkpt>
      <trkpt lat="45.25474" lon="6.29809">
        <ele>1424</ele>
        <time>2013-08-11T10:20:52Z</time>
      </trkpt>
      <trkpt lat="45.25469" lon="6.29796">
        <ele>1423</ele>
        <time>2013-08-11T10:20:57Z</time>
      </trkpt>
      <trkpt lat="45.25463" lon="6.29783">
        <ele>1422</ele>
        <time>2013-08-11T10:21:02Z</time>
      </trkpt>
      <trkpt lat="45.2546" lon="6.2977">
        <ele>1422</ele>
        <time>2013-08-11T10:21:07Z</time>
      </trkpt>
      <trkpt lat="45.25457" lon="6.29755">
        <ele>1421</ele>
        <time>2013-08-11T10:21:12Z</time>
      </trkpt>
      <trkpt lat="45.2546" lon="6.2974">
        <ele>1422</ele>
        <time>2013-08-11T10:21:15Z</time>
      </trkpt>
      <trkpt lat="45.25463" lon="6.29726">
        <ele>1423</ele>
        <time>2013-08-11T10:21:18Z</time>
      </trkpt>
      <trkpt lat="45.25465" lon="6.29711">
        <ele>1423</ele>
        <time>2013-08-11T10:21:22Z</time>
      </trkpt>
      <trkpt lat="45.25467" lon="6.29694">
        <ele>1423</ele>
        <time>2013-08-11T10:21:27Z</time>
      </trkpt>
      <trkpt lat="45.25469" lon="6.2968">
        <ele>1424</ele>
        <time>2013-08-11T10:21:30Z</time>
      </trkpt>
      <trkpt lat="45.25472" lon="6.29664">
        <ele>1421</ele>
        <time>2013-08-11T10:21:33Z</time>
      </trkpt>
      <trkpt lat="45.25477" lon="6.29646">
        <ele>1421</ele>
        <time>2013-08-11T10:21:36Z</time>
      </trkpt>
      <trkpt lat="45.25481" lon="6.29633">
        <ele>1419</ele>
        <time>2013-08-11T10:21:38Z</time>
      </trkpt>
      <trkpt lat="45.25485" lon="6.29618">
        <ele>1418</ele>
        <time>2013-08-11T10:21:40Z</time>
      </trkpt>
      <trkpt lat="45.25491" lon="6.296">
        <ele>1420</ele>
        <time>2013-08-11T10:21:42Z</time>
      </trkpt>
      <trkpt lat="45.25499" lon="6.29583">
        <ele>1425</ele>
        <time>2013-08-11T10:21:44Z</time>
      </trkpt>
      <trkpt lat="45.25509" lon="6.29565">
        <ele>1426</ele>
        <time>2013-08-11T10:21:46Z</time>
      </trkpt>
      <trkpt lat="45.25519" lon="6.29549">
        <ele>1426</ele>
        <time>2013-08-11T10:21:48Z</time>
      </trkpt>
      <trkpt lat="45.25528" lon="6.29532">
        <ele>1425</ele>
        <time>2013-08-11T10:21:50Z</time>
      </trkpt>
      <trkpt lat="45.25538" lon="6.29515">
        <ele>1425</ele>
        <time>2013-08-11T10:21:52Z</time>
      </trkpt>
      <trkpt lat="45.25549" lon="6.29503">
        <ele>1427</ele>
        <time>2013-08-11T10:21:54Z</time>
      </trkpt>
      <trkpt lat="45.2556" lon="6.29492">
        <ele>1418</ele>
        <time>2013-08-11T10:21:56Z</time>
      </trkpt>
      <trkpt lat="45.25566" lon="6.29481">
        <ele>1418</ele>
        <time>2013-08-11T10:21:58Z</time>
      </trkpt>
      <trkpt lat="45.25571" lon="6.29467">
        <ele>1415</ele>
        <time>2013-08-11T10:22:00Z</time>
      </trkpt>
      <trkpt lat="45.25577" lon="6.29452">
        <ele>1413</ele>
        <time>2013-08-11T10:22:02Z</time>
      </trkpt>
      <trkpt lat="45.25587" lon="6.29438">
        <ele>1423</ele>
        <time>2013-08-11T10:22:04Z</time>
      </trkpt>
      <trkpt lat="45.25601" lon="6.29423">
        <ele>1422</ele>
        <time>2013-08-11T10:22:06Z</time>
      </trkpt>
      <trkpt lat="45.25614" lon="6.29406">
        <ele>1415</ele>
        <time>2013-08-11T10:22:08Z</time>
      </trkpt>
      <trkpt lat="45.25626" lon="6.29388">
        <ele>1415</ele>
        <time>2013-08-11T10:22:10Z</time>
      </trkpt>
      <trkpt lat="45.25638" lon="6.29372">
        <ele>1415</ele>
        <time>2013-08-11T10:22:12Z</time>
      </trkpt>
      <trkpt lat="45.25647" lon="6.29352">
        <ele>1415</ele>
        <time>2013-08-11T10:22:14Z</time>
      </trkpt>
      <trkpt lat="45.25654" lon="6.29329">
        <ele>1411</ele>
        <time>2013-08-11T10:22:16Z</time>
      </trkpt>
      <trkpt lat="45.2566" lon="6.29308">
        <ele>1409</ele>
        <time>2013-08-11T10:22:18Z</time>
      </trkpt>
      <trkpt lat="45.25666" lon="6.29289">
        <ele>1408</ele>
        <time>2013-08-11T10:22:20Z</time>
      </trkpt>
      <trkpt lat="45.25674" lon="6.29272">
        <ele>1421</ele>
        <time>2013-08-11T10:22:22Z</time>
      </trkpt>
      <trkpt lat="45.25678" lon="6.29256">
        <ele>1418</ele>
        <time>2013-08-11T10:22:24Z</time>
      </trkpt>
      <trkpt lat="45.25682" lon="6.29238">
        <ele>1419</ele>
        <time>2013-08-11T10:22:26Z</time>
      </trkpt>
      <trkpt lat="45.25686" lon="6.29225">
        <ele>1420</ele>
        <time>2013-08-11T10:22:28Z</time>
      </trkpt>
      <trkpt lat="45.25691" lon="6.29212">
        <ele>1421</ele>
        <time>2013-08-11T10:22:31Z</time>
      </trkpt>
      <trkpt lat="45.25697" lon="6.29198">
        <ele>1421</ele>
        <time>2013-08-11T10:22:34Z</time>
      </trkpt>
      <trkpt lat="45.25702" lon="6.29185">
        <ele>1422</ele>
        <time>2013-08-11T10:22:37Z</time>
      </trkpt>
      <trkpt lat="45.25708" lon="6.29172">
        <ele>1423</ele>
        <time>2013-08-11T10:22:41Z</time>
      </trkpt>
      <trkpt lat="45.25715" lon="6.29157">
        <ele>1421</ele>
        <time>2013-08-11T10:22:46Z</time>
      </trkpt>
      <trkpt lat="45.25722" lon="6.29143">
        <ele>1422</ele>
        <time>2013-08-11T10:22:50Z</time>
      </trkpt>
      <trkpt lat="45.2573" lon="6.29132">
        <ele>1422</ele>
        <time>2013-08-11T10:22:54Z</time>
      </trkpt>
      <trkpt lat="45.25739" lon="6.29121">
        <ele>1423</ele>
        <time>2013-08-11T10:22:58Z</time>
      </trkpt>
      <trkpt lat="45.25745" lon="6.2911">
        <ele>1423</ele>
        <time>2013-08-11T10:23:01Z</time>
      </trkpt>
      <trkpt lat="45.2575" lon="6.29097">
        <ele>1424</ele>
        <time>2013-08-11T10:23:04Z</time>
      </trkpt>
      <trkpt lat="45.25752" lon="6.2908">
        <ele>1429</ele>
        <time>2013-08-11T10:23:08Z</time>
      </trkpt>
      <trkpt lat="45.25752" lon="6.29064">
        <ele>1435</ele>
        <time>2013-08-11T10:23:12Z</time>
      </trkpt>
      <trkpt lat="45.25751" lon="6.29051">
        <ele>1437</ele>
        <time>2013-08-11T10:23:16Z</time>
      </trkpt>
      <trkpt lat="45.25749" lon="6.29037">
        <ele>1423</ele>
        <time>2013-08-11T10:23:20Z</time>
      </trkpt>
      <trkpt lat="45.25748" lon="6.29021">
        <ele>1424</ele>
        <time>2013-08-11T10:23:24Z</time>
      </trkpt>
      <trkpt lat="45.25746" lon="6.29007">
        <ele>1427</ele>
        <time>2013-08-11T10:23:28Z</time>
      </trkpt>
      <trkpt lat="45.25744" lon="6.28992">
        <ele>1428</ele>
        <time>2013-08-11T10:23:32Z</time>
      </trkpt>
      <trkpt lat="45.25743" lon="6.28977">
        <ele>1427</ele>
        <time>2013-08-11T10:23:37Z</time>
      </trkpt>
      <trkpt lat="45.25742" lon="6.28961">
        <ele>1427</ele>
        <time>2013-08-11T10:23:41Z</time>
      </trkpt>
      <trkpt lat="45.25739" lon="6.28946">
        <ele>1428</ele>
        <time>2013-08-11T10:23:46Z</time>
      </trkpt>
      <trkpt lat="45.25735" lon="6.2893">
        <ele>1429</ele>
        <time>2013-08-11T10:23:51Z</time>
      </trkpt>
      <trkpt lat="45.25731" lon="6.28915">
        <ele>1432</ele>
        <time>2013-08-11T10:23:56Z</time>
      </trkpt>
      <trkpt lat="45.25727" lon="6.28902">
        <ele>1431</ele>
        <time>2013-08-11T10:24:00Z</time>
      </trkpt>
      <trkpt lat="45.25724" lon="6.2889">
        <ele>1431</ele>
        <time>2013-08-11T10:24:04Z</time>
      </trkpt>
      <trkpt lat="45.25723" lon="6.28876">
        <ele>1431</ele>
        <time>2013-08-11T10:24:10Z</time>
      </trkpt>
      <trkpt lat="45.25719" lon="6.28862">
        <ele>1432</ele>
        <time>2013-08-11T10:24:18Z</time>
      </trkpt>
      <trkpt lat="45.25715" lon="6.28848">
        <ele>1432</ele>
        <time>2013-08-11T10:24:25Z</time>
      </trkpt>
      <trkpt lat="45.25713" lon="6.28834">
        <ele>1432</ele>
        <time>2013-08-11T10:24:32Z</time>
      </trkpt>
      <trkpt lat="45.25718" lon="6.28822">
        <ele>1436</ele>
        <time>2013-08-11T10:24:38Z</time>
      </trkpt>
      <trkpt lat="45.25725" lon="6.28813">
        <ele>1437</ele>
        <time>2013-08-11T10:24:46Z</time>
      </trkpt>
      <trkpt lat="45.25732" lon="6.28804">
        <ele>1437</ele>
        <time>2013-08-11T10:24:55Z</time>
      </trkpt>
      <trkpt lat="45.25741" lon="6.28802">
        <ele>1438</ele>
        <time>2013-08-11T10:25:05Z</time>
      </trkpt>
      <trkpt lat="45.25751" lon="6.28804">
        <ele>1448</ele>
        <time>2013-08-11T10:25:13Z</time>
      </trkpt>
      <trkpt lat="45.25761" lon="6.28803">
        <ele>1449</ele>
        <time>2013-08-11T10:25:23Z</time>
      </trkpt>
      <trkpt lat="45.25771" lon="6.28805">
        <ele>1449</ele>
        <time>2013-08-11T10:25:34Z</time>
      </trkpt>
      <trkpt lat="45.25781" lon="6.28801">
        <ele>1451</ele>
        <time>2013-08-11T10:25:44Z</time>
      </trkpt>
      <trkpt lat="45.2579" lon="6.28796">
        <ele>1452</ele>
        <time>2013-08-11T10:25:54Z</time>
      </trkpt>
      <trkpt lat="45.258" lon="6.28789">
        <ele>1453</ele>
        <time>2013-08-11T10:26:06Z</time>
      </trkpt>
      <trkpt lat="45.25809" lon="6.28785">
        <ele>1454</ele>
        <time>2013-08-11T10:26:16Z</time>
      </trkpt>
      <trkpt lat="45.25817" lon="6.28779">
        <ele>1455</ele>
        <time>2013-08-11T10:26:26Z</time>
      </trkpt>
      <trkpt lat="45.25826" lon="6.28774">
        <ele>1456</ele>
        <time>2013-08-11T10:26:37Z</time>
      </trkpt>
      <trkpt lat="45.25835" lon="6.2877">
        <ele>1468</ele>
        <time>2013-08-11T10:26:47Z</time>
      </trkpt>
      <trkpt lat="45.25845" lon="6.28769">
        <ele>1469</ele>
        <time>2013-08-11T10:26:57Z</time>
      </trkpt>
      <trkpt lat="45.25854" lon="6.28764">
        <ele>1470</ele>
        <time>2013-08-11T10:27:08Z</time>
      </trkpt>
      <trkpt lat="45.25861" lon="6.28756">
        <ele>1471</ele>
        <time>2013-08-11T10:27:18Z</time>
      </trkpt>
      <trkpt lat="45.25869" lon="6.28748">
        <ele>1473</ele>
        <time>2013-08-11T10:27:28Z</time>
      </trkpt>
      <trkpt lat="45.25877" lon="6.28739">
        <ele>1474</ele>
        <time>2013-08-11T10:27:38Z</time>
      </trkpt>
      <trkpt lat="45.25885" lon="6.28731">
        <ele>1476</ele>
        <time>2013-08-11T10:27:51Z</time>
      </trkpt>
      <trkpt lat="45.25893" lon="6.28725">
        <ele>1477</ele>
        <time>2013-08-11T10:28:01Z</time>
      </trkpt>
      <trkpt lat="45.25899" lon="6.28713">
        <ele>1477</ele>
        <time>2013-08-11T10:28:12Z</time>
      </trkpt>
      <trkpt lat="45.25901" lon="6.287">
        <ele>1477</ele>
        <time>2013-08-11T10:28:23Z</time>
      </trkpt>
      <trkpt lat="45.25903" lon="6.28687">
        <ele>1479</ele>
        <time>2013-08-11T10:28:34Z</time>
      </trkpt>
      <trkpt lat="45.25904" lon="6.28673">
        <ele>1480</ele>
        <time>2013-08-11T10:28:46Z</time>
      </trkpt>
      <trkpt lat="45.25904" lon="6.28658">
        <ele>1482</ele>
        <time>2013-08-11T10:28:52Z</time>
      </trkpt>
      <trkpt lat="45.25906" lon="6.28644">
        <ele>1481</ele>
        <time>2013-08-11T10:28:59Z</time>
      </trkpt>
      <trkpt lat="45.25912" lon="6.28634">
        <ele>1482</ele>
        <time>2013-08-11T10:29:07Z</time>
      </trkpt>
      <trkpt lat="45.25918" lon="6.28623">
        <ele>1493</ele>
        <time>2013-08-11T10:29:17Z</time>
      </trkpt>
      <trkpt lat="45.25919" lon="6.2861">
        <ele>1493</ele>
        <time>2013-08-11T10:29:26Z</time>
      </trkpt>
      <trkpt lat="45.2592" lon="6.28596">
        <ele>1492</ele>
        <time>2013-08-11T10:29:35Z</time>
      </trkpt>
      <trkpt lat="45.25921" lon="6.28582">
        <ele>1492</ele>
        <time>2013-08-11T10:29:44Z</time>
      </trkpt>
      <trkpt lat="45.2592" lon="6.28567">
        <ele>1495</ele>
        <time>2013-08-11T10:29:53Z</time>
      </trkpt>
      <trkpt lat="45.25925" lon="6.28554">
        <ele>1496</ele>
        <time>2013-08-11T10:30:00Z</time>
      </trkpt>
      <trkpt lat="45.25933" lon="6.28545">
        <ele>1497</ele>
        <time>2013-08-11T10:30:07Z</time>
      </trkpt>
      <trkpt lat="45.25941" lon="6.28537">
        <ele>1498</ele>
        <time>2013-08-11T10:30:15Z</time>
      </trkpt>
      <trkpt lat="45.25948" lon="6.28527">
        <ele>1498</ele>
        <time>2013-08-11T10:30:23Z</time>
      </trkpt>
      <trkpt lat="45.25954" lon="6.28516">
        <ele>1499</ele>
        <time>2013-08-11T10:30:30Z</time>
      </trkpt>
      <trkpt lat="45.2596" lon="6.28505">
        <ele>1500</ele>
        <time>2013-08-11T10:30:37Z</time>
      </trkpt>
      <trkpt lat="45.25965" lon="6.28494">
        <ele>1502</ele>
        <time>2013-08-11T10:30:45Z</time>
      </trkpt>
      <trkpt lat="45.25967" lon="6.28479">
        <ele>1502</ele>
        <time>2013-08-11T10:30:55Z</time>
      </trkpt>
      <trkpt lat="45.25965" lon="6.28465">
        <ele>1502</ele>
        <time>2013-08-11T10:31:04Z</time>
      </trkpt>
      <trkpt lat="45.25963" lon="6.28452">
        <ele>1502</ele>
        <time>2013-08-11T10:31:12Z</time>
      </trkpt>
      <trkpt lat="45.2596" lon="6.28439">
        <ele>1502</ele>
        <time>2013-08-11T10:31:19Z</time>
      </trkpt>
      <trkpt lat="45.25957" lon="6.28426">
        <ele>1502</ele>
        <time>2013-08-11T10:31:26Z</time>
      </trkpt>
      <trkpt lat="45.25953" lon="6.28413">
        <ele>1503</ele>
        <time>2013-08-11T10:31:33Z</time>
      </trkpt>
      <trkpt lat="45.25948" lon="6.28401">
        <ele>1503</ele>
        <time>2013-08-11T10:31:41Z</time>
      </trkpt>
      <trkpt lat="45.25944" lon="6.28388">
        <ele>1503</ele>
        <time>2013-08-11T10:31:47Z</time>
      </trkpt>
      <trkpt lat="45.25947" lon="6.28372">
        <ele>1504</ele>
        <time>2013-08-11T10:31:54Z</time>
      </trkpt>
      <trkpt lat="45.25953" lon="6.2836">
        <ele>1505</ele>
        <time>2013-08-11T10:32:02Z</time>
      </trkpt>
      <trkpt lat="45.2596" lon="6.28349">
        <ele>1506</ele>
        <time>2013-08-11T10:32:11Z</time>
      </trkpt>
      <trkpt lat="45.25965" lon="6.28337">
        <ele>1506</ele>
        <time>2013-08-11T10:32:23Z</time>
      </trkpt>
      <trkpt lat="45.2597" lon="6.28326">
        <ele>1511</ele>
        <time>2013-08-11T10:32:35Z</time>
      </trkpt>
      <trkpt lat="45.25972" lon="6.28312">
        <ele>1511</ele>
        <time>2013-08-11T10:32:45Z</time>
      </trkpt>
      <trkpt lat="45.25974" lon="6.28299">
        <ele>1512</ele>
        <time>2013-08-11T10:32:56Z</time>
      </trkpt>
      <trkpt lat="45.25975" lon="6.28285">
        <ele>1513</ele>
        <time>2013-08-11T10:33:06Z</time>
      </trkpt>
      <trkpt lat="45.25976" lon="6.28272">
        <ele>1514</ele>
        <time>2013-08-11T10:33:16Z</time>
      </trkpt>
      <trkpt lat="45.25974" lon="6.28259">
        <ele>1514</ele>
        <time>2013-08-11T10:33:26Z</time>
      </trkpt>
      <trkpt lat="45.25972" lon="6.28245">
        <ele>1520</ele>
        <time>2013-08-11T10:33:37Z</time>
      </trkpt>
      <trkpt lat="45.2597" lon="6.28231">
        <ele>1521</ele>
        <time>2013-08-11T10:33:47Z</time>
      </trkpt>
      <trkpt lat="45.25969" lon="6.28217">
        <ele>1521</ele>
        <time>2013-08-11T10:33:56Z</time>
      </trkpt>
      <trkpt lat="45.25968" lon="6.28204">
        <ele>1522</ele>
        <time>2013-08-11T10:34:06Z</time>
      </trkpt>
      <trkpt lat="45.25967" lon="6.2819">
        <ele>1523</ele>
        <time>2013-08-11T10:34:16Z</time>
      </trkpt>
      <trkpt lat="45.25968" lon="6.28177">
        <ele>1524</ele>
        <time>2013-08-11T10:34:26Z</time>
      </trkpt>
      <trkpt lat="45.25967" lon="6.28161">
        <ele>1532</ele>
        <time>2013-08-11T10:34:36Z</time>
      </trkpt>
      <trkpt lat="45.25967" lon="6.28147">
        <ele>1532</ele>
        <time>2013-08-11T10:34:45Z</time>
      </trkpt>
      <trkpt lat="45.2597" lon="6.28134">
        <ele>1533</ele>
        <time>2013-08-11T10:34:54Z</time>
      </trkpt>
      <trkpt lat="45.25973" lon="6.28122">
        <ele>1535</ele>
        <time>2013-08-11T10:35:04Z</time>
      </trkpt>
      <trkpt lat="45.25977" lon="6.2811">
        <ele>1536</ele>
        <time>2013-08-11T10:35:15Z</time>
      </trkpt>
      <trkpt lat="45.25982" lon="6.28099">
        <ele>1538</ele>
        <time>2013-08-11T10:35:27Z</time>
      </trkpt>
      <trkpt lat="45.25987" lon="6.28087">
        <ele>1541</ele>
        <time>2013-08-11T10:35:43Z</time>
      </trkpt>
      <trkpt lat="45.25989" lon="6.28074">
        <ele>1544</ele>
        <time>2013-08-11T10:36:06Z</time>
      </trkpt>
      <trkpt lat="45.25993" lon="6.28062">
        <ele>1544</ele>
        <time>2013-08-11T10:36:31Z</time>
      </trkpt>
      <trkpt lat="45.25998" lon="6.2805">
        <ele>1544</ele>
        <time>2013-08-11T10:36:49Z</time>
      </trkpt>
      <trkpt lat="45.25998" lon="6.28037">
        <ele>1545</ele>
        <time>2013-08-11T10:37:01Z</time>
      </trkpt>
      <trkpt lat="45.25999" lon="6.28023">
        <ele>1546</ele>
        <time>2013-08-11T10:37:15Z</time>
      </trkpt>
      <trkpt lat="45.26003" lon="6.2801">
        <ele>1552</ele>
        <time>2013-08-11T10:37:34Z</time>
      </trkpt>
      <trkpt lat="45.26006" lon="6.27998">
        <ele>1555</ele>
        <time>2013-08-11T10:37:46Z</time>
      </trkpt>
      <trkpt lat="45.26005" lon="6.27984">
        <ele>1557</ele>
        <time>2013-08-11T10:37:58Z</time>
      </trkpt>
      <trkpt lat="45.26004" lon="6.27971">
        <ele>1559</ele>
        <time>2013-08-11T10:38:08Z</time>
      </trkpt>
      <trkpt lat="45.26001" lon="6.27957">
        <ele>1561</ele>
        <time>2013-08-11T10:38:18Z</time>
      </trkpt>
      <trkpt lat="45.26" lon="6.27943">
        <ele>1556</ele>
        <time>2013-08-11T10:38:29Z</time>
      </trkpt>
      <trkpt lat="45.25998" lon="6.2793">
        <ele>1559</ele>
        <time>2013-08-11T10:38:40Z</time>
      </trkpt>
      <trkpt lat="45.25996" lon="6.27916">
        <ele>1564</ele>
        <time>2013-08-11T10:38:52Z</time>
      </trkpt>
      <trkpt lat="45.25994" lon="6.27903">
        <ele>1563</ele>
        <time>2013-08-11T10:39:05Z</time>
      </trkpt>
      <trkpt lat="45.25991" lon="6.2789">
        <ele>1563</ele>
        <time>2013-08-11T10:39:14Z</time>
      </trkpt>
      <trkpt lat="45.25989" lon="6.27878">
        <ele>1563</ele>
        <time>2013-08-11T10:39:51Z</time>
      </trkpt>
      <trkpt lat="45.25992" lon="6.27864">
        <ele>1565</ele>
        <time>2013-08-11T10:40:01Z</time>
      </trkpt>
      <trkpt lat="45.25995" lon="6.27851">
        <ele>1568</ele>
        <time>2013-08-11T10:40:08Z</time>
      </trkpt>
      <trkpt lat="45.25993" lon="6.27837">
        <ele>1571</ele>
        <time>2013-08-11T10:40:16Z</time>
      </trkpt>
      <trkpt lat="45.25993" lon="6.27823">
        <ele>1572</ele>
        <time>2013-08-11T10:40:23Z</time>
      </trkpt>
      <trkpt lat="45.2599" lon="6.2781">
        <ele>1571</ele>
        <time>2013-08-11T10:40:30Z</time>
      </trkpt>
      <trkpt lat="45.25984" lon="6.27798">
        <ele>1571</ele>
        <time>2013-08-11T10:40:36Z</time>
      </trkpt>
      <trkpt lat="45.25977" lon="6.27786">
        <ele>1571</ele>
        <time>2013-08-11T10:40:42Z</time>
      </trkpt>
      <trkpt lat="45.25972" lon="6.27772">
        <ele>1571</ele>
        <time>2013-08-11T10:40:47Z</time>
      </trkpt>
      <trkpt lat="45.25967" lon="6.2776">
        <ele>1571</ele>
        <time>2013-08-11T10:40:51Z</time>
      </trkpt>
      <trkpt lat="45.25962" lon="6.27747">
        <ele>1575</ele>
        <time>2013-08-11T10:40:56Z</time>
      </trkpt>
      <trkpt lat="45.25957" lon="6.27735">
        <ele>1574</ele>
        <time>2013-08-11T10:41:02Z</time>
      </trkpt>
      <trkpt lat="45.25952" lon="6.27722">
        <ele>1574</ele>
        <time>2013-08-11T10:41:08Z</time>
      </trkpt>
      <trkpt lat="45.25948" lon="6.2771">
        <ele>1575</ele>
        <time>2013-08-11T10:41:15Z</time>
      </trkpt>
      <trkpt lat="45.25946" lon="6.27696">
        <ele>1575</ele>
        <time>2013-08-11T10:41:22Z</time>
      </trkpt>
      <trkpt lat="45.25944" lon="6.27682">
        <ele>1575</ele>
        <time>2013-08-11T10:41:30Z</time>
      </trkpt>
      <trkpt lat="45.25943" lon="6.27668">
        <ele>1576</ele>
        <time>2013-08-11T10:41:37Z</time>
      </trkpt>
      <trkpt lat="45.25943" lon="6.27654">
        <ele>1582</ele>
        <time>2013-08-11T10:41:44Z</time>
      </trkpt>
      <trkpt lat="45.25942" lon="6.2764">
        <ele>1583</ele>
        <time>2013-08-11T10:41:51Z</time>
      </trkpt>
      <trkpt lat="45.25941" lon="6.27627">
        <ele>1584</ele>
        <time>2013-08-11T10:41:59Z</time>
      </trkpt>
      <trkpt lat="45.25938" lon="6.27613">
        <ele>1586</ele>
        <time>2013-08-11T10:42:08Z</time>
      </trkpt>
      <trkpt lat="45.25935" lon="6.276">
        <ele>1587</ele>
        <time>2013-08-11T10:42:17Z</time>
      </trkpt>
      <trkpt lat="45.2593" lon="6.27588">
        <ele>1587</ele>
        <time>2013-08-11T10:42:29Z</time>
      </trkpt>
      <trkpt lat="45.25924" lon="6.27577">
        <ele>1592</ele>
        <time>2013-08-11T10:42:53Z</time>
      </trkpt>
      <trkpt lat="45.25916" lon="6.2757">
        <ele>1591</ele>
        <time>2013-08-11T10:43:06Z</time>
      </trkpt>
      <trkpt lat="45.25911" lon="6.27558">
        <ele>1592</ele>
        <time>2013-08-11T10:43:17Z</time>
      </trkpt>
      <trkpt lat="45.25908" lon="6.27545">
        <ele>1594</ele>
        <time>2013-08-11T10:43:30Z</time>
      </trkpt>
      <trkpt lat="45.25904" lon="6.27533">
        <ele>1595</ele>
        <time>2013-08-11T10:43:40Z</time>
      </trkpt>
      <trkpt lat="45.25902" lon="6.27519">
        <ele>1597</ele>
        <time>2013-08-11T10:43:50Z</time>
      </trkpt>
      <trkpt lat="45.25896" lon="6.27507">
        <ele>1598</ele>
        <time>2013-08-11T10:43:59Z</time>
      </trkpt>
      <trkpt lat="45.25891" lon="6.27495">
        <ele>1607</ele>
        <time>2013-08-11T10:44:06Z</time>
      </trkpt>
      <trkpt lat="45.25885" lon="6.27484">
        <ele>1608</ele>
        <time>2013-08-11T10:44:15Z</time>
      </trkpt>
      <trkpt lat="45.25877" lon="6.27477">
        <ele>1608</ele>
        <time>2013-08-11T10:44:25Z</time>
      </trkpt>
      <trkpt lat="45.25868" lon="6.27469">
        <ele>1609</ele>
        <time>2013-08-11T10:44:35Z</time>
      </trkpt>
      <trkpt lat="45.25859" lon="6.27461">
        <ele>1609</ele>
        <time>2013-08-11T10:44:47Z</time>
      </trkpt>
      <trkpt lat="45.25849" lon="6.27462">
        <ele>1609</ele>
        <time>2013-08-11T10:44:53Z</time>
      </trkpt>
      <trkpt lat="45.25839" lon="6.27466">
        <ele>1608</ele>
        <time>2013-08-11T10:44:59Z</time>
      </trkpt>
      <trkpt lat="45.25828" lon="6.27468">
        <ele>1608</ele>
        <time>2013-08-11T10:45:05Z</time>
      </trkpt>
      <trkpt lat="45.25818" lon="6.27468">
        <ele>1608</ele>
        <time>2013-08-11T10:45:10Z</time>
      </trkpt>
      <trkpt lat="45.2581" lon="6.27459">
        <ele>1609</ele>
        <time>2013-08-11T10:45:18Z</time>
      </trkpt>
      <trkpt lat="45.25802" lon="6.2745">
        <ele>1611</ele>
        <time>2013-08-11T10:45:27Z</time>
      </trkpt>
      <trkpt lat="45.25797" lon="6.27439">
        <ele>1612</ele>
        <time>2013-08-11T10:45:36Z</time>
      </trkpt>
      <trkpt lat="45.2579" lon="6.27428">
        <ele>1613</ele>
        <time>2013-08-11T10:45:47Z</time>
      </trkpt>
      <trkpt lat="45.25789" lon="6.27414">
        <ele>1623</ele>
        <time>2013-08-11T10:46:00Z</time>
      </trkpt>
      <trkpt lat="45.25784" lon="6.27402">
        <ele>1623</ele>
        <time>2013-08-11T10:46:09Z</time>
      </trkpt>
      <trkpt lat="45.25777" lon="6.27392">
        <ele>1624</ele>
        <time>2013-08-11T10:46:18Z</time>
      </trkpt>
      <trkpt lat="45.25771" lon="6.2738">
        <ele>1625</ele>
        <time>2013-08-11T10:46:26Z</time>
      </trkpt>
      <trkpt lat="45.25767" lon="6.27368">
        <ele>1625</ele>
        <time>2013-08-11T10:46:33Z</time>
      </trkpt>
      <trkpt lat="45.25763" lon="6.27356">
        <ele>1626</ele>
        <time>2013-08-11T10:46:40Z</time>
      </trkpt>
      <trkpt lat="45.25763" lon="6.27341">
        <ele>1627</ele>
        <time>2013-08-11T10:46:48Z</time>
      </trkpt>
      <trkpt lat="45.25762" lon="6.27326">
        <ele>1633</ele>
        <time>2013-08-11T10:46:55Z</time>
      </trkpt>
      <trkpt lat="45.25756" lon="6.27314">
        <ele>1634</ele>
        <time>2013-08-11T10:47:01Z</time>
      </trkpt>
      <trkpt lat="45.25746" lon="6.27308">
        <ele>1632</ele>
        <time>2013-08-11T10:47:08Z</time>
      </trkpt>
      <trkpt lat="45.25737" lon="6.273">
        <ele>1633</ele>
        <time>2013-08-11T10:47:16Z</time>
      </trkpt>
      <trkpt lat="45.25727" lon="6.27295">
        <ele>1634</ele>
        <time>2013-08-11T10:47:22Z</time>
      </trkpt>
      <trkpt lat="45.25718" lon="6.27291">
        <ele>1634</ele>
        <time>2013-08-11T10:47:27Z</time>
      </trkpt>
      <trkpt lat="45.25707" lon="6.27286">
        <ele>1634</ele>
        <time>2013-08-11T10:47:33Z</time>
      </trkpt>
      <trkpt lat="45.25697" lon="6.27279">
        <ele>1635</ele>
        <time>2013-08-11T10:47:39Z</time>
      </trkpt>
      <trkpt lat="45.25688" lon="6.27274">
        <ele>1635</ele>
        <time>2013-08-11T10:47:44Z</time>
      </trkpt>
      <trkpt lat="45.2568" lon="6.27264">
        <ele>1636</ele>
        <time>2013-08-11T10:47:50Z</time>
      </trkpt>
      <trkpt lat="45.25673" lon="6.27251">
        <ele>1636</ele>
        <time>2013-08-11T10:47:56Z</time>
      </trkpt>
      <trkpt lat="45.25668" lon="6.2724">
        <ele>1640</ele>
        <time>2013-08-11T10:48:01Z</time>
      </trkpt>
      <trkpt lat="45.25664" lon="6.27228">
        <ele>1638</ele>
        <time>2013-08-11T10:48:06Z</time>
      </trkpt>
      <trkpt lat="45.25658" lon="6.27217">
        <ele>1638</ele>
        <time>2013-08-11T10:48:11Z</time>
      </trkpt>
      <trkpt lat="45.25651" lon="6.27207">
        <ele>1639</ele>
        <time>2013-08-11T10:48:16Z</time>
      </trkpt>
      <trkpt lat="45.25643" lon="6.272">
        <ele>1639</ele>
        <time>2013-08-11T10:48:21Z</time>
      </trkpt>
      <trkpt lat="45.25634" lon="6.27194">
        <ele>1639</ele>
        <time>2013-08-11T10:48:26Z</time>
      </trkpt>
      <trkpt lat="45.25623" lon="6.27188">
        <ele>1639</ele>
        <time>2013-08-11T10:48:31Z</time>
      </trkpt>
      <trkpt lat="45.25614" lon="6.27181">
        <ele>1639</ele>
        <time>2013-08-11T10:48:35Z</time>
      </trkpt>
      <trkpt lat="45.25605" lon="6.27173">
        <ele>1639</ele>
        <time>2013-08-11T10:48:39Z</time>
      </trkpt>
      <trkpt lat="45.25596" lon="6.27164">
        <ele>1645</ele>
        <time>2013-08-11T10:48:44Z</time>
      </trkpt>
      <trkpt lat="45.2559" lon="6.27153">
        <ele>1646</ele>
        <time>2013-08-11T10:48:49Z</time>
      </trkpt>
      <trkpt lat="45.25583" lon="6.27144">
        <ele>1644</ele>
        <time>2013-08-11T10:48:54Z</time>
      </trkpt>
      <trkpt lat="45.25576" lon="6.27135">
        <ele>1645</ele>
        <time>2013-08-11T10:48:59Z</time>
      </trkpt>
      <trkpt lat="45.25569" lon="6.27126">
        <ele>1647</ele>
        <time>2013-08-11T10:49:04Z</time>
      </trkpt>
      <trkpt lat="45.25562" lon="6.27116">
        <ele>1648</ele>
        <time>2013-08-11T10:49:09Z</time>
      </trkpt>
      <trkpt lat="45.25555" lon="6.27105">
        <ele>1648</ele>
        <time>2013-08-11T10:49:15Z</time>
      </trkpt>
      <trkpt lat="45.25548" lon="6.27095">
        <ele>1649</ele>
        <time>2013-08-11T10:49:20Z</time>
      </trkpt>
      <trkpt lat="45.2554" lon="6.27085">
        <ele>1648</ele>
        <time>2013-08-11T10:49:25Z</time>
      </trkpt>
      <trkpt lat="45.25533" lon="6.27075">
        <ele>1657</ele>
        <time>2013-08-11T10:49:30Z</time>
      </trkpt>
      <trkpt lat="45.25525" lon="6.27069">
        <ele>1656</ele>
        <time>2013-08-11T10:49:35Z</time>
      </trkpt>
      <trkpt lat="45.25516" lon="6.27064">
        <ele>1656</ele>
        <time>2013-08-11T10:49:40Z</time>
      </trkpt>
      <trkpt lat="45.25507" lon="6.2706">
        <ele>1655</ele>
        <time>2013-08-11T10:49:45Z</time>
      </trkpt>
      <trkpt lat="45.25498" lon="6.27056">
        <ele>1649</ele>
        <time>2013-08-11T10:49:51Z</time>
      </trkpt>
      <trkpt lat="45.25491" lon="6.27047">
        <ele>1649</ele>
        <time>2013-08-11T10:49:56Z</time>
      </trkpt>
      <trkpt lat="45.25489" lon="6.27033">
        <ele>1650</ele>
        <time>2013-08-11T10:50:01Z</time>
      </trkpt>
      <trkpt lat="45.25494" lon="6.2702">
        <ele>1652</ele>
        <time>2013-08-11T10:50:07Z</time>
      </trkpt>
      <trkpt lat="45.25502" lon="6.2701">
        <ele>1658</ele>
        <time>2013-08-11T10:50:12Z</time>
      </trkpt>
      <trkpt lat="45.2551" lon="6.27">
        <ele>1660</ele>
        <time>2013-08-11T10:50:18Z</time>
      </trkpt>
      <trkpt lat="45.25517" lon="6.2699">
        <ele>1662</ele>
        <time>2013-08-11T10:50:24Z</time>
      </trkpt>
      <trkpt lat="45.25523" lon="6.26978">
        <ele>1663</ele>
        <time>2013-08-11T10:50:30Z</time>
      </trkpt>
      <trkpt lat="45.25527" lon="6.26964">
        <ele>1664</ele>
        <time>2013-08-11T10:50:36Z</time>
      </trkpt>
      <trkpt lat="45.25531" lon="6.2695">
        <ele>1664</ele>
        <time>2013-08-11T10:50:42Z</time>
      </trkpt>
      <trkpt lat="45.25533" lon="6.26937">
        <ele>1664</ele>
        <time>2013-08-11T10:50:47Z</time>
      </trkpt>
      <trkpt lat="45.25535" lon="6.26924">
        <ele>1664</ele>
        <time>2013-08-11T10:50:52Z</time>
      </trkpt>
      <trkpt lat="45.25535" lon="6.26908">
        <ele>1666</ele>
        <time>2013-08-11T10:50:58Z</time>
      </trkpt>
      <trkpt lat="45.25535" lon="6.26894">
        <ele>1667</ele>
        <time>2013-08-11T10:51:03Z</time>
      </trkpt>
      <trkpt lat="45.25535" lon="6.2688">
        <ele>1667</ele>
        <time>2013-08-11T10:51:08Z</time>
      </trkpt>
      <trkpt lat="45.25533" lon="6.26867">
        <ele>1667</ele>
        <time>2013-08-11T10:51:14Z</time>
      </trkpt>
      <trkpt lat="45.25529" lon="6.26852">
        <ele>1668</ele>
        <time>2013-08-11T10:51:20Z</time>
      </trkpt>
      <trkpt lat="45.25528" lon="6.26837">
        <ele>1668</ele>
        <time>2013-08-11T10:51:25Z</time>
      </trkpt>
      <trkpt lat="45.25526" lon="6.26822">
        <ele>1670</ele>
        <time>2013-08-11T10:51:30Z</time>
      </trkpt>
      <trkpt lat="45.25525" lon="6.26809">
        <ele>1670</ele>
        <time>2013-08-11T10:51:34Z</time>
      </trkpt>
      <trkpt lat="45.25523" lon="6.26792">
        <ele>1670</ele>
        <time>2013-08-11T10:51:38Z</time>
      </trkpt>
      <trkpt lat="45.25523" lon="6.26777">
        <ele>1671</ele>
        <time>2013-08-11T10:51:41Z</time>
      </trkpt>
      <trkpt lat="45.25522" lon="6.2676">
        <ele>1671</ele>
        <time>2013-08-11T10:51:45Z</time>
      </trkpt>
      <trkpt lat="45.25521" lon="6.26743">
        <ele>1673</ele>
        <time>2013-08-11T10:51:49Z</time>
      </trkpt>
      <trkpt lat="45.25519" lon="6.26729">
        <ele>1673</ele>
        <time>2013-08-11T10:51:53Z</time>
      </trkpt>
      <trkpt lat="45.25517" lon="6.26712">
        <ele>1674</ele>
        <time>2013-08-11T10:51:57Z</time>
      </trkpt>
      <trkpt lat="45.25515" lon="6.26695">
        <ele>1674</ele>
        <time>2013-08-11T10:52:01Z</time>
      </trkpt>
      <trkpt lat="45.2551" lon="6.26679">
        <ele>1675</ele>
        <time>2013-08-11T10:52:05Z</time>
      </trkpt>
      <trkpt lat="45.25507" lon="6.26666">
        <ele>1676</ele>
        <time>2013-08-11T10:52:08Z</time>
      </trkpt>
      <trkpt lat="45.25505" lon="6.26653">
        <ele>1677</ele>
        <time>2013-08-11T10:52:11Z</time>
      </trkpt>
      <trkpt lat="45.25502" lon="6.26641">
        <ele>1677</ele>
        <time>2013-08-11T10:52:14Z</time>
      </trkpt>
      <trkpt lat="45.25498" lon="6.26625">
        <ele>1676</ele>
        <time>2013-08-11T10:52:18Z</time>
      </trkpt>
      <trkpt lat="45.25493" lon="6.26609">
        <ele>1677</ele>
        <time>2013-08-11T10:52:22Z</time>
      </trkpt>
      <trkpt lat="45.25491" lon="6.26596">
        <ele>1679</ele>
        <time>2013-08-11T10:52:25Z</time>
      </trkpt>
      <trkpt lat="45.25489" lon="6.26582">
        <ele>1681</ele>
        <time>2013-08-11T10:52:28Z</time>
      </trkpt>
      <trkpt lat="45.25488" lon="6.26566">
        <ele>1681</ele>
        <time>2013-08-11T10:52:32Z</time>
      </trkpt>
      <trkpt lat="45.25486" lon="6.2655">
        <ele>1681</ele>
        <time>2013-08-11T10:52:36Z</time>
      </trkpt>
      <trkpt lat="45.25484" lon="6.26535">
        <ele>1681</ele>
        <time>2013-08-11T10:52:40Z</time>
      </trkpt>
      <trkpt lat="45.25482" lon="6.26521">
        <ele>1682</ele>
        <time>2013-08-11T10:52:43Z</time>
      </trkpt>
      <trkpt lat="45.25481" lon="6.26508">
        <ele>1682</ele>
        <time>2013-08-11T10:52:46Z</time>
      </trkpt>
      <trkpt lat="45.25478" lon="6.26493">
        <ele>1684</ele>
        <time>2013-08-11T10:52:49Z</time>
      </trkpt>
      <trkpt lat="45.25477" lon="6.26475">
        <ele>1684</ele>
        <time>2013-08-11T10:52:52Z</time>
      </trkpt>
      <trkpt lat="45.25474" lon="6.26459">
        <ele>1684</ele>
        <time>2013-08-11T10:52:55Z</time>
      </trkpt>
      <trkpt lat="45.2547" lon="6.26445">
        <ele>1684</ele>
        <time>2013-08-11T10:52:58Z</time>
      </trkpt>
      <trkpt lat="45.25468" lon="6.2643">
        <ele>1685</ele>
        <time>2013-08-11T10:53:01Z</time>
      </trkpt>
      <trkpt lat="45.25465" lon="6.26415">
        <ele>1686</ele>
        <time>2013-08-11T10:53:04Z</time>
      </trkpt>
      <trkpt lat="45.25463" lon="6.26401">
        <ele>1686</ele>
        <time>2013-08-11T10:53:07Z</time>
      </trkpt>
      <trkpt lat="45.2546" lon="6.26386">
        <ele>1686</ele>
        <time>2013-08-11T10:53:10Z</time>
      </trkpt>
      <trkpt lat="45.25455" lon="6.26374">
        <ele>1686</ele>
        <time>2013-08-11T10:53:13Z</time>
      </trkpt>
      <trkpt lat="45.25453" lon="6.26356">
        <ele>1687</ele>
        <time>2013-08-11T10:53:16Z</time>
      </trkpt>
      <trkpt lat="45.2545" lon="6.2634">
        <ele>1687</ele>
        <time>2013-08-11T10:53:19Z</time>
      </trkpt>
      <trkpt lat="45.25444" lon="6.26323">
        <ele>1688</ele>
        <time>2013-08-11T10:53:22Z</time>
      </trkpt>
      <trkpt lat="45.2544" lon="6.26308">
        <ele>1689</ele>
        <time>2013-08-11T10:53:25Z</time>
      </trkpt>
      <trkpt lat="45.25437" lon="6.26292">
        <ele>1689</ele>
        <time>2013-08-11T10:53:28Z</time>
      </trkpt>
      <trkpt lat="45.25434" lon="6.26273">
        <ele>1690</ele>
        <time>2013-08-11T10:53:31Z</time>
      </trkpt>
      <trkpt lat="45.25432" lon="6.26254">
        <ele>1690</ele>
        <time>2013-08-11T10:53:34Z</time>
      </trkpt>
      <trkpt lat="45.2543" lon="6.26236">
        <ele>1691</ele>
        <time>2013-08-11T10:53:37Z</time>
      </trkpt>
      <trkpt lat="45.25427" lon="6.26224">
        <ele>1691</ele>
        <time>2013-08-11T10:53:39Z</time>
      </trkpt>
      <trkpt lat="45.25423" lon="6.26211">
        <ele>1691</ele>
        <time>2013-08-11T10:53:41Z</time>
      </trkpt>
      <trkpt lat="45.25418" lon="6.26195">
        <ele>1691</ele>
        <time>2013-08-11T10:53:44Z</time>
      </trkpt>
      <trkpt lat="45.25415" lon="6.26182">
        <ele>1693</ele>
        <time>2013-08-11T10:53:47Z</time>
      </trkpt>
      <trkpt lat="45.25415" lon="6.26162">
        <ele>1694</ele>
        <time>2013-08-11T10:53:50Z</time>
      </trkpt>
      <trkpt lat="45.25421" lon="6.2615">
        <ele>1693</ele>
        <time>2013-08-11T10:53:52Z</time>
      </trkpt>
      <trkpt lat="45.2543" lon="6.26144">
        <ele>1692</ele>
        <time>2013-08-11T10:53:54Z</time>
      </trkpt>
      <trkpt lat="45.25439" lon="6.26137">
        <ele>1692</ele>
        <time>2013-08-11T10:53:56Z</time>
      </trkpt>
      <trkpt lat="45.25446" lon="6.26126">
        <ele>1692</ele>
        <time>2013-08-11T10:53:58Z</time>
      </trkpt>
      <trkpt lat="45.25451" lon="6.26113">
        <ele>1692</ele>
        <time>2013-08-11T10:54:00Z</time>
      </trkpt>
      <trkpt lat="45.25453" lon="6.261">
        <ele>1692</ele>
        <time>2013-08-11T10:54:02Z</time>
      </trkpt>
      <trkpt lat="45.25455" lon="6.26084">
        <ele>1692</ele>
        <time>2013-08-11T10:54:04Z</time>
      </trkpt>
      <trkpt lat="45.25458" lon="6.2607">
        <ele>1694</ele>
        <time>2013-08-11T10:54:06Z</time>
      </trkpt>
      <trkpt lat="45.25461" lon="6.26053">
        <ele>1694</ele>
        <time>2013-08-11T10:54:09Z</time>
      </trkpt>
      <trkpt lat="45.25464" lon="6.26037">
        <ele>1694</ele>
        <time>2013-08-11T10:54:12Z</time>
      </trkpt>
      <trkpt lat="45.25467" lon="6.26021">
        <ele>1695</ele>
        <time>2013-08-11T10:54:15Z</time>
      </trkpt>
      <trkpt lat="45.2547" lon="6.26004">
        <ele>1695</ele>
        <time>2013-08-11T10:54:18Z</time>
      </trkpt>
      <trkpt lat="45.25474" lon="6.25987">
        <ele>1697</ele>
        <time>2013-08-11T10:54:21Z</time>
      </trkpt>
      <trkpt lat="45.25477" lon="6.25972">
        <ele>1697</ele>
        <time>2013-08-11T10:54:24Z</time>
      </trkpt>
      <trkpt lat="45.25481" lon="6.25958">
        <ele>1697</ele>
        <time>2013-08-11T10:54:27Z</time>
      </trkpt>
      <trkpt lat="45.25484" lon="6.25942">
        <ele>1698</ele>
        <time>2013-08-11T10:54:30Z</time>
      </trkpt>
      <trkpt lat="45.25488" lon="6.25925">
        <ele>1698</ele>
        <time>2013-08-11T10:54:33Z</time>
      </trkpt>
      <trkpt lat="45.25493" lon="6.25911">
        <ele>1699</ele>
        <time>2013-08-11T10:54:36Z</time>
      </trkpt>
      <trkpt lat="45.255" lon="6.25899">
        <ele>1700</ele>
        <time>2013-08-11T10:54:39Z</time>
      </trkpt>
      <trkpt lat="45.25506" lon="6.2589">
        <ele>1699</ele>
        <time>2013-08-11T10:54:42Z</time>
      </trkpt>
      <trkpt lat="45.25513" lon="6.25879">
        <ele>1700</ele>
        <time>2013-08-11T10:54:45Z</time>
      </trkpt>
      <trkpt lat="45.2552" lon="6.2587">
        <ele>1700</ele>
        <time>2013-08-11T10:54:48Z</time>
      </trkpt>
      <trkpt lat="45.25529" lon="6.25859">
        <ele>1700</ele>
        <time>2013-08-11T10:54:52Z</time>
      </trkpt>
      <trkpt lat="45.25537" lon="6.25846">
        <ele>1701</ele>
        <time>2013-08-11T10:54:56Z</time>
      </trkpt>
      <trkpt lat="45.25543" lon="6.25837">
        <ele>1701</ele>
        <time>2013-08-11T10:54:59Z</time>
      </trkpt>
      <trkpt lat="45.25552" lon="6.25826">
        <ele>1704</ele>
        <time>2013-08-11T10:55:03Z</time>
      </trkpt>
      <trkpt lat="45.25559" lon="6.25815">
        <ele>1704</ele>
        <time>2013-08-11T10:55:07Z</time>
      </trkpt>
      <trkpt lat="45.25566" lon="6.25804">
        <ele>1704</ele>
        <time>2013-08-11T10:55:11Z</time>
      </trkpt>
      <trkpt lat="45.25575" lon="6.25793">
        <ele>1704</ele>
        <time>2013-08-11T10:55:15Z</time>
      </trkpt>
      <trkpt lat="45.25583" lon="6.25782">
        <ele>1705</ele>
        <time>2013-08-11T10:55:19Z</time>
      </trkpt>
      <trkpt lat="45.2559" lon="6.25769">
        <ele>1706</ele>
        <time>2013-08-11T10:55:23Z</time>
      </trkpt>
      <trkpt lat="45.25592" lon="6.25756">
        <ele>1706</ele>
        <time>2013-08-11T10:55:27Z</time>
      </trkpt>
      <trkpt lat="45.25595" lon="6.2574">
        <ele>1708</ele>
        <time>2013-08-11T10:55:31Z</time>
      </trkpt>
      <trkpt lat="45.25599" lon="6.25727">
        <ele>1709</ele>
        <time>2013-08-11T10:55:35Z</time>
      </trkpt>
      <trkpt lat="45.25603" lon="6.25713">
        <ele>1710</ele>
        <time>2013-08-11T10:55:39Z</time>
      </trkpt>
      <trkpt lat="45.25605" lon="6.25699">
        <ele>1710</ele>
        <time>2013-08-11T10:55:44Z</time>
      </trkpt>
      <trkpt lat="45.25606" lon="6.25684">
        <ele>1711</ele>
        <time>2013-08-11T10:55:48Z</time>
      </trkpt>
      <trkpt lat="45.25608" lon="6.25669">
        <ele>1711</ele>
        <time>2013-08-11T10:55:52Z</time>
      </trkpt>
      <trkpt lat="45.25612" lon="6.25655">
        <ele>1714</ele>
        <time>2013-08-11T10:55:57Z</time>
      </trkpt>
      <trkpt lat="45.25614" lon="6.25641">
        <ele>1715</ele>
        <time>2013-08-11T10:56:03Z</time>
      </trkpt>
      <trkpt lat="45.25616" lon="6.25625">
        <ele>1715</ele>
        <time>2013-08-11T10:56:09Z</time>
      </trkpt>
      <trkpt lat="45.25617" lon="6.25611">
        <ele>1716</ele>
        <time>2013-08-11T10:56:16Z</time>
      </trkpt>
      <trkpt lat="45.25617" lon="6.25597">
        <ele>1716</ele>
        <time>2013-08-11T10:56:23Z</time>
      </trkpt>
      <trkpt lat="45.25617" lon="6.25582">
        <ele>1721</ele>
        <time>2013-08-11T10:56:31Z</time>
      </trkpt>
      <trkpt lat="45.25618" lon="6.25569">
        <ele>1721</ele>
        <time>2013-08-11T10:56:38Z</time>
      </trkpt>
      <trkpt lat="45.25618" lon="6.25555">
        <ele>1722</ele>
        <time>2013-08-11T10:56:44Z</time>
      </trkpt>
      <trkpt lat="45.2562" lon="6.25541">
        <ele>1723</ele>
        <time>2013-08-11T10:56:54Z</time>
      </trkpt>
      <trkpt lat="45.25621" lon="6.25527">
        <ele>1724</ele>
        <time>2013-08-11T10:57:01Z</time>
      </trkpt>
      <trkpt lat="45.25621" lon="6.25511">
        <ele>1724</ele>
        <time>2013-08-11T10:57:06Z</time>
      </trkpt>
      <trkpt lat="45.25623" lon="6.25499">
        <ele>1730</ele>
        <time>2013-08-11T10:57:11Z</time>
      </trkpt>
      <trkpt lat="45.25625" lon="6.25485">
        <ele>1731</ele>
        <time>2013-08-11T10:57:16Z</time>
      </trkpt>
      <trkpt lat="45.25627" lon="6.25471">
        <ele>1731</ele>
        <time>2013-08-11T10:57:23Z</time>
      </trkpt>
      <trkpt lat="45.25625" lon="6.25457">
        <ele>1732</ele>
        <time>2013-08-11T10:57:30Z</time>
      </trkpt>
      <trkpt lat="45.25627" lon="6.25445">
        <ele>1732</ele>
        <time>2013-08-11T10:57:36Z</time>
      </trkpt>
      <trkpt lat="45.25627" lon="6.2543">
        <ele>1733</ele>
        <time>2013-08-11T10:57:43Z</time>
      </trkpt>
      <trkpt lat="45.2563" lon="6.25417">
        <ele>1733</ele>
        <time>2013-08-11T10:57:49Z</time>
      </trkpt>
      <trkpt lat="45.25633" lon="6.25404">
        <ele>1738</ele>
        <time>2013-08-11T10:57:54Z</time>
      </trkpt>
      <trkpt lat="45.25632" lon="6.2539">
        <ele>1738</ele>
        <time>2013-08-11T10:58:01Z</time>
      </trkpt>
      <trkpt lat="45.25634" lon="6.25376">
        <ele>1738</ele>
        <time>2013-08-11T10:58:08Z</time>
      </trkpt>
      <trkpt lat="45.25634" lon="6.25361">
        <ele>1739</ele>
        <time>2013-08-11T10:58:14Z</time>
      </trkpt>
      <trkpt lat="45.25632" lon="6.25348">
        <ele>1739</ele>
        <time>2013-08-11T10:58:20Z</time>
      </trkpt>
      <trkpt lat="45.25633" lon="6.25333">
        <ele>1740</ele>
        <time>2013-08-11T10:58:27Z</time>
      </trkpt>
      <trkpt lat="45.25633" lon="6.25319">
        <ele>1743</ele>
        <time>2013-08-11T10:58:34Z</time>
      </trkpt>
      <trkpt lat="45.25634" lon="6.25305">
        <ele>1744</ele>
        <time>2013-08-11T10:58:42Z</time>
      </trkpt>
      <trkpt lat="45.25635" lon="6.25291">
        <ele>1744</ele>
        <time>2013-08-11T10:58:49Z</time>
      </trkpt>
      <trkpt lat="45.25637" lon="6.25278">
        <ele>1745</ele>
        <time>2013-08-11T10:58:56Z</time>
      </trkpt>
      <trkpt lat="45.2564" lon="6.25265">
        <ele>1745</ele>
        <time>2013-08-11T10:59:03Z</time>
      </trkpt>
      <trkpt lat="45.25643" lon="6.25253">
        <ele>1745</ele>
        <time>2013-08-11T10:59:10Z</time>
      </trkpt>
      <trkpt lat="45.25647" lon="6.25239">
        <ele>1749</ele>
        <time>2013-08-11T10:59:17Z</time>
      </trkpt>
      <trkpt lat="45.25649" lon="6.25227">
        <ele>1750</ele>
        <time>2013-08-11T10:59:23Z</time>
      </trkpt>
      <trkpt lat="45.25653" lon="6.25213">
        <ele>1750</ele>
        <time>2013-08-11T10:59:30Z</time>
      </trkpt>
      <trkpt lat="45.25657" lon="6.252">
        <ele>1751</ele>
        <time>2013-08-11T10:59:37Z</time>
      </trkpt>
      <trkpt lat="45.25663" lon="6.25188">
        <ele>1752</ele>
        <time>2013-08-11T10:59:44Z</time>
      </trkpt>
      <trkpt lat="45.25672" lon="6.25183">
        <ele>1753</ele>
        <time>2013-08-11T10:59:51Z</time>
      </trkpt>
      <trkpt lat="45.25682" lon="6.2518">
        <ele>1754</ele>
        <time>2013-08-11T10:59:59Z</time>
      </trkpt>
      <trkpt lat="45.25693" lon="6.25179">
        <ele>1755</ele>
        <time>2013-08-11T11:00:07Z</time>
      </trkpt>
      <trkpt lat="45.25703" lon="6.2518">
        <ele>1755</ele>
        <time>2013-08-11T11:00:16Z</time>
      </trkpt>
      <trkpt lat="45.25713" lon="6.25178">
        <ele>1756</ele>
        <time>2013-08-11T11:00:24Z</time>
      </trkpt>
      <trkpt lat="45.25723" lon="6.25176">
        <ele>1757</ele>
        <time>2013-08-11T11:00:33Z</time>
      </trkpt>
      <trkpt lat="45.25733" lon="6.25173">
        <ele>1759</ele>
        <time>2013-08-11T11:00:44Z</time>
      </trkpt>
      <trkpt lat="45.25742" lon="6.25168">
        <ele>1760</ele>
        <time>2013-08-11T11:00:53Z</time>
      </trkpt>
      <trkpt lat="45.25751" lon="6.25164">
        <ele>1763</ele>
        <time>2013-08-11T11:01:01Z</time>
      </trkpt>
      <trkpt lat="45.2576" lon="6.25158">
        <ele>1766</ele>
        <time>2013-08-11T11:01:10Z</time>
      </trkpt>
      <trkpt lat="45.25769" lon="6.2515">
        <ele>1769</ele>
        <time>2013-08-11T11:01:19Z</time>
      </trkpt>
      <trkpt lat="45.25778" lon="6.25145">
        <ele>1770</ele>
        <time>2013-08-11T11:01:27Z</time>
      </trkpt>
      <trkpt lat="45.25788" lon="6.2514">
        <ele>1771</ele>
        <time>2013-08-11T11:01:35Z</time>
      </trkpt>
      <trkpt lat="45.25797" lon="6.25139">
        <ele>1772</ele>
        <time>2013-08-11T11:01:43Z</time>
      </trkpt>
      <trkpt lat="45.25807" lon="6.25142">
        <ele>1772</ele>
        <time>2013-08-11T11:01:51Z</time>
      </trkpt>
      <trkpt lat="45.25816" lon="6.25148">
        <ele>1772</ele>
        <time>2013-08-11T11:01:59Z</time>
      </trkpt>
      <trkpt lat="45.25823" lon="6.25157">
        <ele>1771</ele>
        <time>2013-08-11T11:02:07Z</time>
      </trkpt>
      <trkpt lat="45.25833" lon="6.25161">
        <ele>1771</ele>
        <time>2013-08-11T11:02:16Z</time>
      </trkpt>
      <trkpt lat="45.25843" lon="6.25158">
        <ele>1774</ele>
        <time>2013-08-11T11:02:24Z</time>
      </trkpt>
      <trkpt lat="45.25853" lon="6.25156">
        <ele>1775</ele>
        <time>2013-08-11T11:02:32Z</time>
      </trkpt>
      <trkpt lat="45.25863" lon="6.25153">
        <ele>1776</ele>
        <time>2013-08-11T11:02:40Z</time>
      </trkpt>
      <trkpt lat="45.25871" lon="6.25147">
        <ele>1777</ele>
        <time>2013-08-11T11:02:48Z</time>
      </trkpt>
      <trkpt lat="45.25879" lon="6.25139">
        <ele>1778</ele>
        <time>2013-08-11T11:02:56Z</time>
      </trkpt>
      <trkpt lat="45.25887" lon="6.2513">
        <ele>1779</ele>
        <time>2013-08-11T11:03:04Z</time>
      </trkpt>
      <trkpt lat="45.25894" lon="6.25121">
        <ele>1779</ele>
        <time>2013-08-11T11:03:11Z</time>
      </trkpt>
      <trkpt lat="45.25901" lon="6.25111">
        <ele>1780</ele>
        <time>2013-08-11T11:03:19Z</time>
      </trkpt>
      <trkpt lat="45.25905" lon="6.25098">
        <ele>1782</ele>
        <time>2013-08-11T11:03:27Z</time>
      </trkpt>
      <trkpt lat="45.25909" lon="6.25086">
        <ele>1783</ele>
        <time>2013-08-11T11:03:35Z</time>
      </trkpt>
      <trkpt lat="45.25909" lon="6.25073">
        <ele>1787</ele>
        <time>2013-08-11T11:03:41Z</time>
      </trkpt>
      <trkpt lat="45.25905" lon="6.2506">
        <ele>1789</ele>
        <time>2013-08-11T11:03:51Z</time>
      </trkpt>
      <trkpt lat="45.25899" lon="6.2505">
        <ele>1790</ele>
        <time>2013-08-11T11:04:00Z</time>
      </trkpt>
      <trkpt lat="45.2589" lon="6.25042">
        <ele>1791</ele>
        <time>2013-08-11T11:04:12Z</time>
      </trkpt>
      <trkpt lat="45.25882" lon="6.25035">
        <ele>1792</ele>
        <time>2013-08-11T11:04:23Z</time>
      </trkpt>
      <trkpt lat="45.25873" lon="6.25029">
        <ele>1792</ele>
        <time>2013-08-11T11:04:32Z</time>
      </trkpt>
      <trkpt lat="45.25863" lon="6.25025">
        <ele>1793</ele>
        <time>2013-08-11T11:04:42Z</time>
      </trkpt>
      <trkpt lat="45.25854" lon="6.25024">
        <ele>1793</ele>
        <time>2013-08-11T11:04:51Z</time>
      </trkpt>
      <trkpt lat="45.25844" lon="6.25023">
        <ele>1793</ele>
        <time>2013-08-11T11:04:59Z</time>
      </trkpt>
      <trkpt lat="45.25833" lon="6.25022">
        <ele>1791</ele>
        <time>2013-08-11T11:05:09Z</time>
      </trkpt>
      <trkpt lat="45.2583" lon="6.25009">
        <ele>1795</ele>
        <time>2013-08-11T11:05:18Z</time>
      </trkpt>
      <trkpt lat="45.25835" lon="6.24998">
        <ele>1800</ele>
        <time>2013-08-11T11:05:28Z</time>
      </trkpt>
      <trkpt lat="45.25842" lon="6.24987">
        <ele>1802</ele>
        <time>2013-08-11T11:05:38Z</time>
      </trkpt>
      <trkpt lat="45.25848" lon="6.24976">
        <ele>1804</ele>
        <time>2013-08-11T11:05:47Z</time>
      </trkpt>
      <trkpt lat="45.25852" lon="6.24964">
        <ele>1805</ele>
        <time>2013-08-11T11:05:56Z</time>
      </trkpt>
      <trkpt lat="45.25858" lon="6.24953">
        <ele>1806</ele>
        <time>2013-08-11T11:06:06Z</time>
      </trkpt>
      <trkpt lat="45.25864" lon="6.24941">
        <ele>1807</ele>
        <time>2013-08-11T11:06:16Z</time>
      </trkpt>
      <trkpt lat="45.2587" lon="6.24931">
        <ele>1808</ele>
        <time>2013-08-11T11:06:25Z</time>
      </trkpt>
      <trkpt lat="45.25877" lon="6.24922">
        <ele>1808</ele>
        <time>2013-08-11T11:06:34Z</time>
      </trkpt>
      <trkpt lat="45.25884" lon="6.24913">
        <ele>1817</ele>
        <time>2013-08-11T11:06:44Z</time>
      </trkpt>
      <trkpt lat="45.25894" lon="6.24907">
        <ele>1818</ele>
        <time>2013-08-11T11:06:55Z</time>
      </trkpt>
      <trkpt lat="45.25901" lon="6.24898">
        <ele>1818</ele>
        <time>2013-08-11T11:07:07Z</time>
      </trkpt>
      <trkpt lat="45.25908" lon="6.24888">
        <ele>1819</ele>
        <time>2013-08-11T11:07:18Z</time>
      </trkpt>
      <trkpt lat="45.25915" lon="6.24878">
        <ele>1820</ele>
        <time>2013-08-11T11:07:28Z</time>
      </trkpt>
      <trkpt lat="45.25919" lon="6.24865">
        <ele>1823</ele>
        <time>2013-08-11T11:07:43Z</time>
      </trkpt>
      <trkpt lat="45.25923" lon="6.24852">
        <ele>1824</ele>
        <time>2013-08-11T11:07:53Z</time>
      </trkpt>
      <trkpt lat="45.25925" lon="6.24839">
        <ele>1826</ele>
        <time>2013-08-11T11:08:04Z</time>
      </trkpt>
      <trkpt lat="45.25926" lon="6.24825">
        <ele>1830</ele>
        <time>2013-08-11T11:08:16Z</time>
      </trkpt>
      <trkpt lat="45.25927" lon="6.24812">
        <ele>1832</ele>
        <time>2013-08-11T11:08:25Z</time>
      </trkpt>
      <trkpt lat="45.25929" lon="6.24798">
        <ele>1833</ele>
        <time>2013-08-11T11:08:36Z</time>
      </trkpt>
      <trkpt lat="45.2593" lon="6.24785">
        <ele>1835</ele>
        <time>2013-08-11T11:08:46Z</time>
      </trkpt>
      <trkpt lat="45.25931" lon="6.2477">
        <ele>1836</ele>
        <time>2013-08-11T11:08:57Z</time>
      </trkpt>
      <trkpt lat="45.25934" lon="6.24758">
        <ele>1837</ele>
        <time>2013-08-11T11:09:06Z</time>
      </trkpt>
      <trkpt lat="45.25937" lon="6.24745">
        <ele>1843</ele>
        <time>2013-08-11T11:09:15Z</time>
      </trkpt>
      <trkpt lat="45.25939" lon="6.24731">
        <ele>1843</ele>
        <time>2013-08-11T11:09:26Z</time>
      </trkpt>
      <trkpt lat="45.25938" lon="6.24716">
        <ele>1844</ele>
        <time>2013-08-11T11:09:37Z</time>
      </trkpt>
      <trkpt lat="45.25937" lon="6.24703">
        <ele>1845</ele>
        <time>2013-08-11T11:09:45Z</time>
      </trkpt>
      <trkpt lat="45.25936" lon="6.24689">
        <ele>1846</ele>
        <time>2013-08-11T11:09:52Z</time>
      </trkpt>
      <trkpt lat="45.25933" lon="6.24677">
        <ele>1848</ele>
        <time>2013-08-11T11:10:01Z</time>
      </trkpt>
      <trkpt lat="45.25932" lon="6.24662">
        <ele>1853</ele>
        <time>2013-08-11T11:10:12Z</time>
      </trkpt>
      <trkpt lat="45.25933" lon="6.24648">
        <ele>1854</ele>
        <time>2013-08-11T11:10:22Z</time>
      </trkpt>
      <trkpt lat="45.25934" lon="6.24635">
        <ele>1855</ele>
        <time>2013-08-11T11:10:32Z</time>
      </trkpt>
      <trkpt lat="45.25935" lon="6.2462">
        <ele>1856</ele>
        <time>2013-08-11T11:10:43Z</time>
      </trkpt>
      <trkpt lat="45.25937" lon="6.24607">
        <ele>1858</ele>
        <time>2013-08-11T11:10:54Z</time>
      </trkpt>
      <trkpt lat="45.25937" lon="6.24593">
        <ele>1859</ele>
        <time>2013-08-11T11:11:05Z</time>
      </trkpt>
      <trkpt lat="45.25941" lon="6.2458">
        <ele>1866</ele>
        <time>2013-08-11T11:11:15Z</time>
      </trkpt>
      <trkpt lat="45.25946" lon="6.24568">
        <ele>1866</ele>
        <time>2013-08-11T11:11:24Z</time>
      </trkpt>
      <trkpt lat="45.25952" lon="6.24557">
        <ele>1866</ele>
        <time>2013-08-11T11:11:32Z</time>
      </trkpt>
      <trkpt lat="45.25958" lon="6.24547">
        <ele>1866</ele>
        <time>2013-08-11T11:11:38Z</time>
      </trkpt>
      <trkpt lat="45.25965" lon="6.24534">
        <ele>1866</ele>
        <time>2013-08-11T11:11:46Z</time>
      </trkpt>
      <trkpt lat="45.2597" lon="6.24522">
        <ele>1866</ele>
        <time>2013-08-11T11:11:53Z</time>
      </trkpt>
      <trkpt lat="45.25973" lon="6.24508">
        <ele>1867</ele>
        <time>2013-08-11T11:12:00Z</time>
      </trkpt>
      <trkpt lat="45.25976" lon="6.24495">
        <ele>1872</ele>
        <time>2013-08-11T11:12:06Z</time>
      </trkpt>
      <trkpt lat="45.25981" lon="6.24483">
        <ele>1872</ele>
        <time>2013-08-11T11:12:12Z</time>
      </trkpt>
      <trkpt lat="45.25988" lon="6.24474">
        <ele>1872</ele>
        <time>2013-08-11T11:12:17Z</time>
      </trkpt>
      <trkpt lat="45.25998" lon="6.24467">
        <ele>1872</ele>
        <time>2013-08-11T11:12:23Z</time>
      </trkpt>
      <trkpt lat="45.26011" lon="6.24458">
        <ele>1868</ele>
        <time>2013-08-11T11:12:26Z</time>
      </trkpt>
      <trkpt lat="45.26022" lon="6.24448">
        <ele>1869</ele>
        <time>2013-08-11T11:12:28Z</time>
      </trkpt>
      <trkpt lat="45.2603" lon="6.24438">
        <ele>1869</ele>
        <time>2013-08-11T11:12:30Z</time>
      </trkpt>
      <trkpt lat="45.26037" lon="6.24423">
        <ele>1870</ele>
        <time>2013-08-11T11:12:33Z</time>
      </trkpt>
      <trkpt lat="45.26041" lon="6.2441">
        <ele>1878</ele>
        <time>2013-08-11T11:12:38Z</time>
      </trkpt>
      <trkpt lat="45.26045" lon="6.24398">
        <ele>1878</ele>
        <time>2013-08-11T11:12:44Z</time>
      </trkpt>
      <trkpt lat="45.2605" lon="6.24387">
        <ele>1879</ele>
        <time>2013-08-11T11:12:56Z</time>
      </trkpt>
      <trkpt lat="45.26057" lon="6.24377">
        <ele>1880</ele>
        <time>2013-08-11T11:13:05Z</time>
      </trkpt>
      <trkpt lat="45.26066" lon="6.24369">
        <ele>1881</ele>
        <time>2013-08-11T11:13:18Z</time>
      </trkpt>
      <trkpt lat="45.26075" lon="6.24372">
        <ele>1881</ele>
        <time>2013-08-11T11:13:29Z</time>
      </trkpt>
      <trkpt lat="45.26083" lon="6.2438">
        <ele>1880</ele>
        <time>2013-08-11T11:13:40Z</time>
      </trkpt>
      <trkpt lat="45.26092" lon="6.24388">
        <ele>1886</ele>
        <time>2013-08-11T11:13:51Z</time>
      </trkpt>
      <trkpt lat="45.261" lon="6.24391">
        <ele>1886</ele>
        <time>2013-08-11T11:14:02Z</time>
      </trkpt>
      <trkpt lat="45.26111" lon="6.24392">
        <ele>1888</ele>
        <time>2013-08-11T11:14:13Z</time>
      </trkpt>
      <trkpt lat="45.2612" lon="6.24392">
        <ele>1889</ele>
        <time>2013-08-11T11:14:23Z</time>
      </trkpt>
      <trkpt lat="45.26129" lon="6.24388">
        <ele>1890</ele>
        <time>2013-08-11T11:14:33Z</time>
      </trkpt>
      <trkpt lat="45.26131" lon="6.24375">
        <ele>1892</ele>
        <time>2013-08-11T11:14:47Z</time>
      </trkpt>
      <trkpt lat="45.26125" lon="6.24363">
        <ele>1892</ele>
        <time>2013-08-11T11:15:00Z</time>
      </trkpt>
      <trkpt lat="45.26119" lon="6.24352">
        <ele>1893</ele>
        <time>2013-08-11T11:15:12Z</time>
      </trkpt>
      <trkpt lat="45.26113" lon="6.2434">
        <ele>1893</ele>
        <time>2013-08-11T11:15:22Z</time>
      </trkpt>
      <trkpt lat="45.26109" lon="6.24328">
        <ele>1903</ele>
        <time>2013-08-11T11:15:32Z</time>
      </trkpt>
      <trkpt lat="45.26104" lon="6.24317">
        <ele>1903</ele>
        <time>2013-08-11T11:15:44Z</time>
      </trkpt>
      <trkpt lat="45.261" lon="6.24304">
        <ele>1905</ele>
        <time>2013-08-11T11:15:55Z</time>
      </trkpt>
      <trkpt lat="45.26095" lon="6.24291">
        <ele>1906</ele>
        <time>2013-08-11T11:16:05Z</time>
      </trkpt>
      <trkpt lat="45.26093" lon="6.24277">
        <ele>1907</ele>
        <time>2013-08-11T11:16:14Z</time>
      </trkpt>
      <trkpt lat="45.26091" lon="6.24264">
        <ele>1908</ele>
        <time>2013-08-11T11:16:23Z</time>
      </trkpt>
      <trkpt lat="45.26088" lon="6.24251">
        <ele>1908</ele>
        <time>2013-08-11T11:16:31Z</time>
      </trkpt>
      <trkpt lat="45.26087" lon="6.24238">
        <ele>1914</ele>
        <time>2013-08-11T11:16:41Z</time>
      </trkpt>
      <trkpt lat="45.26086" lon="6.24223">
        <ele>1919</ele>
        <time>2013-08-11T11:16:51Z</time>
      </trkpt>
      <trkpt lat="45.26084" lon="6.24211">
        <ele>1920</ele>
        <time>2013-08-11T11:17:00Z</time>
      </trkpt>
      <trkpt lat="45.26081" lon="6.24198">
        <ele>1912</ele>
        <time>2013-08-11T11:17:07Z</time>
      </trkpt>
      <trkpt lat="45.26081" lon="6.24185">
        <ele>1914</ele>
        <time>2013-08-11T11:17:15Z</time>
      </trkpt>
      <trkpt lat="45.2608" lon="6.24171">
        <ele>1917</ele>
        <time>2013-08-11T11:17:26Z</time>
      </trkpt>
      <trkpt lat="45.26089" lon="6.24167">
        <ele>1920</ele>
        <time>2013-08-11T11:17:37Z</time>
      </trkpt>
      <trkpt lat="45.26093" lon="6.24179">
        <ele>1922</ele>
        <time>2013-08-11T11:17:49Z</time>
      </trkpt>
      <trkpt lat="45.261" lon="6.2419">
        <ele>1923</ele>
        <time>2013-08-11T11:17:59Z</time>
      </trkpt>
      <trkpt lat="45.26106" lon="6.242">
        <ele>1923</ele>
        <time>2013-08-11T11:18:09Z</time>
      </trkpt>
      <trkpt lat="45.26113" lon="6.24209">
        <ele>1924</ele>
        <time>2013-08-11T11:18:18Z</time>
      </trkpt>
      <trkpt lat="45.26121" lon="6.24219">
        <ele>1924</ele>
        <time>2013-08-11T11:18:27Z</time>
      </trkpt>
      <trkpt lat="45.26129" lon="6.24226">
        <ele>1925</ele>
        <time>2013-08-11T11:18:36Z</time>
      </trkpt>
      <trkpt lat="45.26135" lon="6.24236">
        <ele>1925</ele>
        <time>2013-08-11T11:18:45Z</time>
      </trkpt>
      <trkpt lat="45.26142" lon="6.24247">
        <ele>1926</ele>
        <time>2013-08-11T11:18:53Z</time>
      </trkpt>
      <trkpt lat="45.2615" lon="6.24256">
        <ele>1919</ele>
        <time>2013-08-11T11:19:02Z</time>
      </trkpt>
      <trkpt lat="45.26158" lon="6.24264">
        <ele>1920</ele>
        <time>2013-08-11T11:19:10Z</time>
      </trkpt>
      <trkpt lat="45.26166" lon="6.2427">
        <ele>1919</ele>
        <time>2013-08-11T11:19:18Z</time>
      </trkpt>
      <trkpt lat="45.26175" lon="6.24275">
        <ele>1926</ele>
        <time>2013-08-11T11:19:26Z</time>
      </trkpt>
      <trkpt lat="45.26185" lon="6.24277">
        <ele>1926</ele>
        <time>2013-08-11T11:19:34Z</time>
      </trkpt>
      <trkpt lat="45.26195" lon="6.24275">
        <ele>1927</ele>
        <time>2013-08-11T11:19:44Z</time>
      </trkpt>
      <trkpt lat="45.26204" lon="6.24272">
        <ele>1928</ele>
        <time>2013-08-11T11:19:53Z</time>
      </trkpt>
      <trkpt lat="45.26214" lon="6.24268">
        <ele>1929</ele>
        <time>2013-08-11T11:20:03Z</time>
      </trkpt>
      <trkpt lat="45.26223" lon="6.24264">
        <ele>1931</ele>
        <time>2013-08-11T11:20:14Z</time>
      </trkpt>
      <trkpt lat="45.26224" lon="6.24251">
        <ele>1932</ele>
        <time>2013-08-11T11:20:25Z</time>
      </trkpt>
      <trkpt lat="45.26215" lon="6.24245">
        <ele>1943</ele>
        <time>2013-08-11T11:20:34Z</time>
      </trkpt>
      <trkpt lat="45.26206" lon="6.24238">
        <ele>1942</ele>
        <time>2013-08-11T11:20:43Z</time>
      </trkpt>
      <trkpt lat="45.26199" lon="6.24228">
        <ele>1942</ele>
        <time>2013-08-11T11:20:54Z</time>
      </trkpt>
      <trkpt lat="45.26195" lon="6.24216">
        <ele>1943</ele>
        <time>2013-08-11T11:21:05Z</time>
      </trkpt>
      <trkpt lat="45.26192" lon="6.24203">
        <ele>1945</ele>
        <time>2013-08-11T11:21:16Z</time>
      </trkpt>
      <trkpt lat="45.26187" lon="6.24192">
        <ele>1945</ele>
        <time>2013-08-11T11:21:25Z</time>
      </trkpt>
      <trkpt lat="45.26185" lon="6.24179">
        <ele>1946</ele>
        <time>2013-08-11T11:21:35Z</time>
      </trkpt>
      <trkpt lat="45.26184" lon="6.24166">
        <ele>1954</ele>
        <time>2013-08-11T11:21:48Z</time>
      </trkpt>
      <trkpt lat="45.26187" lon="6.24152">
        <ele>1956</ele>
        <time>2013-08-11T11:22:02Z</time>
      </trkpt>
      <trkpt lat="45.26191" lon="6.2414">
        <ele>1959</ele>
        <time>2013-08-11T11:22:23Z</time>
      </trkpt>
      <trkpt lat="45.262" lon="6.24135">
        <ele>1960</ele>
        <time>2013-08-11T11:22:39Z</time>
      </trkpt>
      <trkpt lat="45.2621" lon="6.24137">
        <ele>1962</ele>
        <time>2013-08-11T11:22:56Z</time>
      </trkpt>
      <trkpt lat="45.2622" lon="6.24137">
        <ele>1963</ele>
        <time>2013-08-11T11:23:09Z</time>
      </trkpt>
      <trkpt lat="45.26229" lon="6.24136">
        <ele>1964</ele>
        <time>2013-08-11T11:23:25Z</time>
      </trkpt>
      <trkpt lat="45.26239" lon="6.24134">
        <ele>1965</ele>
        <time>2013-08-11T11:23:38Z</time>
      </trkpt>
      <trkpt lat="45.26249" lon="6.24132">
        <ele>1966</ele>
        <time>2013-08-11T11:23:51Z</time>
      </trkpt>
      <trkpt lat="45.26258" lon="6.24129">
        <ele>1977</ele>
        <time>2013-08-11T11:24:04Z</time>
      </trkpt>
      <trkpt lat="45.26267" lon="6.24124">
        <ele>1978</ele>
        <time>2013-08-11T11:24:18Z</time>
      </trkpt>
      <trkpt lat="45.26276" lon="6.24126">
        <ele>1978</ele>
        <time>2013-08-11T11:24:29Z</time>
      </trkpt>
      <trkpt lat="45.26286" lon="6.24126">
        <ele>1979</ele>
        <time>2013-08-11T11:24:39Z</time>
      </trkpt>
      <trkpt lat="45.26295" lon="6.24124">
        <ele>1980</ele>
        <time>2013-08-11T11:24:49Z</time>
      </trkpt>
      <trkpt lat="45.26305" lon="6.24123">
        <ele>1981</ele>
        <time>2013-08-11T11:25:00Z</time>
      </trkpt>
      <trkpt lat="45.26314" lon="6.24122">
        <ele>1982</ele>
        <time>2013-08-11T11:25:08Z</time>
      </trkpt>
      <trkpt lat="45.26324" lon="6.24119">
        <ele>1983</ele>
        <time>2013-08-11T11:25:19Z</time>
      </trkpt>
      <trkpt lat="45.26331" lon="6.24111">
        <ele>1985</ele>
        <time>2013-08-11T11:25:29Z</time>
      </trkpt>
      <trkpt lat="45.26336" lon="6.24099">
        <ele>1993</ele>
        <time>2013-08-11T11:25:39Z</time>
      </trkpt>
      <trkpt lat="45.2634" lon="6.24087">
        <ele>1994</ele>
        <time>2013-08-11T11:25:49Z</time>
      </trkpt>
      <trkpt lat="45.26342" lon="6.24074">
        <ele>1996</ele>
        <time>2013-08-11T11:25:58Z</time>
      </trkpt>
      <trkpt lat="45.26345" lon="6.24061">
        <ele>1996</ele>
        <time>2013-08-11T11:26:07Z</time>
      </trkpt>
      <trkpt lat="45.2635" lon="6.24048">
        <ele>1997</ele>
        <time>2013-08-11T11:26:18Z</time>
      </trkpt>
      <trkpt lat="45.26355" lon="6.24036">
        <ele>1997</ele>
        <time>2013-08-11T11:26:30Z</time>
      </trkpt>
      <trkpt lat="45.26352" lon="6.24024">
        <ele>1998</ele>
        <time>2013-08-11T11:26:47Z</time>
      </trkpt>
      <trkpt lat="45.26346" lon="6.24012">
        <ele>1999</ele>
        <time>2013-08-11T11:26:59Z</time>
      </trkpt>
      <trkpt lat="45.2634" lon="6.24001">
        <ele>2001</ele>
        <time>2013-08-11T11:27:13Z</time>
      </trkpt>
      <trkpt lat="45.26334" lon="6.23991">
        <ele>1999</ele>
        <time>2013-08-11T11:27:24Z</time>
      </trkpt>
      <trkpt lat="45.26329" lon="6.23979">
        <ele>2001</ele>
        <time>2013-08-11T11:27:35Z</time>
      </trkpt>
      <trkpt lat="45.26323" lon="6.23969">
        <ele>2001</ele>
        <time>2013-08-11T11:27:54Z</time>
      </trkpt>
      <trkpt lat="45.26316" lon="6.23961">
        <ele>2001</ele>
        <time>2013-08-11T11:28:16Z</time>
      </trkpt>
      <trkpt lat="45.26307" lon="6.23953">
        <ele>2001</ele>
        <time>2013-08-11T11:28:35Z</time>
      </trkpt>
      <trkpt lat="45.263" lon="6.23945">
        <ele>2001</ele>
        <time>2013-08-11T11:28:55Z</time>
      </trkpt>
      <trkpt lat="45.26291" lon="6.23937">
        <ele>2002</ele>
        <time>2013-08-11T11:29:23Z</time>
      </trkpt>
      <trkpt lat="45.26285" lon="6.23927">
        <ele>2002</ele>
        <time>2013-08-11T11:29:38Z</time>
      </trkpt>
      <trkpt lat="45.26279" lon="6.23916">
        <ele>2003</ele>
        <time>2013-08-11T11:29:54Z</time>
      </trkpt>
      <trkpt lat="45.26274" lon="6.23905">
        <ele>2004</ele>
        <time>2013-08-11T11:30:07Z</time>
      </trkpt>
      <trkpt lat="45.26269" lon="6.23893">
        <ele>2004</ele>
        <time>2013-08-11T11:30:26Z</time>
      </trkpt>
      <trkpt lat="45.26262" lon="6.23884">
        <ele>2004</ele>
        <time>2013-08-11T11:30:37Z</time>
      </trkpt>
      <trkpt lat="45.26255" lon="6.23873">
        <ele>2005</ele>
        <time>2013-08-11T11:30:49Z</time>
      </trkpt>
      <trkpt lat="45.2625" lon="6.23862">
        <ele>2009</ele>
        <time>2013-08-11T11:30:59Z</time>
      </trkpt>
      <trkpt lat="45.26243" lon="6.23852">
        <ele>2011</ele>
        <time>2013-08-11T11:31:04Z</time>
      </trkpt>
      <trkpt lat="45.26237" lon="6.2384">
        <ele>2011</ele>
        <time>2013-08-11T11:31:09Z</time>
      </trkpt>
      <trkpt lat="45.2623" lon="6.23829">
        <ele>2014</ele>
        <time>2013-08-11T11:31:14Z</time>
      </trkpt>
      <trkpt lat="45.26223" lon="6.23819">
        <ele>2013</ele>
        <time>2013-08-11T11:31:18Z</time>
      </trkpt>
      <trkpt lat="45.26216" lon="6.23807">
        <ele>2013</ele>
        <time>2013-08-11T11:31:22Z</time>
      </trkpt>
      <trkpt lat="45.2621" lon="6.23796">
        <ele>2013</ele>
        <time>2013-08-11T11:31:28Z</time>
      </trkpt>
      <trkpt lat="45.26203" lon="6.23785">
        <ele>2014</ele>
        <time>2013-08-11T11:31:35Z</time>
      </trkpt>
      <trkpt lat="45.26196" lon="6.23775">
        <ele>2015</ele>
        <time>2013-08-11T11:31:42Z</time>
      </trkpt>
      <trkpt lat="45.2619" lon="6.23765">
        <ele>2016</ele>
        <time>2013-08-11T11:31:50Z</time>
      </trkpt>
      <trkpt lat="45.26184" lon="6.23754">
        <ele>2018</ele>
        <time>2013-08-11T11:31:57Z</time>
      </trkpt>
      <trkpt lat="45.26178" lon="6.23742">
        <ele>2017</ele>
        <time>2013-08-11T11:32:05Z</time>
      </trkpt>
      <trkpt lat="45.26173" lon="6.23729">
        <ele>2016</ele>
        <time>2013-08-11T11:32:12Z</time>
      </trkpt>
      <trkpt lat="45.26167" lon="6.23717">
        <ele>2014</ele>
        <time>2013-08-11T11:32:15Z</time>
      </trkpt>
      <trkpt lat="45.26159" lon="6.23702">
        <ele>2019</ele>
        <time>2013-08-11T11:32:18Z</time>
      </trkpt>
      <trkpt lat="45.26152" lon="6.2369">
        <ele>2020</ele>
        <time>2013-08-11T11:32:22Z</time>
      </trkpt>
      <trkpt lat="45.26146" lon="6.23678">
        <ele>2020</ele>
        <time>2013-08-11T11:32:30Z</time>
      </trkpt>
      <trkpt lat="45.2614" lon="6.23668">
        <ele>2020</ele>
        <time>2013-08-11T11:32:36Z</time>
      </trkpt>
      <trkpt lat="45.26133" lon="6.23658">
        <ele>2021</ele>
        <time>2013-08-11T11:32:44Z</time>
      </trkpt>
      <trkpt lat="45.26127" lon="6.23647">
        <ele>2021</ele>
        <time>2013-08-11T11:32:51Z</time>
      </trkpt>
      <trkpt lat="45.26121" lon="6.23637">
        <ele>2022</ele>
        <time>2013-08-11T11:32:56Z</time>
      </trkpt>
      <trkpt lat="45.26116" lon="6.23626">
        <ele>2022</ele>
        <time>2013-08-11T11:33:02Z</time>
      </trkpt>
      <trkpt lat="45.26111" lon="6.23613">
        <ele>2023</ele>
        <time>2013-08-11T11:33:09Z</time>
      </trkpt>
      <trkpt lat="45.26106" lon="6.236">
        <ele>2024</ele>
        <time>2013-08-11T11:33:17Z</time>
      </trkpt>
      <trkpt lat="45.261" lon="6.23587">
        <ele>2027</ele>
        <time>2013-08-11T11:33:23Z</time>
      </trkpt>
      <trkpt lat="45.26095" lon="6.23576">
        <ele>2026</ele>
        <time>2013-08-11T11:33:27Z</time>
      </trkpt>
      <trkpt lat="45.2609" lon="6.23564">
        <ele>2023</ele>
        <time>2013-08-11T11:33:34Z</time>
      </trkpt>
      <trkpt lat="45.26085" lon="6.23551">
        <ele>2021</ele>
        <time>2013-08-11T11:33:41Z</time>
      </trkpt>
      <trkpt lat="45.26078" lon="6.2354">
        <ele>2034</ele>
        <time>2013-08-11T11:33:47Z</time>
      </trkpt>
      <trkpt lat="45.26072" lon="6.23529">
        <ele>2034</ele>
        <time>2013-08-11T11:33:56Z</time>
      </trkpt>
      <trkpt lat="45.26066" lon="6.23518">
        <ele>2034</ele>
        <time>2013-08-11T11:34:05Z</time>
      </trkpt>
      <trkpt lat="45.2606" lon="6.23507">
        <ele>2034</ele>
        <time>2013-08-11T11:34:15Z</time>
      </trkpt>
      <trkpt lat="45.26053" lon="6.23497">
        <ele>2033</ele>
        <time>2013-08-11T11:34:25Z</time>
      </trkpt>
      <trkpt lat="45.26047" lon="6.23487">
        <ele>2034</ele>
        <time>2013-08-11T11:34:36Z</time>
      </trkpt>
      <trkpt lat="45.26042" lon="6.23475">
        <ele>2034</ele>
        <time>2013-08-11T11:34:51Z</time>
      </trkpt>
      <trkpt lat="45.26034" lon="6.23467">
        <ele>2035</ele>
        <time>2013-08-11T11:35:05Z</time>
      </trkpt>
      <trkpt lat="45.26027" lon="6.23458">
        <ele>2036</ele>
        <time>2013-08-11T11:35:15Z</time>
      </trkpt>
      <trkpt lat="45.26019" lon="6.2345">
        <ele>2038</ele>
        <time>2013-08-11T11:35:27Z</time>
      </trkpt>
      <trkpt lat="45.26012" lon="6.23442">
        <ele>2040</ele>
        <time>2013-08-11T11:35:41Z</time>
      </trkpt>
      <trkpt lat="45.26003" lon="6.23434">
        <ele>2043</ele>
        <time>2013-08-11T11:35:55Z</time>
      </trkpt>
      <trkpt lat="45.25996" lon="6.23425">
        <ele>2054</ele>
        <time>2013-08-11T11:36:12Z</time>
      </trkpt>
      <trkpt lat="45.25988" lon="6.23418">
        <ele>2055</ele>
        <time>2013-08-11T11:36:35Z</time>
      </trkpt>
      <trkpt lat="45.25979" lon="6.23412">
        <ele>2059</ele>
        <time>2013-08-11T11:37:28Z</time>
      </trkpt>
      <trkpt lat="45.25972" lon="6.23402">
        <ele>2061</ele>
        <time>2013-08-11T11:38:01Z</time>
      </trkpt>
      <trkpt lat="45.25964" lon="6.23396">
        <ele>2063</ele>
        <time>2013-08-11T11:38:24Z</time>
      </trkpt>
      <trkpt lat="45.25955" lon="6.2339">
        <ele>2065</ele>
        <time>2013-08-11T11:38:59Z</time>
      </trkpt>
      <trkpt lat="45.25948" lon="6.23381">
        <ele>2067</ele>
        <time>2013-08-11T11:39:30Z</time>
      </trkpt>
      <trkpt lat="45.25939" lon="6.23377">
        <ele>2069</ele>
        <time>2013-08-11T11:40:03Z</time>
      </trkpt>
      <trkpt lat="45.2593" lon="6.23372">
        <ele>2070</ele>
        <time>2013-08-11T11:40:33Z</time>
      </trkpt>
      <trkpt lat="45.25922" lon="6.23365">
        <ele>2073</ele>
        <time>2013-08-11T11:41:16Z</time>
      </trkpt>
      <trkpt lat="45.25913" lon="6.23361">
        <ele>2093</ele>
        <time>2013-08-11T11:42:03Z</time>
      </trkpt>
      <trkpt lat="45.25904" lon="6.23355">
        <ele>2094</ele>
        <time>2013-08-11T11:42:38Z</time>
      </trkpt>
      <trkpt lat="45.25897" lon="6.23346">
        <ele>2094</ele>
        <time>2013-08-11T11:43:05Z</time>
      </trkpt>
      <trkpt lat="45.2589" lon="6.23337">
        <ele>2096</ele>
        <time>2013-08-11T11:43:21Z</time>
      </trkpt>
      <trkpt lat="45.25884" lon="6.23327">
        <ele>2097</ele>
        <time>2013-08-11T11:43:57Z</time>
      </trkpt>
      <trkpt lat="45.25877" lon="6.23319">
        <ele>2099</ele>
        <time>2013-08-11T11:44:12Z</time>
      </trkpt>
      <trkpt lat="45.25868" lon="6.23312">
        <ele>2101</ele>
        <time>2013-08-11T11:44:25Z</time>
      </trkpt>
      <trkpt lat="45.2586" lon="6.23306">
        <ele>2102</ele>
        <time>2013-08-11T11:44:45Z</time>
      </trkpt>
      <trkpt lat="45.25852" lon="6.233">
        <ele>2103</ele>
        <time>2013-08-11T11:45:04Z</time>
      </trkpt>
      <trkpt lat="45.25844" lon="6.23293">
        <ele>2104</ele>
        <time>2013-08-11T11:45:21Z</time>
      </trkpt>
      <trkpt lat="45.25834" lon="6.23293">
        <ele>2105</ele>
        <time>2013-08-11T11:45:37Z</time>
      </trkpt>
      <trkpt lat="45.25824" lon="6.23291">
        <ele>2129</ele>
        <time>2013-08-11T11:45:49Z</time>
      </trkpt>
      <trkpt lat="45.25815" lon="6.23292">
        <ele>2130</ele>
        <time>2013-08-11T11:46:05Z</time>
      </trkpt>
      <trkpt lat="45.25805" lon="6.23292">
        <ele>2132</ele>
        <time>2013-08-11T11:46:26Z</time>
      </trkpt>
      <trkpt lat="45.25797" lon="6.23296">
        <ele>2134</ele>
        <time>2013-08-11T11:46:44Z</time>
      </trkpt>
      <trkpt lat="45.25788" lon="6.23302">
        <ele>2136</ele>
        <time>2013-08-11T11:47:01Z</time>
      </trkpt>
      <trkpt lat="45.25779" lon="6.23308">
        <ele>2138</ele>
        <time>2013-08-11T11:47:17Z</time>
      </trkpt>
      <trkpt lat="45.25773" lon="6.23319">
        <ele>2139</ele>
        <time>2013-08-11T11:47:37Z</time>
      </trkpt>
      <trkpt lat="45.25765" lon="6.23328">
        <ele>2142</ele>
        <time>2013-08-11T11:47:59Z</time>
      </trkpt>
      <trkpt lat="45.2576" lon="6.23339">
        <ele>2140</ele>
        <time>2013-08-11T11:48:54Z</time>
      </trkpt>
      <trkpt lat="45.25757" lon="6.23353">
        <ele>2136</ele>
        <time>2013-08-11T11:49:14Z</time>
      </trkpt>
      <trkpt lat="45.25751" lon="6.23363">
        <ele>2133</ele>
        <time>2013-08-11T11:49:32Z</time>
      </trkpt>
      <trkpt lat="45.25742" lon="6.2336">
        <ele>2145</ele>
        <time>2013-08-11T11:50:19Z</time>
      </trkpt>
      <trkpt lat="45.2574" lon="6.23346">
        <ele>2147</ele>
        <time>2013-08-11T11:50:53Z</time>
      </trkpt>
      <trkpt lat="45.25731" lon="6.23345">
        <ele>2147</ele>
        <time>2013-08-11T11:51:18Z</time>
      </trkpt>
      <trkpt lat="45.25721" lon="6.23342">
        <ele>2147</ele>
        <time>2013-08-11T11:51:33Z</time>
      </trkpt>
      <trkpt lat="45.25713" lon="6.23335">
        <ele>2148</ele>
        <time>2013-08-11T11:51:49Z</time>
      </trkpt>
      <trkpt lat="45.25708" lon="6.23322">
        <ele>2163</ele>
        <time>2013-08-11T11:52:11Z</time>
      </trkpt>
      <trkpt lat="45.25707" lon="6.23309">
        <ele>2164</ele>
        <time>2013-08-11T11:52:52Z</time>
      </trkpt>
      <trkpt lat="45.25716" lon="6.23304">
        <ele>2163</ele>
        <time>2013-08-11T11:53:07Z</time>
      </trkpt>
      <trkpt lat="45.25722" lon="6.23293">
        <ele>2164</ele>
        <time>2013-08-11T11:53:27Z</time>
      </trkpt>
      <trkpt lat="45.2572" lon="6.2328">
        <ele>2165</ele>
        <time>2013-08-11T11:54:01Z</time>
      </trkpt>
      <trkpt lat="45.25717" lon="6.23267">
        <ele>2166</ele>
        <time>2013-08-11T11:54:23Z</time>
      </trkpt>
      <trkpt lat="45.25712" lon="6.23255">
        <ele>2168</ele>
        <time>2013-08-11T11:54:58Z</time>
      </trkpt>
      <trkpt lat="45.25706" lon="6.23244">
        <ele>2172</ele>
        <time>2013-08-11T11:55:34Z</time>
      </trkpt>
      <trkpt lat="45.25697" lon="6.2324">
        <ele>2174</ele>
        <time>2013-08-11T11:55:52Z</time>
      </trkpt>
      <trkpt lat="45.25687" lon="6.23236">
        <ele>2177</ele>
        <time>2013-08-11T11:56:06Z</time>
      </trkpt>
      <trkpt lat="45.25679" lon="6.2323">
        <ele>2178</ele>
        <time>2013-08-11T11:56:45Z</time>
      </trkpt>
      <trkpt lat="45.2567" lon="6.23224">
        <ele>2178</ele>
        <time>2013-08-11T11:57:01Z</time>
      </trkpt>
      <trkpt lat="45.25663" lon="6.23215">
        <ele>2195</ele>
        <time>2013-08-11T11:57:15Z</time>
      </trkpt>
      <trkpt lat="45.25656" lon="6.23205">
        <ele>2195</ele>
        <time>2013-08-11T11:57:28Z</time>
      </trkpt>
      <trkpt lat="45.2565" lon="6.23195">
        <ele>2195</ele>
        <time>2013-08-11T11:57:40Z</time>
      </trkpt>
      <trkpt lat="45.25644" lon="6.23186">
        <ele>2195</ele>
        <time>2013-08-11T11:57:51Z</time>
      </trkpt>
      <trkpt lat="45.25638" lon="6.23175">
        <ele>2196</ele>
        <time>2013-08-11T11:58:03Z</time>
      </trkpt>
      <trkpt lat="45.25632" lon="6.23164">
        <ele>2196</ele>
        <time>2013-08-11T11:58:26Z</time>
      </trkpt>
      <trkpt lat="45.25627" lon="6.23152">
        <ele>2197</ele>
        <time>2013-08-11T11:58:37Z</time>
      </trkpt>
      <trkpt lat="45.2562" lon="6.23142">
        <ele>2198</ele>
        <time>2013-08-11T11:59:08Z</time>
      </trkpt>
      <trkpt lat="45.25611" lon="6.23142">
        <ele>2201</ele>
        <time>2013-08-11T11:59:14Z</time>
      </trkpt>
      <trkpt lat="45.25601" lon="6.23145">
        <ele>2204</ele>
        <time>2013-08-11T11:59:19Z</time>
      </trkpt>
      <trkpt lat="45.25595" lon="6.23156">
        <ele>2208</ele>
        <time>2013-08-11T11:59:27Z</time>
      </trkpt>
      <trkpt lat="45.2559" lon="6.23168">
        <ele>2213</ele>
        <time>2013-08-11T11:59:32Z</time>
      </trkpt>
      <trkpt lat="45.25586" lon="6.23184">
        <ele>2208</ele>
        <time>2013-08-11T11:59:35Z</time>
      </trkpt>
      <trkpt lat="45.25578" lon="6.23195">
        <ele>2205</ele>
        <time>2013-08-11T11:59:38Z</time>
      </trkpt>
      <trkpt lat="45.25568" lon="6.23203">
        <ele>2203</ele>
        <time>2013-08-11T11:59:41Z</time>
      </trkpt>
      <trkpt lat="45.25568" lon="6.23216">
        <ele>2201</ele>
        <time>2013-08-11T11:59:44Z</time>
      </trkpt>
      <trkpt lat="45.25566" lon="6.23231">
        <ele>2199</ele>
        <time>2013-08-11T11:59:47Z</time>
      </trkpt>
      <trkpt lat="45.25566" lon="6.23248">
        <ele>2198</ele>
        <time>2013-08-11T11:59:50Z</time>
      </trkpt>
      <trkpt lat="45.25565" lon="6.23263">
        <ele>2190</ele>
        <time>2013-08-11T11:59:53Z</time>
      </trkpt>
      <trkpt lat="45.25562" lon="6.23278">
        <ele>2187</ele>
        <time>2013-08-11T11:59:56Z</time>
      </trkpt>
      <trkpt lat="45.25562" lon="6.23297">
        <ele>2185</ele>
        <time>2013-08-11T11:59:59Z</time>
      </trkpt>
      <trkpt lat="45.25561" lon="6.23311">
        <ele>2183</ele>
        <time>2013-08-11T12:00:01Z</time>
      </trkpt>
      <trkpt lat="45.25554" lon="6.23325">
        <ele>2182</ele>
        <time>2013-08-11T12:00:03Z</time>
      </trkpt>
      <trkpt lat="45.25545" lon="6.23337">
        <ele>2174</ele>
        <time>2013-08-11T12:00:05Z</time>
      </trkpt>
      <trkpt lat="45.25537" lon="6.23349">
        <ele>2173</ele>
        <time>2013-08-11T12:00:07Z</time>
      </trkpt>
      <trkpt lat="45.25531" lon="6.23363">
        <ele>2173</ele>
        <time>2013-08-11T12:00:11Z</time>
      </trkpt>
      <trkpt lat="45.25534" lon="6.23379">
        <ele>2171</ele>
        <time>2013-08-11T12:00:14Z</time>
      </trkpt>
      <trkpt lat="45.25536" lon="6.23391">
        <ele>2171</ele>
        <time>2013-08-11T12:00:16Z</time>
      </trkpt>
      <trkpt lat="45.25536" lon="6.23405">
        <ele>2170</ele>
        <time>2013-08-11T12:00:18Z</time>
      </trkpt>
      <trkpt lat="45.25528" lon="6.23416">
        <ele>2170</ele>
        <time>2013-08-11T12:00:20Z</time>
      </trkpt>
      <trkpt lat="45.25521" lon="6.23424">
        <ele>2162</ele>
        <time>2013-08-11T12:00:22Z</time>
      </trkpt>
      <trkpt lat="45.25513" lon="6.23439">
        <ele>2161</ele>
        <time>2013-08-11T12:00:25Z</time>
      </trkpt>
      <trkpt lat="45.25514" lon="6.23453">
        <ele>2159</ele>
        <time>2013-08-11T12:00:27Z</time>
      </trkpt>
      <trkpt lat="45.25513" lon="6.23467">
        <ele>2157</ele>
        <time>2013-08-11T12:00:29Z</time>
      </trkpt>
      <trkpt lat="45.25506" lon="6.23478">
        <ele>2157</ele>
        <time>2013-08-11T12:00:31Z</time>
      </trkpt>
      <trkpt lat="45.25495" lon="6.23488">
        <ele>2158</ele>
        <time>2013-08-11T12:00:34Z</time>
      </trkpt>
      <trkpt lat="45.25488" lon="6.235">
        <ele>2154</ele>
        <time>2013-08-11T12:00:37Z</time>
      </trkpt>
      <trkpt lat="45.25483" lon="6.23513">
        <ele>2151</ele>
        <time>2013-08-11T12:00:40Z</time>
      </trkpt>
      <trkpt lat="45.25477" lon="6.23526">
        <ele>2149</ele>
        <time>2013-08-11T12:00:43Z</time>
      </trkpt>
      <trkpt lat="45.25475" lon="6.23542">
        <ele>2147</ele>
        <time>2013-08-11T12:00:46Z</time>
      </trkpt>
      <trkpt lat="45.25472" lon="6.23556">
        <ele>2145</ele>
        <time>2013-08-11T12:00:48Z</time>
      </trkpt>
      <trkpt lat="45.2547" lon="6.23569">
        <ele>2144</ele>
        <time>2013-08-11T12:00:50Z</time>
      </trkpt>
      <trkpt lat="45.25467" lon="6.23582">
        <ele>2144</ele>
        <time>2013-08-11T12:00:52Z</time>
      </trkpt>
      <trkpt lat="45.25463" lon="6.23598">
        <ele>2137</ele>
        <time>2013-08-11T12:00:55Z</time>
      </trkpt>
      <trkpt lat="45.25459" lon="6.23614">
        <ele>2136</ele>
        <time>2013-08-11T12:00:58Z</time>
      </trkpt>
      <trkpt lat="45.25455" lon="6.23628">
        <ele>2135</ele>
        <time>2013-08-11T12:01:01Z</time>
      </trkpt>
      <trkpt lat="45.25452" lon="6.23641">
        <ele>2135</ele>
        <time>2013-08-11T12:01:03Z</time>
      </trkpt>
      <trkpt lat="45.2545" lon="6.23655">
        <ele>2134</ele>
        <time>2013-08-11T12:01:05Z</time>
      </trkpt>
      <trkpt lat="45.25448" lon="6.23668">
        <ele>2127</ele>
        <time>2013-08-11T12:01:08Z</time>
      </trkpt>
      <trkpt lat="45.25444" lon="6.23682">
        <ele>2127</ele>
        <time>2013-08-11T12:01:11Z</time>
      </trkpt>
      <trkpt lat="45.25437" lon="6.23692">
        <ele>2126</ele>
        <time>2013-08-11T12:01:13Z</time>
      </trkpt>
      <trkpt lat="45.2543" lon="6.23706">
        <ele>2126</ele>
        <time>2013-08-11T12:01:15Z</time>
      </trkpt>
      <trkpt lat="45.25425" lon="6.23725">
        <ele>2125</ele>
        <time>2013-08-11T12:01:17Z</time>
      </trkpt>
      <trkpt lat="45.2542" lon="6.23744">
        <ele>2127</ele>
        <time>2013-08-11T12:01:19Z</time>
      </trkpt>
      <trkpt lat="45.25417" lon="6.23764">
        <ele>2120</ele>
        <time>2013-08-11T12:01:21Z</time>
      </trkpt>
      <trkpt lat="45.25412" lon="6.23787">
        <ele>2115</ele>
        <time>2013-08-11T12:01:23Z</time>
      </trkpt>
      <trkpt lat="45.25408" lon="6.23813">
        <ele>2113</ele>
        <time>2013-08-11T12:01:25Z</time>
      </trkpt>
      <trkpt lat="45.25404" lon="6.23839">
        <ele>2111</ele>
        <time>2013-08-11T12:01:27Z</time>
      </trkpt>
      <trkpt lat="45.25402" lon="6.23852">
        <ele>2108</ele>
        <time>2013-08-11T12:01:28Z</time>
      </trkpt>
      <trkpt lat="45.25401" lon="6.23867">
        <ele>2106</ele>
        <time>2013-08-11T12:01:29Z</time>
      </trkpt>
      <trkpt lat="45.254" lon="6.23881">
        <ele>2106</ele>
        <time>2013-08-11T12:01:30Z</time>
      </trkpt>
      <trkpt lat="45.254" lon="6.23896">
        <ele>2107</ele>
        <time>2013-08-11T12:01:31Z</time>
      </trkpt>
      <trkpt lat="45.25401" lon="6.2391">
        <ele>2108</ele>
        <time>2013-08-11T12:01:32Z</time>
      </trkpt>
      <trkpt lat="45.25404" lon="6.23933">
        <ele>2105</ele>
        <time>2013-08-11T12:01:34Z</time>
      </trkpt>
      <trkpt lat="45.25408" lon="6.23954">
        <ele>2103</ele>
        <time>2013-08-11T12:01:36Z</time>
      </trkpt>
      <trkpt lat="45.25411" lon="6.23975">
        <ele>2104</ele>
        <time>2013-08-11T12:01:38Z</time>
      </trkpt>
      <trkpt lat="45.25413" lon="6.23995">
        <ele>2108</ele>
        <time>2013-08-11T12:01:40Z</time>
      </trkpt>
      <trkpt lat="45.25415" lon="6.24012">
        <ele>2104</ele>
        <time>2013-08-11T12:01:42Z</time>
      </trkpt>
      <trkpt lat="45.25415" lon="6.24029">
        <ele>2100</ele>
        <time>2013-08-11T12:01:45Z</time>
      </trkpt>
      <trkpt lat="45.25411" lon="6.24043">
        <ele>2098</ele>
        <time>2013-08-11T12:01:49Z</time>
      </trkpt>
      <trkpt lat="45.25403" lon="6.2405">
        <ele>2097</ele>
        <time>2013-08-11T12:01:52Z</time>
      </trkpt>
      <trkpt lat="45.25394" lon="6.24057">
        <ele>2096</ele>
        <time>2013-08-11T12:01:57Z</time>
      </trkpt>
      <trkpt lat="45.25394" lon="6.24071">
        <ele>2096</ele>
        <time>2013-08-11T12:02:03Z</time>
      </trkpt>
      <trkpt lat="45.25397" lon="6.24085">
        <ele>2091</ele>
        <time>2013-08-11T12:02:11Z</time>
      </trkpt>
      <trkpt lat="45.25396" lon="6.24099">
        <ele>2089</ele>
        <time>2013-08-11T12:02:19Z</time>
      </trkpt>
      <trkpt lat="45.25396" lon="6.24113">
        <ele>2087</ele>
        <time>2013-08-11T12:02:26Z</time>
      </trkpt>
      <trkpt lat="45.25394" lon="6.24128">
        <ele>2085</ele>
        <time>2013-08-11T12:02:31Z</time>
      </trkpt>
      <trkpt lat="45.25392" lon="6.24141">
        <ele>2083</ele>
        <time>2013-08-11T12:02:38Z</time>
      </trkpt>
      <trkpt lat="45.25382" lon="6.24143">
        <ele>2082</ele>
        <time>2013-08-11T12:02:44Z</time>
      </trkpt>
      <trkpt lat="45.25382" lon="6.24157">
        <ele>2082</ele>
        <time>2013-08-11T12:02:49Z</time>
      </trkpt>
      <trkpt lat="45.25374" lon="6.24163">
        <ele>2081</ele>
        <time>2013-08-11T12:03:06Z</time>
      </trkpt>
      <trkpt lat="45.25368" lon="6.24176">
        <ele>2068</ele>
        <time>2013-08-11T12:03:13Z</time>
      </trkpt>
      <trkpt lat="45.25362" lon="6.24186">
        <ele>2067</ele>
        <time>2013-08-11T12:03:18Z</time>
      </trkpt>
      <trkpt lat="45.25354" lon="6.24195">
        <ele>2066</ele>
        <time>2013-08-11T12:03:23Z</time>
      </trkpt>
      <trkpt lat="45.25345" lon="6.24203">
        <ele>2065</ele>
        <time>2013-08-11T12:03:28Z</time>
      </trkpt>
      <trkpt lat="45.25335" lon="6.24213">
        <ele>2064</ele>
        <time>2013-08-11T12:03:32Z</time>
      </trkpt>
      <trkpt lat="45.25325" lon="6.24222">
        <ele>2057</ele>
        <time>2013-08-11T12:03:36Z</time>
      </trkpt>
      <trkpt lat="45.25312" lon="6.24228">
        <ele>2056</ele>
        <time>2013-08-11T12:03:39Z</time>
      </trkpt>
      <trkpt lat="45.25302" lon="6.24238">
        <ele>2055</ele>
        <time>2013-08-11T12:03:42Z</time>
      </trkpt>
      <trkpt lat="45.25297" lon="6.2425">
        <ele>2047</ele>
        <time>2013-08-11T12:03:45Z</time>
      </trkpt>
      <trkpt lat="45.25286" lon="6.24255">
        <ele>2046</ele>
        <time>2013-08-11T12:03:48Z</time>
      </trkpt>
      <trkpt lat="45.25281" lon="6.24271">
        <ele>2045</ele>
        <time>2013-08-11T12:03:52Z</time>
      </trkpt>
      <trkpt lat="45.25284" lon="6.24285">
        <ele>2044</ele>
        <time>2013-08-11T12:03:55Z</time>
      </trkpt>
      <trkpt lat="45.25291" lon="6.24295">
        <ele>2043</ele>
        <time>2013-08-11T12:03:59Z</time>
      </trkpt>
      <trkpt lat="45.25289" lon="6.2431">
        <ele>2042</ele>
        <time>2013-08-11T12:04:02Z</time>
      </trkpt>
      <trkpt lat="45.25283" lon="6.24324">
        <ele>2041</ele>
        <time>2013-08-11T12:04:05Z</time>
      </trkpt>
      <trkpt lat="45.25277" lon="6.24335">
        <ele>2031</ele>
        <time>2013-08-11T12:04:08Z</time>
      </trkpt>
      <trkpt lat="45.25264" lon="6.24344">
        <ele>2033</ele>
        <time>2013-08-11T12:04:11Z</time>
      </trkpt>
      <trkpt lat="45.25255" lon="6.24347">
        <ele>2034</ele>
        <time>2013-08-11T12:04:13Z</time>
      </trkpt>
      <trkpt lat="45.25243" lon="6.24352">
        <ele>2031</ele>
        <time>2013-08-11T12:04:16Z</time>
      </trkpt>
      <trkpt lat="45.25233" lon="6.24356">
        <ele>2028</ele>
        <time>2013-08-11T12:04:19Z</time>
      </trkpt>
      <trkpt lat="45.25223" lon="6.24359">
        <ele>2026</ele>
        <time>2013-08-11T12:04:22Z</time>
      </trkpt>
      <trkpt lat="45.25213" lon="6.24352">
        <ele>2025</ele>
        <time>2013-08-11T12:04:28Z</time>
      </trkpt>
      <trkpt lat="45.25205" lon="6.24362">
        <ele>2024</ele>
        <time>2013-08-11T12:04:32Z</time>
      </trkpt>
      <trkpt lat="45.25201" lon="6.24374">
        <ele>2022</ele>
        <time>2013-08-11T12:04:36Z</time>
      </trkpt>
      <trkpt lat="45.25195" lon="6.2439">
        <ele>2021</ele>
        <time>2013-08-11T12:04:40Z</time>
      </trkpt>
      <trkpt lat="45.25191" lon="6.2441">
        <ele>2019</ele>
        <time>2013-08-11T12:04:43Z</time>
      </trkpt>
      <trkpt lat="45.25186" lon="6.24426">
        <ele>2012</ele>
        <time>2013-08-11T12:04:45Z</time>
      </trkpt>
      <trkpt lat="45.25182" lon="6.2444">
        <ele>2011</ele>
        <time>2013-08-11T12:04:47Z</time>
      </trkpt>
      <trkpt lat="45.2518" lon="6.24453">
        <ele>2010</ele>
        <time>2013-08-11T12:04:50Z</time>
      </trkpt>
      <trkpt lat="45.25172" lon="6.24462">
        <ele>2009</ele>
        <time>2013-08-11T12:04:55Z</time>
      </trkpt>
      <trkpt lat="45.25165" lon="6.24476">
        <ele>1993</ele>
        <time>2013-08-11T12:04:59Z</time>
      </trkpt>
      <trkpt lat="45.25164" lon="6.2449">
        <ele>1997</ele>
        <time>2013-08-11T12:05:02Z</time>
      </trkpt>
      <trkpt lat="45.25161" lon="6.24503">
        <ele>1996</ele>
        <time>2013-08-11T12:05:06Z</time>
      </trkpt>
      <trkpt lat="45.2516" lon="6.24517">
        <ele>1988</ele>
        <time>2013-08-11T12:05:10Z</time>
      </trkpt>
      <trkpt lat="45.25164" lon="6.24529">
        <ele>1984</ele>
        <time>2013-08-11T12:05:14Z</time>
      </trkpt>
      <trkpt lat="45.25172" lon="6.24538">
        <ele>1993</ele>
        <time>2013-08-11T12:05:20Z</time>
      </trkpt>
      <trkpt lat="45.25169" lon="6.24552">
        <ele>1991</ele>
        <time>2013-08-11T12:05:29Z</time>
      </trkpt>
      <trkpt lat="45.25172" lon="6.24566">
        <ele>1989</ele>
        <time>2013-08-11T12:05:37Z</time>
      </trkpt>
      <trkpt lat="45.25178" lon="6.24577">
        <ele>1988</ele>
        <time>2013-08-11T12:05:42Z</time>
      </trkpt>
      <trkpt lat="45.25173" lon="6.24589">
        <ele>1980</ele>
        <time>2013-08-11T12:05:50Z</time>
      </trkpt>
      <trkpt lat="45.25176" lon="6.24601">
        <ele>1974</ele>
        <time>2013-08-11T12:05:58Z</time>
      </trkpt>
      <trkpt lat="45.2518" lon="6.24615">
        <ele>1970</ele>
        <time>2013-08-11T12:06:08Z</time>
      </trkpt>
      <trkpt lat="45.2519" lon="6.24618">
        <ele>1968</ele>
        <time>2013-08-11T12:06:15Z</time>
      </trkpt>
      <trkpt lat="45.25186" lon="6.24631">
        <ele>1966</ele>
        <time>2013-08-11T12:06:24Z</time>
      </trkpt>
      <trkpt lat="45.25185" lon="6.24648">
        <ele>1963</ele>
        <time>2013-08-11T12:06:29Z</time>
      </trkpt>
      <trkpt lat="45.2518" lon="6.24661">
        <ele>1962</ele>
        <time>2013-08-11T12:06:34Z</time>
      </trkpt>
      <trkpt lat="45.25186" lon="6.24671">
        <ele>1948</ele>
        <time>2013-08-11T12:06:41Z</time>
      </trkpt>
      <trkpt lat="45.25186" lon="6.24686">
        <ele>1945</ele>
        <time>2013-08-11T12:06:47Z</time>
      </trkpt>
      <trkpt lat="45.25194" lon="6.2468">
        <ele>1945</ele>
        <time>2013-08-11T12:07:00Z</time>
      </trkpt>
      <trkpt lat="45.25195" lon="6.24693">
        <ele>1942</ele>
        <time>2013-08-11T12:07:16Z</time>
      </trkpt>
      <trkpt lat="45.25186" lon="6.24704">
        <ele>1941</ele>
        <time>2013-08-11T12:07:20Z</time>
      </trkpt>
      <trkpt lat="45.25178" lon="6.24715">
        <ele>1940</ele>
        <time>2013-08-11T12:07:23Z</time>
      </trkpt>
      <trkpt lat="45.2517" lon="6.24722">
        <ele>1939</ele>
        <time>2013-08-11T12:07:27Z</time>
      </trkpt>
      <trkpt lat="45.25169" lon="6.24736">
        <ele>1937</ele>
        <time>2013-08-11T12:07:35Z</time>
      </trkpt>
      <trkpt lat="45.25165" lon="6.2475">
        <ele>1936</ele>
        <time>2013-08-11T12:07:42Z</time>
      </trkpt>
      <trkpt lat="45.25163" lon="6.24762">
        <ele>1930</ele>
        <time>2013-08-11T12:07:46Z</time>
      </trkpt>
      <trkpt lat="45.2516" lon="6.24777">
        <ele>1925</ele>
        <time>2013-08-11T12:07:50Z</time>
      </trkpt>
      <trkpt lat="45.2517" lon="6.24782">
        <ele>1921</ele>
        <time>2013-08-11T12:08:02Z</time>
      </trkpt>
      <trkpt lat="45.25183" lon="6.24777">
        <ele>1920</ele>
        <time>2013-08-11T12:08:05Z</time>
      </trkpt>
      <trkpt lat="45.25193" lon="6.24773">
        <ele>1919</ele>
        <time>2013-08-11T12:08:07Z</time>
      </trkpt>
      <trkpt lat="45.25202" lon="6.24769">
        <ele>1918</ele>
        <time>2013-08-11T12:08:09Z</time>
      </trkpt>
      <trkpt lat="45.25212" lon="6.24767">
        <ele>1916</ele>
        <time>2013-08-11T12:08:11Z</time>
      </trkpt>
      <trkpt lat="45.25222" lon="6.2476">
        <ele>1915</ele>
        <time>2013-08-11T12:08:13Z</time>
      </trkpt>
      <trkpt lat="45.25233" lon="6.24755">
        <ele>1914</ele>
        <time>2013-08-11T12:08:15Z</time>
      </trkpt>
      <trkpt lat="45.25245" lon="6.2475">
        <ele>1918</ele>
        <time>2013-08-11T12:08:17Z</time>
      </trkpt>
      <trkpt lat="45.25257" lon="6.24745">
        <ele>1914</ele>
        <time>2013-08-11T12:08:19Z</time>
      </trkpt>
      <trkpt lat="45.2527" lon="6.24738">
        <ele>1914</ele>
        <time>2013-08-11T12:08:21Z</time>
      </trkpt>
      <trkpt lat="45.25283" lon="6.24733">
        <ele>1914</ele>
        <time>2013-08-11T12:08:23Z</time>
      </trkpt>
      <trkpt lat="45.25294" lon="6.24729">
        <ele>1912</ele>
        <time>2013-08-11T12:08:25Z</time>
      </trkpt>
      <trkpt lat="45.25305" lon="6.24727">
        <ele>1911</ele>
        <time>2013-08-11T12:08:27Z</time>
      </trkpt>
      <trkpt lat="45.25318" lon="6.24729">
        <ele>1908</ele>
        <time>2013-08-11T12:08:29Z</time>
      </trkpt>
      <trkpt lat="45.25331" lon="6.24727">
        <ele>1907</ele>
        <time>2013-08-11T12:08:31Z</time>
      </trkpt>
      <trkpt lat="45.25342" lon="6.24724">
        <ele>1896</ele>
        <time>2013-08-11T12:08:33Z</time>
      </trkpt>
      <trkpt lat="45.25354" lon="6.2472">
        <ele>1896</ele>
        <time>2013-08-11T12:08:36Z</time>
      </trkpt>
      <trkpt lat="45.25356" lon="6.24733">
        <ele>1895</ele>
        <time>2013-08-11T12:08:39Z</time>
      </trkpt>
      <trkpt lat="45.25346" lon="6.24742">
        <ele>1895</ele>
        <time>2013-08-11T12:08:41Z</time>
      </trkpt>
      <trkpt lat="45.25337" lon="6.24752">
        <ele>1892</ele>
        <time>2013-08-11T12:08:43Z</time>
      </trkpt>
      <trkpt lat="45.25328" lon="6.24766">
        <ele>1894</ele>
        <time>2013-08-11T12:08:45Z</time>
      </trkpt>
      <trkpt lat="45.25322" lon="6.24779">
        <ele>1893</ele>
        <time>2013-08-11T12:08:47Z</time>
      </trkpt>
      <trkpt lat="45.25317" lon="6.24792">
        <ele>1892</ele>
        <time>2013-08-11T12:08:49Z</time>
      </trkpt>
      <trkpt lat="45.25316" lon="6.24807">
        <ele>1889</ele>
        <time>2013-08-11T12:08:51Z</time>
      </trkpt>
      <trkpt lat="45.25319" lon="6.24821">
        <ele>1886</ele>
        <time>2013-08-11T12:08:53Z</time>
      </trkpt>
      <trkpt lat="45.2533" lon="6.24828">
        <ele>1881</ele>
        <time>2013-08-11T12:08:56Z</time>
      </trkpt>
      <trkpt lat="45.25341" lon="6.24833">
        <ele>1877</ele>
        <time>2013-08-11T12:08:59Z</time>
      </trkpt>
      <trkpt lat="45.25353" lon="6.24841">
        <ele>1867</ele>
        <time>2013-08-11T12:09:02Z</time>
      </trkpt>
      <trkpt lat="45.25364" lon="6.24846">
        <ele>1864</ele>
        <time>2013-08-11T12:09:05Z</time>
      </trkpt>
      <trkpt lat="45.25375" lon="6.24835">
        <ele>1863</ele>
        <time>2013-08-11T12:09:08Z</time>
      </trkpt>
      <trkpt lat="45.25386" lon="6.24824">
        <ele>1873</ele>
        <time>2013-08-11T12:09:11Z</time>
      </trkpt>
      <trkpt lat="45.25394" lon="6.24817">
        <ele>1873</ele>
        <time>2013-08-11T12:09:13Z</time>
      </trkpt>
      <trkpt lat="45.25403" lon="6.24822">
        <ele>1870</ele>
        <time>2013-08-11T12:09:17Z</time>
      </trkpt>
      <trkpt lat="45.25401" lon="6.24835">
        <ele>1861</ele>
        <time>2013-08-11T12:09:20Z</time>
      </trkpt>
      <trkpt lat="45.25397" lon="6.24849">
        <ele>1860</ele>
        <time>2013-08-11T12:09:23Z</time>
      </trkpt>
      <trkpt lat="45.25409" lon="6.2485">
        <ele>1860</ele>
        <time>2013-08-11T12:09:30Z</time>
      </trkpt>
      <trkpt lat="45.25419" lon="6.24849">
        <ele>1853</ele>
        <time>2013-08-11T12:09:32Z</time>
      </trkpt>
      <trkpt lat="45.25427" lon="6.24856">
        <ele>1849</ele>
        <time>2013-08-11T12:09:36Z</time>
      </trkpt>
      <trkpt lat="45.25418" lon="6.24865">
        <ele>1847</ele>
        <time>2013-08-11T12:09:41Z</time>
      </trkpt>
      <trkpt lat="45.25417" lon="6.24879">
        <ele>1855</ele>
        <time>2013-08-11T12:09:44Z</time>
      </trkpt>
      <trkpt lat="45.25413" lon="6.24894">
        <ele>1851</ele>
        <time>2013-08-11T12:09:47Z</time>
      </trkpt>
      <trkpt lat="45.2542" lon="6.24906">
        <ele>1840</ele>
        <time>2013-08-11T12:09:54Z</time>
      </trkpt>
      <trkpt lat="45.2543" lon="6.24903">
        <ele>1840</ele>
        <time>2013-08-11T12:09:57Z</time>
      </trkpt>
      <trkpt lat="45.25432" lon="6.24916">
        <ele>1840</ele>
        <time>2013-08-11T12:10:05Z</time>
      </trkpt>
      <trkpt lat="45.25427" lon="6.24927">
        <ele>1829</ele>
        <time>2013-08-11T12:10:12Z</time>
      </trkpt>
      <trkpt lat="45.2543" lon="6.24942">
        <ele>1824</ele>
        <time>2013-08-11T12:10:17Z</time>
      </trkpt>
      <trkpt lat="45.25436" lon="6.24955">
        <ele>1821</ele>
        <time>2013-08-11T12:10:22Z</time>
      </trkpt>
      <trkpt lat="45.25441" lon="6.24966">
        <ele>1818</ele>
        <time>2013-08-11T12:10:27Z</time>
      </trkpt>
      <trkpt lat="45.25443" lon="6.2498">
        <ele>1816</ele>
        <time>2013-08-11T12:10:33Z</time>
      </trkpt>
      <trkpt lat="45.25448" lon="6.24992">
        <ele>1815</ele>
        <time>2013-08-11T12:10:40Z</time>
      </trkpt>
      <trkpt lat="45.25446" lon="6.25007">
        <ele>1802</ele>
        <time>2013-08-11T12:10:46Z</time>
      </trkpt>
      <trkpt lat="45.25448" lon="6.25022">
        <ele>1800</ele>
        <time>2013-08-11T12:10:51Z</time>
      </trkpt>
      <trkpt lat="45.25448" lon="6.25036">
        <ele>1798</ele>
        <time>2013-08-11T12:10:57Z</time>
      </trkpt>
      <trkpt lat="45.25457" lon="6.25042">
        <ele>1797</ele>
        <time>2013-08-11T12:11:01Z</time>
      </trkpt>
      <trkpt lat="45.25455" lon="6.25055">
        <ele>1796</ele>
        <time>2013-08-11T12:11:06Z</time>
      </trkpt>
      <trkpt lat="45.2546" lon="6.25068">
        <ele>1794</ele>
        <time>2013-08-11T12:11:11Z</time>
      </trkpt>
      <trkpt lat="45.25467" lon="6.25077">
        <ele>1793</ele>
        <time>2013-08-11T12:11:14Z</time>
      </trkpt>
      <trkpt lat="45.25467" lon="6.25092">
        <ele>1783</ele>
        <time>2013-08-11T12:11:17Z</time>
      </trkpt>
      <trkpt lat="45.25475" lon="6.25104">
        <ele>1782</ele>
        <time>2013-08-11T12:11:21Z</time>
      </trkpt>
      <trkpt lat="45.25481" lon="6.25119">
        <ele>1781</ele>
        <time>2013-08-11T12:11:25Z</time>
      </trkpt>
      <trkpt lat="45.2548" lon="6.25135">
        <ele>1779</ele>
        <time>2013-08-11T12:11:28Z</time>
      </trkpt>
      <trkpt lat="45.25487" lon="6.25147">
        <ele>1777</ele>
        <time>2013-08-11T12:11:31Z</time>
      </trkpt>
      <trkpt lat="45.25493" lon="6.25162">
        <ele>1773</ele>
        <time>2013-08-11T12:11:35Z</time>
      </trkpt>
      <trkpt lat="45.25487" lon="6.25174">
        <ele>1770</ele>
        <time>2013-08-11T12:11:37Z</time>
      </trkpt>
      <trkpt lat="45.2548" lon="6.2519">
        <ele>1770</ele>
        <time>2013-08-11T12:11:39Z</time>
      </trkpt>
      <trkpt lat="45.25475" lon="6.25205">
        <ele>1769</ele>
        <time>2013-08-11T12:11:41Z</time>
      </trkpt>
      <trkpt lat="45.25469" lon="6.25219">
        <ele>1769</ele>
        <time>2013-08-11T12:11:43Z</time>
      </trkpt>
      <trkpt lat="45.25465" lon="6.25232">
        <ele>1768</ele>
        <time>2013-08-11T12:11:46Z</time>
      </trkpt>
      <trkpt lat="45.25462" lon="6.25247">
        <ele>1768</ele>
        <time>2013-08-11T12:11:53Z</time>
      </trkpt>
      <trkpt lat="45.25462" lon="6.25263">
        <ele>1762</ele>
        <time>2013-08-11T12:11:56Z</time>
      </trkpt>
      <trkpt lat="45.25466" lon="6.25276">
        <ele>1761</ele>
        <time>2013-08-11T12:11:58Z</time>
      </trkpt>
      <trkpt lat="45.2547" lon="6.25288">
        <ele>1760</ele>
        <time>2013-08-11T12:12:00Z</time>
      </trkpt>
      <trkpt lat="45.25476" lon="6.253">
        <ele>1759</ele>
        <time>2013-08-11T12:12:03Z</time>
      </trkpt>
      <trkpt lat="45.25484" lon="6.2531">
        <ele>1758</ele>
        <time>2013-08-11T12:12:06Z</time>
      </trkpt>
      <trkpt lat="45.25491" lon="6.25322">
        <ele>1755</ele>
        <time>2013-08-11T12:12:08Z</time>
      </trkpt>
      <trkpt lat="45.255" lon="6.25331">
        <ele>1751</ele>
        <time>2013-08-11T12:12:10Z</time>
      </trkpt>
      <trkpt lat="45.2551" lon="6.25333">
        <ele>1750</ele>
        <time>2013-08-11T12:12:12Z</time>
      </trkpt>
      <trkpt lat="45.2552" lon="6.25329">
        <ele>1750</ele>
        <time>2013-08-11T12:12:14Z</time>
      </trkpt>
      <trkpt lat="45.25532" lon="6.25326">
        <ele>1749</ele>
        <time>2013-08-11T12:12:16Z</time>
      </trkpt>
      <trkpt lat="45.25544" lon="6.25325">
        <ele>1748</ele>
        <time>2013-08-11T12:12:18Z</time>
      </trkpt>
      <trkpt lat="45.25557" lon="6.25322">
        <ele>1747</ele>
        <time>2013-08-11T12:12:21Z</time>
      </trkpt>
      <trkpt lat="45.25568" lon="6.25319">
        <ele>1746</ele>
        <time>2013-08-11T12:12:24Z</time>
      </trkpt>
      <trkpt lat="45.2558" lon="6.25318">
        <ele>1744</ele>
        <time>2013-08-11T12:12:28Z</time>
      </trkpt>
      <trkpt lat="45.25589" lon="6.25313">
        <ele>1743</ele>
        <time>2013-08-11T12:12:31Z</time>
      </trkpt>
      <trkpt lat="45.25598" lon="6.25306">
        <ele>1743</ele>
        <time>2013-08-11T12:12:34Z</time>
      </trkpt>
      <trkpt lat="45.25606" lon="6.25298">
        <ele>1744</ele>
        <time>2013-08-11T12:12:38Z</time>
      </trkpt>
      <trkpt lat="45.25614" lon="6.25288">
        <ele>1744</ele>
        <time>2013-08-11T12:12:44Z</time>
      </trkpt>
      <trkpt lat="45.2562" lon="6.25276">
        <ele>1745</ele>
        <time>2013-08-11T12:12:48Z</time>
      </trkpt>
      <trkpt lat="45.25629" lon="6.2527">
        <ele>1745</ele>
        <time>2013-08-11T12:12:52Z</time>
      </trkpt>
      <trkpt lat="45.25635" lon="6.2528">
        <ele>1745</ele>
        <time>2013-08-11T12:12:56Z</time>
      </trkpt>
      <trkpt lat="45.25634" lon="6.25295">
        <ele>1744</ele>
        <time>2013-08-11T12:12:58Z</time>
      </trkpt>
      <trkpt lat="45.25633" lon="6.25316">
        <ele>1743</ele>
        <time>2013-08-11T12:13:00Z</time>
      </trkpt>
      <trkpt lat="45.25632" lon="6.25342">
        <ele>1739</ele>
        <time>2013-08-11T12:13:02Z</time>
      </trkpt>
      <trkpt lat="45.25632" lon="6.25355">
        <ele>1739</ele>
        <time>2013-08-11T12:13:03Z</time>
      </trkpt>
      <trkpt lat="45.25632" lon="6.2537">
        <ele>1739</ele>
        <time>2013-08-11T12:13:04Z</time>
      </trkpt>
      <trkpt lat="45.25631" lon="6.25386">
        <ele>1738</ele>
        <time>2013-08-11T12:13:05Z</time>
      </trkpt>
      <trkpt lat="45.2563" lon="6.25401">
        <ele>1738</ele>
        <time>2013-08-11T12:13:06Z</time>
      </trkpt>
      <trkpt lat="45.25628" lon="6.25416">
        <ele>1737</ele>
        <time>2013-08-11T12:13:07Z</time>
      </trkpt>
      <trkpt lat="45.25627" lon="6.25433">
        <ele>1733</ele>
        <time>2013-08-11T12:13:08Z</time>
      </trkpt>
      <trkpt lat="45.25625" lon="6.2545">
        <ele>1732</ele>
        <time>2013-08-11T12:13:09Z</time>
      </trkpt>
      <trkpt lat="45.25625" lon="6.25466">
        <ele>1731</ele>
        <time>2013-08-11T12:13:10Z</time>
      </trkpt>
      <trkpt lat="45.25625" lon="6.25483">
        <ele>1731</ele>
        <time>2013-08-11T12:13:11Z</time>
      </trkpt>
      <trkpt lat="45.25625" lon="6.25498">
        <ele>1730</ele>
        <time>2013-08-11T12:13:12Z</time>
      </trkpt>
      <trkpt lat="45.25625" lon="6.25513">
        <ele>1725</ele>
        <time>2013-08-11T12:13:13Z</time>
      </trkpt>
      <trkpt lat="45.25625" lon="6.25529">
        <ele>1724</ele>
        <time>2013-08-11T12:13:14Z</time>
      </trkpt>
      <trkpt lat="45.25623" lon="6.25545">
        <ele>1723</ele>
        <time>2013-08-11T12:13:15Z</time>
      </trkpt>
      <trkpt lat="45.25622" lon="6.25563">
        <ele>1722</ele>
        <time>2013-08-11T12:13:16Z</time>
      </trkpt>
      <trkpt lat="45.25621" lon="6.25578">
        <ele>1721</ele>
        <time>2013-08-11T12:13:17Z</time>
      </trkpt>
      <trkpt lat="45.2562" lon="6.25593">
        <ele>1716</ele>
        <time>2013-08-11T12:13:18Z</time>
      </trkpt>
      <trkpt lat="45.25619" lon="6.25608">
        <ele>1716</ele>
        <time>2013-08-11T12:13:19Z</time>
      </trkpt>
      <trkpt lat="45.25618" lon="6.25624">
        <ele>1715</ele>
        <time>2013-08-11T12:13:20Z</time>
      </trkpt>
      <trkpt lat="45.25614" lon="6.25648">
        <ele>1714</ele>
        <time>2013-08-11T12:13:22Z</time>
      </trkpt>
      <trkpt lat="45.25609" lon="6.25665">
        <ele>1714</ele>
        <time>2013-08-11T12:13:24Z</time>
      </trkpt>
      <trkpt lat="45.25599" lon="6.25676">
        <ele>1710</ele>
        <time>2013-08-11T12:13:26Z</time>
      </trkpt>
      <trkpt lat="45.25588" lon="6.25684">
        <ele>1710</ele>
        <time>2013-08-11T12:13:28Z</time>
      </trkpt>
      <trkpt lat="45.25579" lon="6.25697">
        <ele>1708</ele>
        <time>2013-08-11T12:13:30Z</time>
      </trkpt>
      <trkpt lat="45.25569" lon="6.2571">
        <ele>1708</ele>
        <time>2013-08-11T12:13:32Z</time>
      </trkpt>
      <trkpt lat="45.25562" lon="6.25722">
        <ele>1708</ele>
        <time>2013-08-11T12:13:34Z</time>
      </trkpt>
      <trkpt lat="45.25558" lon="6.25736">
        <ele>1707</ele>
        <time>2013-08-11T12:13:36Z</time>
      </trkpt>
      <trkpt lat="45.2556" lon="6.25751">
        <ele>1705</ele>
        <time>2013-08-11T12:13:38Z</time>
      </trkpt>
      <trkpt lat="45.25569" lon="6.25771">
        <ele>1705</ele>
        <time>2013-08-11T12:13:40Z</time>
      </trkpt>
      <trkpt lat="45.25575" lon="6.25787">
        <ele>1704</ele>
        <time>2013-08-11T12:13:42Z</time>
      </trkpt>
      <trkpt lat="45.25571" lon="6.2581">
        <ele>1704</ele>
        <time>2013-08-11T12:13:44Z</time>
      </trkpt>
      <trkpt lat="45.25561" lon="6.25832">
        <ele>1703</ele>
        <time>2013-08-11T12:13:46Z</time>
      </trkpt>
      <trkpt lat="45.25537" lon="6.25858">
        <ele>1700</ele>
        <time>2013-08-11T12:13:49Z</time>
      </trkpt>
      <trkpt lat="45.25525" lon="6.25867">
        <ele>1700</ele>
        <time>2013-08-11T12:13:51Z</time>
      </trkpt>
      <trkpt lat="45.25513" lon="6.25862">
        <ele>1700</ele>
        <time>2013-08-11T12:13:53Z</time>
      </trkpt>
      <trkpt lat="45.25503" lon="6.25852">
        <ele>1701</ele>
        <time>2013-08-11T12:13:56Z</time>
      </trkpt>
      <trkpt lat="45.25492" lon="6.25842">
        <ele>1703</ele>
        <time>2013-08-11T12:13:58Z</time>
      </trkpt>
      <trkpt lat="45.25483" lon="6.25833">
        <ele>1704</ele>
        <time>2013-08-11T12:14:01Z</time>
      </trkpt>
      <trkpt lat="45.25471" lon="6.25821">
        <ele>1704</ele>
        <time>2013-08-11T12:14:05Z</time>
      </trkpt>
      <trkpt lat="45.25463" lon="6.2581">
        <ele>1705</ele>
        <time>2013-08-11T12:14:09Z</time>
      </trkpt>
      <trkpt lat="45.25456" lon="6.25801">
        <ele>1705</ele>
        <time>2013-08-11T12:14:12Z</time>
      </trkpt>
      <trkpt lat="45.2545" lon="6.25792">
        <ele>1705</ele>
        <time>2013-08-11T12:14:15Z</time>
      </trkpt>
      <trkpt lat="45.25442" lon="6.25783">
        <ele>1705</ele>
        <time>2013-08-11T12:14:18Z</time>
      </trkpt>
      <trkpt lat="45.25436" lon="6.25773">
        <ele>1705</ele>
        <time>2013-08-11T12:14:21Z</time>
      </trkpt>
      <trkpt lat="45.2543" lon="6.25762">
        <ele>1706</ele>
        <time>2013-08-11T12:14:24Z</time>
      </trkpt>
      <trkpt lat="45.25423" lon="6.2575">
        <ele>1706</ele>
        <time>2013-08-11T12:14:27Z</time>
      </trkpt>
      <trkpt lat="45.25415" lon="6.25739">
        <ele>1709</ele>
        <time>2013-08-11T12:14:31Z</time>
      </trkpt>
      <trkpt lat="45.25408" lon="6.25729">
        <ele>1711</ele>
        <time>2013-08-11T12:14:35Z</time>
      </trkpt>
      <trkpt lat="45.25401" lon="6.25719">
        <ele>1712</ele>
        <time>2013-08-11T12:14:39Z</time>
      </trkpt>
      <trkpt lat="45.25392" lon="6.25712">
        <ele>1713</ele>
        <time>2013-08-11T12:14:43Z</time>
      </trkpt>
      <trkpt lat="45.25382" lon="6.25703">
        <ele>1714</ele>
        <time>2013-08-11T12:14:49Z</time>
      </trkpt>
      <trkpt lat="45.25374" lon="6.25696">
        <ele>1715</ele>
        <time>2013-08-11T12:14:53Z</time>
      </trkpt>
      <trkpt lat="45.25363" lon="6.25692">
        <ele>1716</ele>
        <time>2013-08-11T12:14:58Z</time>
      </trkpt>
      <trkpt lat="45.25354" lon="6.25697">
        <ele>1716</ele>
        <time>2013-08-11T12:15:05Z</time>
      </trkpt>
      <trkpt lat="45.25345" lon="6.25705">
        <ele>1716</ele>
        <time>2013-08-11T12:15:11Z</time>
      </trkpt>
      <trkpt lat="45.25335" lon="6.25709">
        <ele>1717</ele>
        <time>2013-08-11T12:15:17Z</time>
      </trkpt>
      <trkpt lat="45.25324" lon="6.25713">
        <ele>1724</ele>
        <time>2013-08-11T12:15:23Z</time>
      </trkpt>
      <trkpt lat="45.25315" lon="6.25716">
        <ele>1725</ele>
        <time>2013-08-11T12:15:34Z</time>
      </trkpt>
      <trkpt lat="45.25305" lon="6.2572">
        <ele>1726</ele>
        <time>2013-08-11T12:15:37Z</time>
      </trkpt>
      <trkpt lat="45.25296" lon="6.25726">
        <ele>1726</ele>
        <time>2013-08-11T12:15:41Z</time>
      </trkpt>
      <trkpt lat="45.25288" lon="6.25732">
        <ele>1727</ele>
        <time>2013-08-11T12:15:45Z</time>
      </trkpt>
      <trkpt lat="45.25279" lon="6.25738">
        <ele>1728</ele>
        <time>2013-08-11T12:15:48Z</time>
      </trkpt>
      <trkpt lat="45.25267" lon="6.25743">
        <ele>1729</ele>
        <time>2013-08-11T12:15:51Z</time>
      </trkpt>
      <trkpt lat="45.25267" lon="6.25757">
        <ele>1728</ele>
        <time>2013-08-11T12:15:58Z</time>
      </trkpt>
      <trkpt lat="45.25269" lon="6.25771">
        <ele>1726</ele>
        <time>2013-08-11T12:16:05Z</time>
      </trkpt>
      <trkpt lat="45.25264" lon="6.25784">
        <ele>1726</ele>
        <time>2013-08-11T12:16:12Z</time>
      </trkpt>
      <trkpt lat="45.25255" lon="6.25789">
        <ele>1726</ele>
        <time>2013-08-11T12:16:17Z</time>
      </trkpt>
      <trkpt lat="45.25246" lon="6.25797">
        <ele>1731</ele>
        <time>2013-08-11T12:16:24Z</time>
      </trkpt>
      <trkpt lat="45.25237" lon="6.25804">
        <ele>1731</ele>
        <time>2013-08-11T12:16:29Z</time>
      </trkpt>
      <trkpt lat="45.25228" lon="6.258">
        <ele>1732</ele>
        <time>2013-08-11T12:16:34Z</time>
      </trkpt>
      <trkpt lat="45.25222" lon="6.25788">
        <ele>1733</ele>
        <time>2013-08-11T12:16:39Z</time>
      </trkpt>
      <trkpt lat="45.25221" lon="6.25774">
        <ele>1734</ele>
        <time>2013-08-11T12:16:46Z</time>
      </trkpt>
      <trkpt lat="45.25223" lon="6.2576">
        <ele>1734</ele>
        <time>2013-08-11T12:16:53Z</time>
      </trkpt>
      <trkpt lat="45.25222" lon="6.25745">
        <ele>1737</ele>
        <time>2013-08-11T12:16:59Z</time>
      </trkpt>
      <trkpt lat="45.25219" lon="6.25731">
        <ele>1738</ele>
        <time>2013-08-11T12:17:05Z</time>
      </trkpt>
      <trkpt lat="45.2521" lon="6.25725">
        <ele>1739</ele>
        <time>2013-08-11T12:17:13Z</time>
      </trkpt>
      <trkpt lat="45.252" lon="6.25725">
        <ele>1739</ele>
        <time>2013-08-11T12:17:20Z</time>
      </trkpt>
      <trkpt lat="45.25189" lon="6.25725">
        <ele>1740</ele>
        <time>2013-08-11T12:17:27Z</time>
      </trkpt>
      <trkpt lat="45.25179" lon="6.25726">
        <ele>1741</ele>
        <time>2013-08-11T12:17:33Z</time>
      </trkpt>
      <trkpt lat="45.25169" lon="6.25727">
        <ele>1741</ele>
        <time>2013-08-11T12:17:39Z</time>
      </trkpt>
      <trkpt lat="45.25159" lon="6.25727">
        <ele>1746</ele>
        <time>2013-08-11T12:17:47Z</time>
      </trkpt>
      <trkpt lat="45.25149" lon="6.25723">
        <ele>1747</ele>
        <time>2013-08-11T12:17:53Z</time>
      </trkpt>
      <trkpt lat="45.25139" lon="6.25719">
        <ele>1748</ele>
        <time>2013-08-11T12:17:58Z</time>
      </trkpt>
      <trkpt lat="45.25129" lon="6.25714">
        <ele>1748</ele>
        <time>2013-08-11T12:18:03Z</time>
      </trkpt>
      <trkpt lat="45.2512" lon="6.2571">
        <ele>1749</ele>
        <time>2013-08-11T12:18:08Z</time>
      </trkpt>
      <trkpt lat="45.2511" lon="6.25706">
        <ele>1750</ele>
        <time>2013-08-11T12:18:13Z</time>
      </trkpt>
      <trkpt lat="45.25101" lon="6.25703">
        <ele>1750</ele>
        <time>2013-08-11T12:18:19Z</time>
      </trkpt>
      <trkpt lat="45.2509" lon="6.25702">
        <ele>1751</ele>
        <time>2013-08-11T12:18:25Z</time>
      </trkpt>
      <trkpt lat="45.25079" lon="6.25699">
        <ele>1754</ele>
        <time>2013-08-11T12:18:31Z</time>
      </trkpt>
      <trkpt lat="45.25069" lon="6.25698">
        <ele>1754</ele>
        <time>2013-08-11T12:18:37Z</time>
      </trkpt>
      <trkpt lat="45.25059" lon="6.25697">
        <ele>1754</ele>
        <time>2013-08-11T12:18:42Z</time>
      </trkpt>
      <trkpt lat="45.2505" lon="6.25697">
        <ele>1754</ele>
        <time>2013-08-11T12:18:47Z</time>
      </trkpt>
      <trkpt lat="45.2504" lon="6.25696">
        <ele>1754</ele>
        <time>2013-08-11T12:18:52Z</time>
      </trkpt>
      <trkpt lat="45.25034" lon="6.25709">
        <ele>1753</ele>
        <time>2013-08-11T12:18:58Z</time>
      </trkpt>
      <trkpt lat="45.25036" lon="6.25723">
        <ele>1752</ele>
        <time>2013-08-11T12:19:02Z</time>
      </trkpt>
      <trkpt lat="45.25041" lon="6.2574">
        <ele>1751</ele>
        <time>2013-08-11T12:19:05Z</time>
      </trkpt>
      <trkpt lat="45.25048" lon="6.25755">
        <ele>1744</ele>
        <time>2013-08-11T12:19:10Z</time>
      </trkpt>
      <trkpt lat="45.25052" lon="6.25766">
        <ele>1743</ele>
        <time>2013-08-11T12:19:12Z</time>
      </trkpt>
      <trkpt lat="45.25057" lon="6.25784">
        <ele>1742</ele>
        <time>2013-08-11T12:19:14Z</time>
      </trkpt>
      <trkpt lat="45.25064" lon="6.25797">
        <ele>1742</ele>
        <time>2013-08-11T12:19:16Z</time>
      </trkpt>
      <trkpt lat="45.2507" lon="6.25814">
        <ele>1740</ele>
        <time>2013-08-11T12:19:18Z</time>
      </trkpt>
      <trkpt lat="45.25078" lon="6.25829">
        <ele>1740</ele>
        <time>2013-08-11T12:19:20Z</time>
      </trkpt>
      <trkpt lat="45.25087" lon="6.25844">
        <ele>1737</ele>
        <time>2013-08-11T12:19:22Z</time>
      </trkpt>
      <trkpt lat="45.25094" lon="6.25857">
        <ele>1735</ele>
        <time>2013-08-11T12:19:24Z</time>
      </trkpt>
      <trkpt lat="45.25101" lon="6.25867">
        <ele>1734</ele>
        <time>2013-08-11T12:19:26Z</time>
      </trkpt>
      <trkpt lat="45.25109" lon="6.25878">
        <ele>1733</ele>
        <time>2013-08-11T12:19:29Z</time>
      </trkpt>
      <trkpt lat="45.25114" lon="6.25893">
        <ele>1732</ele>
        <time>2013-08-11T12:19:32Z</time>
      </trkpt>
      <trkpt lat="45.25118" lon="6.2591">
        <ele>1731</ele>
        <time>2013-08-11T12:19:34Z</time>
      </trkpt>
      <trkpt lat="45.25122" lon="6.25926">
        <ele>1723</ele>
        <time>2013-08-11T12:19:36Z</time>
      </trkpt>
      <trkpt lat="45.25125" lon="6.2594">
        <ele>1722</ele>
        <time>2013-08-11T12:19:38Z</time>
      </trkpt>
      <trkpt lat="45.25128" lon="6.25952">
        <ele>1721</ele>
        <time>2013-08-11T12:19:40Z</time>
      </trkpt>
      <trkpt lat="45.25133" lon="6.25973">
        <ele>1719</ele>
        <time>2013-08-11T12:19:42Z</time>
      </trkpt>
      <trkpt lat="45.25135" lon="6.25995">
        <ele>1718</ele>
        <time>2013-08-11T12:19:44Z</time>
      </trkpt>
      <trkpt lat="45.2514" lon="6.26016">
        <ele>1709</ele>
        <time>2013-08-11T12:19:46Z</time>
      </trkpt>
      <trkpt lat="45.25147" lon="6.26037">
        <ele>1707</ele>
        <time>2013-08-11T12:19:48Z</time>
      </trkpt>
      <trkpt lat="45.25156" lon="6.26054">
        <ele>1706</ele>
        <time>2013-08-11T12:19:50Z</time>
      </trkpt>
      <trkpt lat="45.25167" lon="6.26067">
        <ele>1705</ele>
        <time>2013-08-11T12:19:52Z</time>
      </trkpt>
      <trkpt lat="45.25178" lon="6.26076">
        <ele>1705</ele>
        <time>2013-08-11T12:19:54Z</time>
      </trkpt>
      <trkpt lat="45.25189" lon="6.26081">
        <ele>1705</ele>
        <time>2013-08-11T12:19:56Z</time>
      </trkpt>
      <trkpt lat="45.25203" lon="6.26082">
        <ele>1705</ele>
        <time>2013-08-11T12:19:58Z</time>
      </trkpt>
      <trkpt lat="45.25217" lon="6.26083">
        <ele>1705</ele>
        <time>2013-08-11T12:20:00Z</time>
      </trkpt>
      <trkpt lat="45.25232" lon="6.26084">
        <ele>1700</ele>
        <time>2013-08-11T12:20:02Z</time>
      </trkpt>
      <trkpt lat="45.25248" lon="6.26084">
        <ele>1701</ele>
        <time>2013-08-11T12:20:04Z</time>
      </trkpt>
      <trkpt lat="45.25266" lon="6.26086">
        <ele>1699</ele>
        <time>2013-08-11T12:20:06Z</time>
      </trkpt>
      <trkpt lat="45.25283" lon="6.26088">
        <ele>1699</ele>
        <time>2013-08-11T12:20:08Z</time>
      </trkpt>
      <trkpt lat="45.253" lon="6.26091">
        <ele>1698</ele>
        <time>2013-08-11T12:20:10Z</time>
      </trkpt>
      <trkpt lat="45.25318" lon="6.26094">
        <ele>1698</ele>
        <time>2013-08-11T12:20:12Z</time>
      </trkpt>
      <trkpt lat="45.25336" lon="6.26098">
        <ele>1698</ele>
        <time>2013-08-11T12:20:14Z</time>
      </trkpt>
      <trkpt lat="45.25354" lon="6.26102">
        <ele>1697</ele>
        <time>2013-08-11T12:20:16Z</time>
      </trkpt>
      <trkpt lat="45.25369" lon="6.26103">
        <ele>1696</ele>
        <time>2013-08-11T12:20:18Z</time>
      </trkpt>
      <trkpt lat="45.25379" lon="6.26102">
        <ele>1696</ele>
        <time>2013-08-11T12:20:20Z</time>
      </trkpt>
      <trkpt lat="45.25388" lon="6.26098">
        <ele>1696</ele>
        <time>2013-08-11T12:20:23Z</time>
      </trkpt>
      <trkpt lat="45.25396" lon="6.26089">
        <ele>1696</ele>
        <time>2013-08-11T12:20:26Z</time>
      </trkpt>
      <trkpt lat="45.25399" lon="6.26075">
        <ele>1697</ele>
        <time>2013-08-11T12:20:30Z</time>
      </trkpt>
      <trkpt lat="45.25402" lon="6.26059">
        <ele>1698</ele>
        <time>2013-08-11T12:20:34Z</time>
      </trkpt>
      <trkpt lat="45.25406" lon="6.26042">
        <ele>1698</ele>
        <time>2013-08-11T12:20:38Z</time>
      </trkpt>
      <trkpt lat="45.2541" lon="6.2603">
        <ele>1698</ele>
        <time>2013-08-11T12:20:41Z</time>
      </trkpt>
      <trkpt lat="45.25413" lon="6.26016">
        <ele>1698</ele>
        <time>2013-08-11T12:20:44Z</time>
      </trkpt>
      <trkpt lat="45.25417" lon="6.26002">
        <ele>1698</ele>
        <time>2013-08-11T12:20:48Z</time>
      </trkpt>
      <trkpt lat="45.2542" lon="6.25987">
        <ele>1698</ele>
        <time>2013-08-11T12:20:52Z</time>
      </trkpt>
      <trkpt lat="45.25423" lon="6.25974">
        <ele>1698</ele>
        <time>2013-08-11T12:20:57Z</time>
      </trkpt>
      <trkpt lat="45.25423" lon="6.25961">
        <ele>1699</ele>
        <time>2013-08-11T12:21:06Z</time>
      </trkpt>
      <trkpt lat="45.25433" lon="6.25952">
        <ele>1699</ele>
        <time>2013-08-11T12:21:29Z</time>
      </trkpt>
      <trkpt lat="45.25443" lon="6.2595">
        <ele>1699</ele>
        <time>2013-08-11T12:22:07Z</time>
      </trkpt>
      <trkpt lat="45.25452" lon="6.25949">
        <ele>1698</ele>
        <time>2013-08-11T12:22:22Z</time>
      </trkpt>
      <trkpt lat="45.25443" lon="6.25945">
        <ele>1699</ele>
        <time>2013-08-11T12:23:11Z</time>
      </trkpt>
    </trkseg>
  </trk>
</gpx>